     2              OBSERVATION DATA    GPS                 RINEX VERSION / TYPE
teqc 1997Jul24 19970902 21:04:48UTC                         PGM / RUN BY / DATE
                                                            COMMENT
BIT 2 OF LLI FLAGS DATA COLLECTED UNDER A-S CONDITION       COMMENT
BIT 2 OF LLI FLAGS DATA COLLECTED UNDER A-S CONDITION       COMMENT
Original Marker Name: MONU.55474                            COMMENT
Campaign Name: Salt. Tr. Crust. Monit. May-Jun 1986         COMMENT
4-Character Station Name: MONU                              COMMENT
6-Character Antenna Code: TI4100                            COMMENT
Vertical Measurement Point: PAE                             COMMENT
Vertical Offset to Rinex Ref. Point: 0.0000                 COMMENT
Radial Measurement Point: RRP                               COMMENT
Radial Offset to Rinex Ref. Point: 0.0000                   COMMENT
Antenna Height from Field Measurement: 1.4985 m             COMMENT
Original XYZ: -2386277.3194 -4802338.1887 3444921.1349      COMMENT
New XYZ position is based on association with SCEC monument COMMENT
E1C8W5H0+0011. Position of that monument is believed to be  COMMENT
valid to within 1 m horizontally; vertical accuracy         COMMENT
should be no worse than 3-times this value.                 COMMENT
                                                            COMMENT
Revised Rinex header created by UCSD GPS archive for        COMMENT
GSAC on 10-Apr-1999 (1999:100) 06:29:57 GMT                 COMMENT
For assistance contact dagnew@ucsd.edu or hjohnson@ucsd.edu COMMENT
                                                            COMMENT
MONUMENT PEAK NCMN 1983                                     MARKER NAME
05 NATIONAL GEODETIC SURVEY                                 OBSERVER / AGENCY
UT-33 TI 4100 1.0                                           REC # / TYPE / VERS
4091 TI 4100                                                ANT # / TYPE
 -2386290.0000 -4802346.0000  3444884.0000                  APPROX POSITION XYZ
        1.4985        0.0000        0.0000                  ANTENNA: DELTA H/E/N
     1     1     0                                          WAVELENGTH FACT L1/2
     4    P1    P2    L1    L2                              # / TYPES OF OBSERV
     6                                                      INTERVAL
  1986     6    19     0    45   41.000000                  TIME OF FIRST OBS
  1986     6    19     2    33   29.000000                  TIME OF LAST OBS
     0                                                      # OF SATELLITES
                                                            END OF HEADER
 86  6 19  0 45 41.0800000  0  3G 6G 9G11
  20809087.881    20809089.726     5389026.519 9  -4606544.336 8
  20363991.388    20363992.302    22270064.938 7 -59894938.644 8
  21202801.892    21202804.579    38658481.380 9 -47163374.507 9
 86  6 19  0 45 47.0800000  0  3G 6G 9G11
  20810798.209    20810800.223     5398014.428 9  -4599540.780 6
  20362319.130    20362319.934    22261278.056 9 -59901785.549 7
  21204911.525    21204915.100    38669569.164 9 -47154734.685 8
 86  6 19  0 45 53.0800000  0  3G 6G 9G11
  20812512.969    20812514.100     5407023.558 9  -4592520.679 8
  20360650.770    20360652.411    22252510.313 9 -59908617.570 7
  21207024.028    21207026.465    38680671.308 9 -47146083.659 8
 86  6 19  0 45 59.0800000  0  3G 6G 9G11
  20814231.009    20814232.408     5416054.073 9  -4585483.915 8
  20358985.657    20358987.484    22243761.718 9 -59915434.664 8
  21209139.957    21209142.028    38691787.796 9 -47137421.446 8
 86  6 19  0 46  5.0800000  0  3G 6G 9G11
  20815954.603    20815954.004     5425105.962 9  -4578430.507 7
  20357324.875    20357326.363    22235032.291 9 -59922236.824 7
  21211258.276    21211260.861    38702918.673 9 -47128748.047 8
 86  6 19  0 46 11.0800000  0  3G 6G 9G11
  20817680.922    20817681.347     5434179.245 9  -4571360.419 8
  20355666.614    20355668.824    22226322.020 9 -59929024.040 7
  21213378.819    21213382.128    38714063.882 9 -47120063.469 8
 86  6 19  0 46 17.0800000  0  3G 6G 9G11
  20819410.911    20819412.851     5443273.806 9  -4564273.757 8
  20354013.293    20354014.939    22217630.919 8 -59935796.322 8
  21215502.668    21215503.830    38725223.338 9 -47111367.771 8
 86  6 19  0 46 23.0800000  0  3G 6G 9G11
  20821145.991    20821147.023     5452389.684 9  -4557170.482 7
  20352365.582    20352364.886    22208959.033 8 -59942553.636 8
  21217628.893    21217629.862    38736397.101 9 -47102660.947 8
 86  6 19  0 46 29.0800000  0  3G 6G 9G11
  20822884.746    20822886.105     5461526.841 9  -4550050.628 8
  20350717.004    20350718.788    22200306.335 9 -59949296.003 8
  21219758.559    21219760.294    38747585.087 9 -47093943.032 8
 86  6 19  0 46 35.0800000  0  3G 6G 9G11
  20824628.385    20824628.772     5470685.324 9  -4542914.145 8
  20349074.306    20349075.252    22191672.850 9 -59956023.388 8
  21221890.250    21221891.562    38758787.351 9 -47085214.005 8
 86  6 19  0 46 41.0800000  0  3G 6G 9G11
  20826374.225    20826375.295     5479865.138 9  -4535761.031 9
  20347435.773    20347435.053    22183058.655 9 -59962735.749 7
  21224024.273    21224026.794    38770003.854 9 -47076473.869 8
 86  6 19  0 46 47.0800000  0  3G 6G 9G11
  20828125.445    20828127.096     5489066.259 9  -4528591.338 8
  20345800.445    20345801.800    22174463.748 9 -59969433.079 7
  21226161.429    21226163.300    38781234.530 9 -47067722.696 8
 86  6 19  0 46 53.0800000  0  3G 6G 9G11
  20829879.605    20829882.449     5498288.726 9  -4521405.006 8
  20344168.001    20344168.773    22165888.152 9 -59976115.362 8
  21228301.075    21228302.696    38792479.386 9 -47058960.471 8
 86  6 19  0 46 59.0800000  0  3G 6G 9G11
  20831638.716    20831641.028     5507532.461 9  -4514202.100 8
  20342540.200    20342541.472    22157331.819 9 -59982782.627 8
  21230443.126    21230445.255    38803738.326 9 -47050187.277 7
 86  6 19  0 47  5.0800000  0  3G 6G 9G11
  20833401.947    20833403.559     5516797.523 9  -4506982.579 8
  20340915.474    20340917.612    22148794.867 9 -59989434.800 8
  21232588.338    21232589.888    38815011.437 9 -47041403.029 8
 86  6 19  0 47 11.0800000  0  3G 6G 9G11
  20835168.519    20835170.973     5526083.925 9  -4499746.432 8
  20339294.576    20339296.121    22140277.296 9 -59996071.875 8
  21234736.572    21234737.869    38826298.668 9 -47032607.784 8
 86  6 19  0 47 17.0800000  0  3G 6G 9G11
  20836939.784    20836943.312     5535391.525 9  -4492493.749 7
  20337678.235    20337678.310    22131779.135 9 -60002693.803 7
  21236887.129    21236888.134    38837599.956 9 -47023801.586 8
 86  6 19  0 47 23.0800000  0  3G 6G 9G11
  20838715.383    20838716.547     5544720.443 9  -4485224.484 7
  20336063.468    20336065.744    22123300.322 9 -60009300.677 8
  21239040.619    21239041.488    38848915.342 9 -47014984.398 9
 86  6 19  0 47 29.0800000  0  3G 6G 9G11
  20840494.588    20840496.180     5554070.697 9  -4477938.569 8
  20334456.295    20334455.581    22114840.903 9 -60015892.425 7
  21241196.564    21241197.424    38860244.770 9 -47006156.269 8
 86  6 19  0 47 35.0800000  0  3G 6G 9G11
  20842278.265    20842279.907     5563442.294 9  -4470636.034 8
  20332848.962    20332849.152    22106401.003 9 -60022468.962 7
  21243354.870    21243357.720    38871588.202 9 -46997317.233 8
 86  6 19  0 47 41.0800000  0  3G 6G 9G11
  20844066.120    20844067.601     5572835.197 9  -4463316.897 8
  20331246.577    20331247.575    22097980.587 9 -60029030.323 7
  21245516.109    21245518.703    38882945.615 9 -46988467.310 9
 86  6 19  0 47 47.0800000  0  3G 6G 9G11
  20845858.093    20845858.927     5582249.353 9  -4455981.185 8
  20329648.876    20329648.379    22089579.620 9 -60035576.523 8
  21247679.795    21247681.608    38894316.956 9 -46979606.515 8
 86  6 19  0 47 53.0800000  0  3G 6G 9G11
  20847653.500    20847654.203     5591684.813 9  -4448628.889 7
  20328053.967    20328053.371    22081198.199 9 -60042107.515 7
  21249846.686    21249848.533    38905702.274 9 -46970734.847 9
 86  6 19  0 47 59.0800000  0  3G 6G 9G11
  20849453.408    20849453.987     5601141.577 9  -4441259.982 7
  20326461.361    20326461.916    22072836.226 9 -60048623.318 9
  21252016.239    21252017.402    38917101.560 9 -46961852.282 8
 86  6 19  0 48  5.0800000  0  3G 6G 9G11
  20851256.515    20851257.060     5610619.650 9  -4433874.463 8
  20324873.177    20324874.424    22064493.864 9 -60055123.868 7
  21254187.243    21254188.943    38928514.782 9 -46952958.869 9
 86  6 19  0 48 11.0800000  0  3G 6G 9G11
  20853064.582    20853064.951     5620119.016 9  -4426472.372 8
  20323289.540    20323289.938    22056171.126 8 -60061609.136 7
  21256362.663    21256363.402    38939941.907 9 -46944054.620 8
 86  6 19  0 48 17.0800000  0  3G 6G 9G11
  20854875.729    20854877.085     5629639.614 9  -4419053.722 7
  20321708.868    20321710.148    22047867.928 8 -60068079.150 8
  21258539.650    21258540.110    38951382.907 9 -46935139.557 8
 86  6 19  0 48 23.0800000  0  3G 6G 9G11
  20856691.623    20856692.295     5639181.497 9  -4411618.495 7
  20320131.873    20320133.599    22039584.372 9 -60074533.863 9
  21260719.291    21260720.446    38962837.772 9 -46926213.690 9
 86  6 19  0 48 29.0800000  0  3G 6G 9G11
  20858511.931    20858512.418     5648744.695 9  -4404166.660 8
  20318559.780    20318562.366    22031320.436 9 -60080973.296 8
  21262901.056    21262903.692    38974306.475 9 -46917277.038 7
 86  6 19  0 48 35.0800000  0  3G 6G 9G11
  20860335.062    20860335.511     5658329.211 9  -4396698.211 8
  20316990.942    20316992.399    22023076.183 9 -60087397.387 7
  21265086.119    21265087.784    38985789.023 9 -46908329.605 8
 86  6 19  0 48 41.0800000  0  3G 6G 9G11
  20862163.620    20862165.133     5667934.974 9  -4389213.199 8
  20315426.550    20315427.030    22014851.609 9 -60093806.147 7
  21267273.995    21267276.250    38997285.375 9 -46899371.408 9
 86  6 19  0 48 47.0800000  0  3G 6G 9G11
  20863995.483    20863996.323     5677562.039 9  -4381711.593 7
  20313864.327    20313865.427    22006646.643 8 -60100199.629 8
  21269464.626    21269466.132    39008795.520 9 -46890402.473 9
 86  6 19  0 48 53.0800000  0  3G 6G 9G11
  20865830.964    20865833.302     5687210.285 9  -4374193.469 8
  20312307.132    20312308.980    21998461.459 9 -60106577.701 8
  21271657.195    21271658.857    39020319.353 9 -46881422.855 9
 86  6 19  0 48 59.0800000  0  3G 6G 9G11
  20867672.328    20867673.007     5696879.853 9  -4366658.743 8
  20310753.448    20310753.875    21990296.031 9 -60112940.369 8
  21273852.890    21273854.547    39031856.985 9 -46872432.506 8
 86  6 19  0 49  5.0800000  0  3G 6G 9G11
  20869515.022    20869516.925     5706570.682 9  -4359107.456 7
  20309203.545    20309204.512    21982150.323 9 -60119287.665 7
  21276050.826    21276053.325    39043408.333 9 -46863431.451 9
 86  6 19  0 49 11.0800000  0  3G 6G 9G11
  20871363.642    20871363.172     5716282.792 9  -4351539.561 8
  20307657.572    20307658.357    21974024.362 9 -60125619.589 7
  21278251.650    21278253.328    39054973.380 9 -46854419.724 9
 86  6 19  0 49 17.0800000  0  3G 6G 9G11
  20873214.415    20873216.038     5726016.184 8  -4343955.101 8
  20306115.618    20306115.750    21965918.181 9 -60131936.096 9
  21280454.331    21280457.402    39066552.145 9 -46845397.319 8
 86  6 19  0 49 23.0800000  0  3G 6G 9G11
  20875070.721    20875072.785     5735770.878 9  -4336354.045 8
  20304576.742    20304577.614    21957831.808 9 -60138237.156 8
  21282660.757    21282663.408    39078144.594 9 -46836364.236 9
 86  6 19  0 49 29.0800000  0  3G 6G 9G11
  20876931.431    20876933.300     5745546.760 9  -4328736.481 7
  20303042.791    20303043.148    21949765.326 9 -60144522.734 8
  21284868.515    21284871.631    39089750.694 9 -46827320.525 9
 86  6 19  0 49 35.0800000  0  3G 6G 9G11
  20878795.010    20878799.053     5755343.904 9  -4321102.352 7
  20301510.781    20301511.901    21941718.690 9 -60150792.826 8
  21287080.115    21287082.988    39101370.363 9 -46818266.250 8
 86  6 19  0 49 41.0800000  0  3G 6G 9G11
  20880662.654    20880666.768     5765162.333 9  -4313451.638 8
  20299983.024    20299984.517    21933691.889 9 -60157047.484 8
  21289294.256    21289297.480    39113003.631 9 -46809201.356 9
 86  6 19  0 49 47.0800000  0  3G 6G 9G11
  20882535.610    20882538.030     5775002.028 8  -4305784.341 7
  20298459.733    20298461.217    21925685.052 9 -60163286.572 8
  21291510.371    21291512.928    39124650.499 9 -46800125.891 9
 86  6 19  0 49 53.0800000  0  3G 6G 9G11
  20884411.567    20884414.522     5784862.942 9  -4298100.525 7
  20296939.875    20296940.787    21917698.114 9 -60169510.161 8
  21293729.476    21293731.955    39136310.870 9 -46791039.877 8
 86  6 19  0 49 59.0800000  0  3G 6G 9G11
  20886292.981    20886294.878     5794745.098 9  -4290400.152 8
  20295424.009    20295424.604    21909731.052 9 -60175718.269 8
  21295951.086    21295953.472    39147984.817 9 -46781943.311 8
 86  6 19  0 50  5.0800000  0  3G 6G 9G11
  20888178.071    20888180.541     5804648.532 8  -4282683.196 8
  20293911.486    20293913.428    21901784.041 9 -60181910.741 8
  21298174.878    21298176.541    39159672.313 9 -46772836.165 8
 86  6 19  0 50 11.0800000  0  3G 6G 9G11
  20890067.011    20890067.987     5814573.195 9  -4274949.694 8
  20292402.770    20292403.553    21893857.002 9 -60188087.653 8
  21300401.616    21300403.067    39171373.394 9 -46763718.438 8
 86  6 19  0 50 17.0800000  0  3G 6G 9G11
  20891960.814    20891961.373     5824519.146 9  -4267199.600 8
  20290897.970    20290898.934    21885949.916 9 -60194249.014 8
  21302630.596    21302632.466    39183087.945 9 -46754590.218 8
 86  6 19  0 50 23.0800000  0  3G 6G 9G11
  20893856.092    20893857.864     5834486.348 9  -4259432.967 8
  20289397.544    20289399.169    21878062.861 9 -60200394.770 9
  21304862.451    21304863.986    39194815.965 9 -46745451.508 8
 86  6 19  0 50 29.0800000  0  3G 6G 9G11
  20895756.635    20895758.037     5844474.708 9  -4251649.817 8
  20287899.530    20287902.170    21870195.804 9 -60206524.938 9
  21307096.688    21307099.060    39206557.444 9 -46736302.293 8
 86  6 19  0 50 35.0800000  0  3G 6G 9G11
  20897662.451    20897662.615     5854484.303 9  -4243850.132 7
  20286406.959    20286408.301    21862348.819 9 -60212639.469 9
  21309334.976    21309334.830    39218312.298 9 -46727142.668 8
 86  6 19  0 50 41.0800000  0  3G 6G 9G11
  20899572.133    20899572.685     5864515.127 9  -4236033.913 9
  20284917.823    20284919.250    21854521.891 9 -60218738.374 8
  21311573.112    21311573.816    39230080.529 9 -46717972.615 8
 86  6 19  0 50 47.0800000  0  3G 6G 9G11
  20901484.579    20901486.293     5874567.211 9  -4228201.123 8
  20283431.910    20283433.976    21846715.057 9 -60224821.620 8
  21313815.785    21313815.901    39241862.165 9 -46708792.126 8
 86  6 19  0 50 53.0800000  0  3G 6G 9G11
  20903401.194    20903403.001     5884640.585 9  -4220351.735 8
  20281949.997    20281952.202    21838928.462 9 -60230889.092 8
  21316059.788    21316061.058    39253657.169 9 -46699601.203 8
 86  6 19  0 50 59.0800000  0  3G 6G 9G11
  20905322.450    20905324.443     5894735.145 9  -4212485.852 9
  20280470.885    20280473.857    21831161.981 9 -60236940.894 8
  21318307.183    21318307.909    39265465.512 9 -46690399.897 8
 86  6 19  0 51  5.0800000  0  3G 6G 9G11
  20907247.323    20907247.865     5904850.932 9  -4204603.416 8
  20278997.095    20279000.265    21823415.545 8 -60242977.077 7
  21320556.715    21320556.992    39277287.175 9 -46681188.218 8
 86  6 19  0 51 11.0800000  0  3G 6G 9G11
  20909176.485    20909178.483     5914987.957 9  -4196704.445 8
  20277526.032    20277529.278    21815689.392 9 -60248997.454 8
  21322808.827    21322808.758    39289122.174 9 -46671966.147 8
 86  6 19  0 51 17.0800000  0  3G 6G 9G11
  20911108.620    20911110.372     5925146.071 9  -4188789.023 8
  20276059.532    20276062.460    21807983.355 9 -60255002.165 8
  21325063.434    21325064.131    39300970.390 9 -46662733.776 8
 86  6 19  0 51 23.0800000  0  3G 6G 9G11
  20913046.065    20913047.727     5935325.406 9  -4180857.073 9
  20274597.341    20274599.202    21800297.439 9 -60260991.190 7
  21327321.353    21327321.233    39312831.854 9 -46653491.077 8
 86  6 19  0 51 29.0800000  0  3G 6G 9G11
  20914987.155    20914989.431     5945525.963 9  -4172908.601 8
  20273137.357    20273140.443    21792631.837 8 -60266964.367 8
  21329580.058    21329581.034    39324706.533 9 -46644238.073 8
 86  6 19  0 51 35.0800000  0  3G 6G 9G11
  20916931.828    20916933.055     5955747.711 9  -4164943.587 9
  20271683.493    20271684.925    21784986.442 9 -60272921.813 8
  21331842.306    21331843.247    39336594.387 9 -46634974.811 9
 86  6 19  0 51 41.0800000  0  3G 6G 9G11
  20918880.591    20918883.134     5965990.643 9  -4156962.082 8
  20270232.398    20270233.494    21777361.358 8 -60278863.457 7
  21334106.886    21334107.927    39348495.475 9 -46625701.239 8
 86  6 19  0 51 47.0800000  0  3G 6G 9G11
  20920834.415    20920834.204     5976254.756 9  -4148964.068 8
  20268784.946    20268786.741    21769756.566 9 -60284789.261 8
  21336374.105    21336376.442    39360409.717 9 -46616417.416 8
 86  6 19  0 51 53.0800000  0  3G 6G 9G11
  20922791.566    20922792.760     5986540.072 9  -4140949.543 8
  20267342.060    20267342.736    21762172.112 9 -60290699.220 8
  21338644.188    21338645.545    39372337.126 9 -46607123.336 8
 86  6 19  0 51 59.0800000  0  3G 6G 9G11
  20924751.900    20924752.851     5996846.567 9  -4132918.520 8
  20265902.670    20265904.173    21754607.906 9 -60296593.396 8
  21340915.951    21340918.073    39384277.664 9 -46597819.029 8
 86  6 19  0 52  5.0800000  0  3G 6G 9G11
  20926716.469    20926718.194     6007174.210 8  -4124871.008 8
  20264467.229    20264467.685    21747064.047 8 -60302471.731 8
  21343191.357    21343193.555    39396231.283 9 -46588504.514 8
 86  6 19  0 52 11.0800000  0  3G 6G 9G11
  20928686.076    20928687.478     6017522.980 9  -4116807.042 8
  20263035.798    20263037.659    21739540.536 9 -60308334.202 8
  21345468.292    21345469.848    39408198.005 9 -46579179.797 8
 86  6 19  0 52 17.0800000  0  3G 6G 9G11
  20930660.232    20930660.445     6027892.935 9  -4108726.555 8
  20261608.943    20261609.690    21732037.361 9 -60314180.838 7
  21347748.319    21347750.550    39420177.812 9 -46569844.887 8
 86  6 19  0 52 23.0800000  0  3G 6G 9G11
  20932637.142    20932638.329     6038284.083 8  -4100629.556 6
  20260185.112    20260186.458    21724554.663 9 -60320011.515 8
  21350029.670    21350031.375    39432170.692 9 -46560499.790 8
 86  6 19  0 52 29.0800000  0  3G 6G 9G11
  20934618.511    20934620.679     6048696.326 9  -4092516.135 8
  20258766.208    20258766.185    21717092.251 9 -60325826.368 8
  21352314.012    21352315.796    39444176.526 9 -46551144.591 9
 86  6 19  0 52 35.0800000  0  3G 6G 9G11
  20936605.097    20936604.849     6059129.701 9  -4084386.244 8
  20257349.953    20257349.310    21709650.349 9 -60331625.254 8
  21354601.272    21354603.320    39456195.362 9 -46541779.273 8
 86  6 19  0 52 41.0800000  0  3G 6G 9G11
  20938593.550    20938595.759     6069584.196 9  -4076239.877 8
  20255937.554    20255937.169    21702228.857 9 -60337408.240 7
  21356890.734    21356893.266    39468227.155 9 -46532403.834 8
 86  6 19  0 52 47.0800000  0  3G 6G 9G11
  20940586.983    20940589.763     6080059.831 9  -4068077.065 8
  20254529.755    20254529.044    21694827.908 8 -60343175.205 8
  21359182.952    21359185.596    39480271.930 9 -46523018.304 9
 86  6 19  0 52 53.0800000  0  3G 6G 9G11
  20942584.853    20942586.855     6090556.622 9  -4059897.753 7
  20253125.679    20253124.926    21687447.415 9 -60348926.233 7
  21361477.474    21361479.947    39492329.671 9 -46513622.663 8
 86  6 19  0 52 59.0800000  0  3G 6G 9G11
  20944586.783    20944588.539     6101074.613 8  -4051701.930 8
  20251725.271    20251723.716    21680087.422 9 -60354661.300 8
  21363774.159    21363776.249    39504400.333 9 -46504216.967 9
 86  6 19  0 53  5.0800000  0  3G 6G 9G11
  20946593.107    20946592.432     6111613.716 9  -4043489.639 8
  20250328.122    20250327.672    21672747.931 9 -60360380.381 8
  21366073.739    21366076.002    39516483.847 9 -46494801.234 8
 86  6 19  0 53 11.0800000  0  3G 6G 9G11
  20948602.305    20948603.144     6122173.910 9  -4035260.919 8
  20248935.702    20248934.329    21665429.056 9 -60366083.405 7
  21368375.507    21368377.529    39528580.224 9 -46485375.498 8
 86  6 19  0 53 17.0800000  0  3G 6G 9G11
  20950616.123    20950616.938     6132755.354 9  -4027015.661 8
  20247546.022    20247547.474    21658130.896 9 -60371770.282 8
  21370679.445    21370681.667    39540689.521 9 -46475939.680 9
 86  6 19  0 53 23.0800000  0  3G 6G 9G11
  20952633.999    20952635.186     6143357.854 9  -4018753.971 8
  20246161.902    20246160.976    21650853.187 9 -60377441.222 8
  21372985.823    21372988.216    39552811.680 9 -46466493.853 8
 86  6 19  0 53 29.0800000  0  3G 6G 9G11
  20954655.216    20954655.866     6153981.422 9  -4010475.871 8
  20244781.076    20244781.262    21643596.129 9 -60383096.067 7
  21375295.370    21375298.844    39564946.621 9 -46457038.055 8
 86  6 19  0 53 35.0800000  0  3G 6G 9G11
  20956681.786    20956681.843     6164626.118 9  -4002181.305 7
  20243403.105    20243401.958    21636359.620 9 -60388734.911 8
  21377607.070    21377610.241    39577094.316 9 -46447572.324 8
 86  6 19  0 53 41.0800000  0  3G 6G 9G11
  20958710.400    20958712.941     6175291.949 8  -3993870.269 8
  20242029.140    20242030.890    21629143.770 9 -60394357.648 8
  21379921.002    21379923.416    39589254.798 9 -46438096.630 9
 86  6 19  0 53 47.0800000  0  3G 6G 9G11
  20960744.407    20960744.617     6185978.919 9  -3985542.755 8
  20240660.507    20240660.509    21621948.680 9 -60399964.218 7
  21382236.924    21382239.761    39601428.060 8 -46428610.977 9
 86  6 19  0 53 53.0800000  0  3G 6G 9G11
  20962782.144    20962784.183     6196686.956 9  -3977198.833 8
  20239294.429    20239295.032    21614774.250 9 -60405554.698 8
  21384556.286    21384559.273    39613614.111 9 -46419115.352 9
 86  6 19  0 53 59.0800000  0  3G 6G 9G11
  20964824.116    20964824.220     6207416.122 9  -3968838.433 8
  20237931.722    20237934.220    21607620.548 8 -60411129.009 8
  21386877.144    21386879.673    39625812.945 9 -46409609.769 9
 86  6 19  0 54  5.0800000  0  3G 6G 9G11
  20966869.046    20966870.276     6218166.363 9  -3960461.635 8
  20236573.871    20236576.988    21600487.598 9 -60416687.153 8
  21389201.344    21389203.865    39638024.492 8 -46400094.291 8
 86  6 19  0 54 11.0800000  0  3G 6G 9G11
  20968919.086    20968919.670     6228937.699 9  -3952068.380 7
  20235221.836    20235223.591    21593375.302 9 -60422229.206 7
  21391528.949    21391529.461    39650248.703 9 -46390568.928 8
 86  6 19  0 54 17.0800000  0  3G 6G 9G11
  20970972.236    20970974.107     6239730.145 9  -3943658.688 8
  20233871.085    20233874.523    21586283.840 8 -60427755.032 8
  21393856.790    21393858.145    39662485.607 9 -46381033.684 8
 86  6 19  0 54 23.0800000  0  3G 6G 9G11
  20973029.029    20973031.035     6250543.701 8  -3935232.536 8
  20232526.417    20232527.713    21579213.129 9 -60433264.674 9
  21396187.256    21396189.891    39674735.181 9 -46371488.569 8
 86  6 19  0 54 29.0800000  0  3G 6G 9G11
  20975091.474    20975093.780     6261378.354 9  -3926789.963 8
  20231185.633    20231187.467    21572163.261 9 -60438758.076 8
  21398520.786    21398524.095    39686997.440 9 -46361933.562 8
 86  6 19  0 54 35.0800000  0  3G 6G 9G11
  20977156.872    20977159.517     6272234.108 8  -3918330.941 8
  20229848.782    20229850.070    21565134.236 9 -60444235.245 8
  21400856.768    21400859.060    39699272.289 9 -46352368.743 8
 86  6 19  0 54 41.0800000  0  3G 6G 9G11
  20979226.305    20979228.604     6283110.855 9  -3909855.554 8
  20228514.639    20228516.196    21558125.936 9 -60449696.252 8
  21403194.819    21403196.776    39711559.629 9 -46342794.199 9
 86  6 19  0 54 47.0800000  0  3G 6G 9G11
  20981300.225    20981302.708     6294008.699 9  -3901363.742 8
  20227185.027    20227186.451    21551138.586 9 -60455140.941 8
  21405536.081    21405537.252    39723859.538 9 -46333209.852 8
 86  6 19  0 54 53.0800000  0  3G 6G 9G11
  20983378.845    20983380.198     6304927.545 9  -3892855.546 8
  20225859.326    20225861.188    21544172.070 9 -60460569.391 8
  21407879.312    21407880.188    39736171.987 9 -46323615.749 9
 86  6 19  0 54 59.0800000  0  3G 6G 9G11
  20985460.219    20985461.079     6315867.539 9  -3884330.899 8
  20224538.546    20224540.088    21537226.557 8 -60465981.496 9
  21410223.853    21410225.808    39748497.010 9 -46314011.828 7
 86  6 19  0 55  5.0800000  0  3G 6G 9G11
  20987547.119    20987547.462     6326828.565 9  -3875789.841 7
  20223219.822    20223221.772    21530301.902 8 -60471377.326 8
  21412572.412    21412574.190    39760834.460 9 -46304398.244 9
 86  6 19  0 55 11.0800000  0  3G 6G 9G11
  20989636.672    20989638.033     6337810.618 9  -3867232.408 8
  20221906.284    20221908.167    21523398.266 9 -60476756.784 8
  21414922.840    21414924.196    39773184.395 9 -46294774.916 8
 86  6 19  0 55 17.0800000  0  3G 6G 9G11
  20991730.447    20991730.684     6348813.674 9  -3858658.596 8
  20220596.257    20220597.999    21516515.498 9 -60482119.978 7
  21417274.529    21417276.700    39785546.753 9 -46285141.915 7
 86  6 19  0 55 23.0800000  0  3G 6G 9G11
  20993829.128    20993829.002     6359837.840 9  -3850068.347 8
  20219292.142    20219292.558    21509653.730 9 -60487466.805 8
  21419629.235    21419631.220    39797921.599 9 -46275499.184 9
 86  6 19  0 55 29.0800000  0  3G 6G 9G11
  20995930.217    20995930.425     6370883.064 9  -3841461.671 8
  20217990.414    20217989.618    21502812.991 9 -60492797.250 8
  21421986.982    21421988.179    39810308.889 9 -46265846.744 9
 86  6 19  0 55 35.0800000  0  3G 6G 9G11
  20998036.005    20998038.042     6381949.378 9  -3832838.575 8
  20216692.517    20216693.361    21495993.242 9 -60498111.328 7
  21424346.510    21424348.760    39822708.583 9 -46256184.641 8
 86  6 19  0 55 41.0800000  0  3G 6G 9G11
  21000146.432    21000145.707     6393036.669 9  -3824199.130 7
  20215399.288    20215399.961    21489194.511 9 -60503409.045 8
  21426708.757    21426711.481    39835120.697 9 -46246512.871 8
 86  6 19  0 55 47.0800000  0  3G 6G 9G11
  21002260.634    21002260.927     6404144.963 9  -3815543.324 8
  20214110.377    20214109.576    21482416.869 9 -60508690.321 8
  21429072.565    21429074.564    39847545.126 9 -46236831.490 8
 86  6 19  0 55 53.0800000  0  3G 6G 9G11
  21004377.517    21004377.663     6415274.238 9  -3806871.176 8
  20212824.149    20212823.789    21475660.204 9 -60513955.252 8
  21431439.442    21431441.542    39859981.840 9 -46227140.549 8
 86  6 19  0 55 59.0800000  0  3G 6G 9G11
  21006499.564    21006499.595     6426424.521 9  -3798182.640 7
  20211541.742    20211542.255    21468924.721 9 -60519203.670 8
  21433807.499    21433811.402    39872430.845 9 -46217440.032 8
 86  6 19  0 56  5.0800000  0  3G 6G 9G11
  21008624.868    21008626.296     6437595.856 9  -3789477.710 8
  20210263.218    20210264.836    21462210.260 9 -60524435.719 9
  21436179.112    21436183.473    39884892.157 9 -46207729.918 8
 86  6 19  0 56 11.0800000  0  3G 6G 9G11
  21010754.851    21010756.348     6448788.173 9  -3780756.424 8
  20208990.134    20208990.552    21455516.886 9 -60529651.329 8
  21438552.999    21438556.223    39897365.739 9 -46198010.249 7
 86  6 19  0 56 17.0800000  0  3G 6G 9G11
  21012889.016    21012889.659     6460001.452 6  -3772018.821 7
  20207720.949    20207721.123    21448844.719 6 -60534850.413 5
  21440929.171    21440930.759    39909851.575 7 -46188281.026 5
 86  6 19  0 56 23.0800000  0  3G 6G 9G11
  21015026.589    21015026.888     6471235.725 9  -3763264.835 8
  20206454.483    20206455.086    21442193.685 8 -60540033.047 8
  21443307.301    21443310.197    39922349.664 9 -46178542.250 8
 86  6 19  0 56 29.0800000  0  4G 6G13G 9G11
  21017167.616    21017169.947     6482490.994 9  -3754494.516 7
                  21234026.564    -3779959.036 9
  20205192.416    20205193.790    21435563.847 9 -60545199.140 8
  21445688.094    21445690.196    39934859.991 9 -46168793.934 8
 86  6 19  0 56 35.0800000  0  4G 6G13G 9G11
  21019313.452    21019315.296     6493767.222 9  -3745707.847 8
                  21231820.131    -3791515.826 9
  20203934.867    20203935.273    21428955.249 9 -60550348.698 8
  21448070.638    21448074.273    39947382.581 9 -46159036.083 7
 86  6 19  0 56 41.0800000  0  4G 6G13G 9G11
  21021462.436    21021464.038     6505064.428 9  -3736904.843 8
                  21229653.557    -3803053.557 9
  20202681.250    20202682.181    21422367.780 9 -60555481.787 9
  21450456.109    21450459.186    39959917.311 9 -46149268.771 7
 86  6 19  0 56 47.0800000  0  4G 6G13G 9G11
  21023616.257    21023617.141     6516382.610 9  -3728085.475 7
  21227462.717    21227465.964    -3814571.724 9   5039425.289 1
  20201430.529    20201432.764    21415801.656 9 -60560598.259 8
  21452843.355    21452845.608    39972464.148 9 -46139492.005 8
 86  6 19  0 56 53.0800000  0  4G 6G13G 9G11
  21025774.512    21025775.925     6527721.769 9  -3719249.787 8
  21225274.001    21225276.161    -3826070.681 9   5030465.126 8
  20200184.399    20200188.042    21409256.732 9 -60565698.198 8
  21455233.176    21455235.901    39985023.132 9 -46129705.785 8
 86  6 19  0 56 59.0800000  0  4G 6G13G 9G11
  21027935.974    21027937.329     6539081.880 9  -3710397.757 8
  21223089.209    21223091.262    -3837550.348 9   5021520.423 8
  20198942.659    20198946.768    21402733.085 9 -60570781.571 8
  21457625.889    21457628.866    39997594.242 9 -46119910.110 7
 86  6 19  0 57  5.0800000  0  4G 6G13G 9G11
  21030102.757    21030102.997     6550462.877 9  -3701529.465 8
  21220908.158    21220910.535    -3849010.670 9   5012590.306 9
  20197705.240    20197708.743    21396230.734 8 -60575848.330 8
  21460020.432    21460023.543    40010177.394 9 -46110105.050 8
 86  6 19  0 57 11.0800000  0  4G 6G13G 9G11
  21032272.088    21032273.446     6561864.762 9  -3692644.886 8
  21218731.367    21218733.143    -3860451.653 9   5003675.263 8
  20196473.251    20196473.979    21389749.518 9 -60580898.647 8
  21462418.009    21462419.539    40022772.556 9 -46100290.651 7
 86  6 19  0 57 17.0800000  0  4G 6G13G 9G11
  21034446.055    21034446.539     6573287.560 9  -3683744.005 8
  21216558.291    21216560.251    -3871873.355 9   4994775.240 8
  20195241.909    20195245.167    21383289.569 9 -60585932.359 7
  21464817.295    21464818.339    40035379.664 9 -46090466.919 8
 86  6 19  0 57 23.0800000  0  4G 6G13G 9G11
  21036623.284    21036624.955     6584731.306 9  -3674826.809 8
  21214387.829    21214390.577    -3883275.758 9   4985890.250 8
  20194016.813    20194021.011    21376851.008 9 -60590949.432 7
  21467218.500    21467219.623    40047998.845 9 -46080633.786 8
 86  6 19  0 57 29.0800000  0  4G 6G13G 9G11
  21038806.039    21038806.421     6596195.995 9  -3665893.292 8
  21212222.241    21212223.475    -3894658.804 9   4977020.352 8
  20192797.293    20192798.301    21370433.889 8 -60595949.781 8
  21469622.743    21469623.246    40060630.027 9 -46070791.300 8
 86  6 19  0 57 35.0800000  0  4G 6G13G 9G11
  21040991.595    21040991.635     6607681.563 9  -3656943.502 8
  21210060.305    21210059.416    -3906022.572 9   4968165.480 7
  20191581.097    20191581.934    21364038.042 9 -60600933.560 7
  21472029.436    21472030.381    40073273.186 9 -46060939.489 8
 86  6 19  0 57 41.0800000  0  4G 6G13G 9G11
  21043181.875    21043181.130     6619188.078 9  -3647977.397 7
  21207902.403    21207902.327    -3917366.993 9   4959325.676 8
  20190367.294    20190368.527    21357663.652 8 -60605900.617 8
  21474436.901    21474438.073    40085928.328 9 -46051078.355 8
 86  6 19  0 57 47.0800000  0  4G 6G13G 9G11
  21045375.103    21045375.402     6630715.460 9  -3638995.025 8
  21205746.948    21205747.334    -3928692.018 9   4950500.987 8
  20189158.480    20189159.525    21351310.604 9 -60610851.042 7
  21476847.650    21476847.984    40098595.398 9 -46041207.889 8
 86  6 19  0 57 53.0800000  0  4G 6G13G 9G11
  21047573.654    21047573.194     6642263.743 9  -3629996.370 7
  21203595.964    21203596.239    -3939997.696 9   4941691.374 8
  20187953.970    20187954.590    21344979.120 8 -60615784.671 8
  21479259.708    21479260.557    40111274.387 9 -46031328.175 8
 86  6 19  0 57 59.0800000  0  4G 6G13G 9G11
  21049774.665    21049774.233     6653832.888 9  -3620981.450 8
  21201448.110    21201447.295    -3951284.067 9   4932896.804 7
  20186754.515    20186753.757    21338669.052 9 -60620701.609 8
  21481673.847    21481675.772    40123965.253 9 -46021439.190 8
 86  6 19  0 58  5.0800000  0  4G 6G13G 9G11
  21051980.570    21051980.080     6665422.960 9  -3611950.227 7
  21199303.785    21199303.364    -3962551.125 9   4924117.290 8
  20185557.257    20185557.288    21332380.357 9 -60625601.872 6
  21484091.658    21484093.380    40136668.028 9 -46011540.924 9
 86  6 19  0 58 11.0800000  0  4G 6G13G 9G11
  21054189.766    21054188.405     6677033.941 9  -3602902.702 8
  21197164.132    21197162.845    -3973798.764 9   4915352.900 8
  20184364.168    20184364.577    21326113.131 9 -60630485.436 7
  21486511.056    21486513.444    40149382.616 9 -46001633.459 7
 86  6 19  0 58 17.0800000  0  4G 6G13G 9G11
  21056403.227    21056402.853     6688665.838 9  -3593838.902 8
  21195027.173    21195026.369    -3985027.064 9   4906603.574 8
  20183175.635    20183175.798    21319867.412 9 -60635352.231 7
  21488933.322    21488934.781    40162109.083 9 -45991716.742 9
 86  6 19  0 58 23.0800000  0  4G 6G13G 9G11
  21058620.207    21058620.421     6700318.521 9  -3584758.894 8
  21192893.571    21192894.140    -3996235.977 9   4897869.362 8
  20181992.710    20181990.797    21313643.235 9 -60640202.239 7
  21491356.848    21491358.672    40174847.371 9 -45981790.807 7
 86  6 19  0 58 29.0800000  0  4G 6G13G 9G11
  21060840.966    21060842.408     6711992.068 9  -3575662.629 7
  21190763.623    21190763.784    -4007425.522 9   4889150.244 8
  20180810.967    20180812.494    21307440.587 9 -60645035.458 7
  21493783.317    21493785.025    40187597.422 9 -45971855.695 7
 86  6 19  0 58 35.0800000  0  4G 6G13G 9G11
  21063067.164    21063068.733     6723686.523 9  -3566550.072 8
  21188637.980    21188638.106    -4018595.695 9   4880446.214 7
  20179635.381    20179635.249    21301259.516 9 -60649851.881 6
  21496211.429    21496213.296    40200359.263 9 -45961911.410 8
 86  6 19  0 58 41.0800000  0  4G 6G13G 9G11
  21065295.160    21065296.488     6735401.886 9  -3557421.227 9
  21186515.476    21186516.800    -4029746.438 9   4871757.331 7
  20178463.359    20178464.151    21295100.013 9 -60654651.496 8
  21498641.567    21498644.563    40213132.923 9 -45951957.914 8
 86  6 19  0 58 47.0800000  0  4G 6G13G 9G11
  21067528.282    21067530.168     6747138.117 9  -3548276.128 8
  21184397.382    21184398.753    -4040877.819 9   4863083.529 8
  20177295.033    20177294.879    21288962.147 9 -60659434.238 7
  21501075.167    21501078.322    40225918.387 9 -45941995.209 8
 86  6 19  0 58 53.0800000  0  4G 6G13G 9G11
  21069765.753    21069767.454     6758895.166 9  -3539114.798 8
  21182282.810    21182284.662    -4051989.848 9   4854424.815 8
  20176131.533    20176131.391    21282845.880 9 -60664200.155 6
  21503510.162    21503512.724    40238715.544 9 -45932023.404 8
 86  6 19  0 58 59.0800000  0  4G 6G13G 9G11
  21072007.402    21072009.618     6770673.050 9  -3529937.242 8
  21180171.632    21180174.508    -4063082.508 9   4845781.175 7
  20174970.579    20174971.306    21276751.150 9 -60668949.281 7
  21505948.620    21505949.879    40251524.389 9 -45922042.492 7
 86  6 19  0 59  5.0800000  0  4G 6G13G 9G11
  21074252.687    21074254.888     6782471.764 9  -3520743.447 8
  21178064.511    21178067.641    -4074155.753 9   4837152.679 8
  20173814.528    20173815.354    21270678.090 9 -60673681.542 7
  21508388.022    21508390.191    40264344.916 8 -45912052.478 9
 86  6 19  0 59 11.0800000  0  4G 6G13G 9G11
  21076502.036    21076504.709     6794291.232 9  -3511533.480 8
  21175961.425    21175964.094    -4085209.628 9   4828539.281 7
  20172663.817    20172663.839    21264626.748 8 -60678396.880 7
  21510829.865    21510831.568    40277177.092 9 -45902053.386 8
 86  6 19  0 59 17.0800000  0  4G 6G13G 9G11
  21078754.847    21078757.434     6806131.580 9  -3502307.237 9
  21173861.287    21173864.949    -4096244.110 9   4819940.981 7
  20171516.148    20171516.704    21258597.044 8 -60683095.345 7
  21513274.068    21513275.413    40290020.954 9 -45892045.173 8
 86  6 19  0 59 23.0800000  0  4G 6G13G 9G11
  21081012.436    21081015.095     6817992.715 9  -3493064.812 8
  21171764.184    21171768.241    -4107259.186 9   4811357.814 9
  20170372.009    20170373.884    21252588.951 9 -60687776.979 6
  21515719.732    21515721.812    40302876.448 9 -45882027.927 9
 86  6 19  0 59 29.0800000  0  4G 6G13G 9G11
  21083273.175    21083275.432     6829874.680 9  -3483806.137 8
  21169672.064    21169676.518    -4118254.801 9   4802789.816 7
  20169232.830    20169235.096    21246602.676 8 -60692441.620 7
  21518167.941    21518171.389    40315743.474 9 -45872001.675 8
 86  6 19  0 59 35.0800000  0  4G 6G13G 9G11
  21085538.520    21085541.037     6841777.483 9  -3474531.232 8
  21167583.512    21167586.813    -4129230.979 9   4794236.957 8
  20168097.897    20168099.368    21240638.096 9 -60697089.358 7
  21520618.748    21520621.030    40328622.077 9 -45861966.403 8
 86  6 19  0 59 41.0800000  0  4G 6G13G 9G11
  21087806.815    21087809.973     6853701.084 9  -3465240.120 9
  21165498.806    21165503.127    -4140187.822 9   4785699.162 8
  20166965.787    20166967.583    21234695.223 8 -60701720.185 7
  21523070.836    21523074.785    40341512.269 9 -45851922.094 8
 86  6 19  0 59 47.0800000  0  4G 6G13G 9G11
  21090080.344    21090082.645     6865645.389 9  -3455932.877 8
  21163417.379    21163421.877    -4151125.325 9   4777176.439 8
  20165838.953    20165842.938    21228774.271 8 -60706333.909 7
  21525526.187    21525528.911    40354414.000 9 -45841868.807 8
 86  6 19  0 59 53.0800000  0  4G 6G13G 9G11
  21092356.765    21092358.178     6877610.498 9  -3446609.401 8
  21161340.037    21161342.812    -4162043.387 9   4768668.853 8
  20164715.723    20164718.974    21222875.033 8 -60710930.735 7
  21527983.182    21527986.744    40367327.230 9 -45831806.556 9
 86  6 19  0 59 59.0800000  0  4G 6G13G 9G11
  21094637.422    21094638.319     6889596.395 9  -3437269.747 8
  21159265.585    21159269.635    -4172941.998 9   4760176.439 7
  20163597.035    20163601.905    21216997.624 8 -60715510.525 7
  21530443.226    21530446.087    40380251.942 9 -45821735.354 9
 86  6 19  1  0  5.0800000  0  4G 6G13G 9G11
  21096922.600    21096922.254     6901603.033 9  -3427913.920 8
  21157195.974    21157198.660    -4183821.164 9   4751699.165 8
  20162483.194    20162486.069    21211141.998 9 -60720073.370 7
  21532904.857    21532908.235    40393188.135 9 -45811655.196 8
 86  6 19  1  0 11.0800000  0  4G 6G13G 9G11
  21099211.870    21099210.408     6913630.449 9  -3418541.905 9
  21155129.086    21155132.870    -4194680.916 9   4743237.027 8
  20161373.541    20161376.883    21205308.267 8 -60724619.122 8
  21535369.123    21535371.619    40406135.800 9 -45801566.122 8
 86  6 19  1  0 17.0800000  0  4G 6G13G 9G11
  21101504.233    21101504.659     6925678.576 9  -3409153.759 8
  21153066.845    21153068.795    -4205521.263 9   4734789.993 7
  20160268.364    20160271.802    21199496.351 9 -60729147.900 6
  21537834.596    21537837.600    40419094.855 9 -45791468.153 8
 86  6 19  1  0 23.0800000  0  4G 6G13G 9G11
  21103800.972    21103801.198     6937747.502 9  -3399749.395 8
  21151007.066    21151008.901    -4216342.233 9   4726358.071 8
  20159166.401    20159168.779    21193706.293 9 -60733659.636 6
  21540303.168    21540306.223    40432065.305 9 -45781361.307 9
 86  6 19  1  0 29.0800000  0  4G 6G13G 9G11
  21106101.976    21106103.146     6949837.133 9  -3390328.901 8
  21148952.328    21148954.155    -4227143.813 9   4717941.261 8
  20158069.625    20158072.323    21187938.035 9 -60738154.385 7
  21542773.635    21542776.562    40445047.067 9 -45771245.651 8
 86  6 19  1  0 35.0800000  0  4G 6G13G 9G11
  21108406.300    21108407.287     6961947.559 9  -3380892.206 8
  21146900.905    21146902.785    -4237925.941 9   4709539.614 8
  20156977.776    20156977.868    21182191.727 9 -60742632.026 8
  21545246.887    21545248.825    40458040.248 9 -45761121.102 9
 86  6 19  1  0 41.0800000  0  4G 6G13G 9G11
  21110715.204    21110716.002     6974078.737 9  -3371439.337 8
  21144853.059    21144854.793    -4248688.559 9   4701153.163 9
  20155888.593    20155889.425    21176467.428 8 -60747092.512 7
  21547720.817    21547724.194    40471044.835 9 -45750987.661 9
 86  6 19  1  0 47.0800000  0  4G 6G13G 9G11
  21113027.198    21113028.539     6986230.597 9  -3361970.361 6
  21142808.269    21142809.936    -4259431.676 9   4692781.907 9
  20154803.842    20154803.654    21170765.059 9 -60751535.915 7
  21550197.031    21550201.095    40484060.787 9 -45740845.353 8
 86  6 19  1  0 53.0800000  0  4G 6G13G 9G11
  21115343.111    21115342.923     6998403.186 9  -3352485.217 7
  21140767.756    21140769.674    -4270155.337 9   4684425.802 8
  20153722.406    20153722.823    21165084.613 8 -60755962.234 6
  21552676.477    21552680.406    40497088.051 9 -45730694.255 8
 86  6 19  1  0 59.0800000  0  4G 6G13G 9G11
  21117663.175    21117663.744     7010596.457 9  -3342983.978 9
  21138731.001    21138733.158    -4280859.518 9   4676084.887 7
  20152646.689    20152645.950    21159426.149 8 -60760371.415 7
  21555157.842    21555160.574    40510126.549 9 -45720534.374 8
 86  6 19  1  1  5.0800000  0  4G 6G13G 9G11
  21119988.678    21119988.389     7022810.436 9  -3333466.589 8
  21136697.618    21136699.094    -4291544.273 9   4667759.114 7
  20151573.136    20151573.465    21153789.682 9 -60764763.471 7
  21557641.181    21557644.006    40523176.344 9 -45710365.711 7
 86  6 19  1  1 11.0800000  0  4G 6G13G 9G11
  21122316.354    21122315.735     7035045.120 9  -3323933.081 8
  21134668.077    21134669.548    -4302209.539 9   4659448.517 8
  20150504.668    20150504.858    21148175.213 9 -60769138.381 7
  21560126.259    21560130.744    40536237.363 9 -45700188.297 8
 86  6 19  1  1 17.0800000  0  4G 6G13G 9G11
  21124647.924    21124650.438     7047300.512 9  -3314383.423 8
  21132641.935    21132644.298    -4312855.345 9   4651153.090 8
  20149441.270    20149439.926    21142582.746 9 -60773496.156 7
  21562614.448    21562616.738    40549309.637 9 -45690002.109 8
 86  6 19  1  1 23.0800000  0  4G 6G13G 9G11
  21126983.927    21126985.255     7059576.534 9  -3304817.707 8
  21130619.846    21130622.654    -4323481.696 9   4642872.816 8
  20148381.009    20148381.228    21137012.310 9 -60777836.748 7
  21565104.521    21565106.487    40562393.096 9 -45679807.208 8
 86  6 19  1  1 29.0800000  0  4G 6G13G 9G11
  21129324.024    21129325.497     7071873.242 9  -3295235.870 7
  21128601.596    21128604.838    -4334088.641 9   4634607.673 8
  20147325.223    20147324.675    21131463.933 8 -60782160.147 7
  21567596.144    21567598.770    40575487.772 9 -45669603.572 8
 86  6 19  1  1 35.0800000  0  4G 6G13G 9G11
  21131667.412    21131669.644     7084190.561 9  -3285637.969 8
  21126586.193    21126589.999    -4344676.201 9   4626357.617 9
  20146273.610    20146272.279    21125937.720 8 -60786466.282 8
  21570089.291    21570092.897    40588593.624 9 -45659391.216 9
 86  6 19  1  1 41.0800000  0  4G 6G13G 9G11
  21134016.840    21134017.579     7096528.579 9  -3276023.928 8
  21124575.025    21124578.094    -4355244.152 9   4618122.860 9
  20145225.300    20145224.880    21120433.463 8 -60790755.310 7
  21572585.723    21572589.271    40601710.675 9 -45649170.141 9
 86  6 19  1  1 47.0800000  0  4G 6G13G 9G11
  21136367.153    21136369.109     7108887.243 9  -3266393.808 8
  21122568.061    21122570.706    -4365792.683 9   4609903.234 8
  20144181.563    20144182.239    21114951.385 9 -60795027.053 7
  21575083.329    21575086.999    40614838.789 9 -45638940.445 7
 86  6 19  1  1 53.0800000  0  4G 6G13G 9G11
  21138724.192    21138725.032     7121266.518 9  -3256747.626 8
  21120563.698    21120566.872    -4376321.734 9   4601698.778 7
  20143142.604    20143142.158    21109491.397 9 -60799281.594 7
  21577583.582    21577587.129    40627977.984 9 -45628702.106 9
 86  6 19  1  1 59.0800000  0  4G 6G13G 9G11
  21141083.692    21141084.075     7133666.379 9  -3247085.396 8
  21118563.498    21118567.595    -4386831.371 9   4593509.468 7
  20142107.878    20142107.716    21104053.478 9 -60803518.920 7
  21580087.246    21580089.980    40641128.241 9 -45618455.175 9
 86  6 19  1  2  5.0800000  0  4G 6G13G 9G11
  21143447.657    21143447.182     7146086.929 9  -3237407.060 8
  21116567.031    21116570.394    -4397321.474 9   4585335.360 8
  20141076.201    20141077.243    21098637.803 8 -60807738.935 7
  21582591.269    21582594.189    40654289.606 9 -45608199.550 8
 86  6 19  1  2 11.0800000  0  4G 6G13G 9G11
  21145814.654    21145815.181     7158528.106 9  -3227712.631 8
  21114574.517    21114578.933    -4407792.152 9   4577176.385 8
  20140049.798    20140050.437    21093244.322 9 -60811941.637 8
  21585098.549    21585101.010    40667461.956 9 -45597935.395 8
 86  6 19  1  2 17.0800000  0  4G 6G13G 9G11
  21148185.659    21148186.658     7170989.848 9  -3218002.192 8
  21112585.571    21112589.535    -4418243.455 9   4569032.525 7
  20139027.252    20139027.480    21087872.868 9 -60816127.189 7
  21587607.014    21587609.244    40680645.291 9 -45587662.668 8
 86  6 19  1  2 23.0800000  0  4G 6G13G 9G11
  21150560.841    21150561.169     7183472.165 9  -3208275.721 9
  21110600.487    21110603.880    -4428675.206 9   4560903.898 8
  20138009.476    20138010.242    21082523.685 8 -60820295.384 7
  21590116.874    21590120.408    40693839.673 9 -45577381.331 8
 86  6 19  1  2 29.0800000  0  4G 6G13G 9G11
  21152940.433    21152941.460     7195975.126 9  -3198533.153 9
  21108618.920    21108622.393    -4439087.450 9   4552790.465 7
  20136995.889    20136997.375    21077196.904 8 -60824446.123 7
  21592630.342    21592632.294    40707045.042 9 -45567091.435 8
 86  6 19  1  2 35.0800000  0  4G 6G13G 9G11
  21155323.629    21155324.126     7208498.690 9  -3188774.545 8
  21106642.512    21106644.166    -4449480.157 9   4544692.272 8
  20135985.935    20135986.660    21071892.257 7 -60828579.618 7
  21595145.110    21595147.335    40720261.373 9 -45556793.002 8
 86  6 19  1  2 41.0800000  0  4G 6G13G 9G11
  21157710.202    21157711.101     7221042.813 9  -3178999.916 7
  21104667.150    21104669.416    -4459853.334 9   4536609.276 7
  20134980.418    20134981.348    21066609.813 8 -60832695.798 7
  21597661.998    21597665.819    40733488.571 9 -45546486.092 8
 86  6 19  1  2 47.0800000  0  4G 6G13G 9G11
  21160100.868    21160101.824     7233607.499 9  -3169209.243 8
  21102696.940    21102699.355    -4470206.988 9   4528541.488 8
  20133979.160    20133981.023    21061349.701 8 -60836794.598 8
  21600180.846    21600184.322    40746726.714 9 -45536170.665 8
 86  6 19  1  2 53.0800000  0  4G 6G13G 9G11
  21162495.111    21162496.610     7246192.790 9  -3159402.530 8
  21100730.907    21100733.167    -4480541.240 9   4520488.835 7
  20132982.592    20132984.477    21056111.781 8 -60840876.074 7
  21602701.924    21602705.888    40759975.788 9 -45525846.705 7
 86  6 19  1  2 59.0800000  0  4G 6G13G 9G11
  21164894.963    21164896.248     7258798.610 9  -3149579.828 8
  21098768.082    21098769.584    -4490855.982 9   4512451.385 8
  20131990.843    20131990.872    21050896.326 8 -60844940.063 7
  21605225.436    21605229.092    40773235.788 9 -45515514.245 8
 86  6 19  1  3  5.0800000  0  4G 6G13G 9G11
  21167296.875    21167297.803     7271425.034 9  -3139741.047 7
  21096809.383    21096810.578    -4501151.228 9   4504429.113 8
  20131002.746    20131003.473    21045703.131 8 -60848986.714 7
  21607750.200    21607755.130    40786506.699 9 -45505173.285 8
 86  6 19  1  3 11.0800000  0  4G 6G13G 9G11
  21169703.567    21169705.369     7284072.012 8  -3129886.278 8
  21094853.915    21094855.211    -4511427.010 9   4496422.024 8
  20130018.321    20130021.019    21040532.259 8 -60853015.956 8
  21610278.400    21610281.841    40799788.415 9 -45494823.895 8
 86  6 19  1  3 17.0800000  0  4G 6G13G 9G11
  21172113.924    21172115.465     7296739.556 9  -3120015.467 7
  21092902.102    21092903.962    -4521683.343 9   4488430.080 8
  20129038.668    20129040.691    21035383.773 9 -60857027.785 7
  21612807.570    21612811.556    40813080.950 9 -45484466.079 9
 86  6 19  1  3 23.0800000  0  4G 6G13G 9G11
  21174527.797    21174529.167     7309427.573 9  -3110128.706 8
  21090953.888    21090956.055    -4531920.110 9   4480453.382 9
  20128063.718    20128066.149    21030257.496 9 -60861022.273 7
  21615339.797    21615342.264    40826384.237 9 -45474099.884 9
 86  6 19  1  3 29.0800000  0  4G 6G13G 9G11
  21176946.596    21176947.666     7322136.042 9  -3100226.014 7
  21089010.070    21089011.890    -4542137.382 9   4472491.868 8
  20127093.820    20127094.834    21025153.724 8 -60864999.239 7
  21617873.775    21617875.800    40839698.269 9 -45463725.310 8
 86  6 19  1  3 35.0800000  0  4G 6G13G 9G11
  21179368.484    21179371.099     7334865.036 9  -3090307.320 8
  21087070.016    21087071.688    -4552335.176 9   4464545.549 8
  20126126.698    20126127.564    21020072.432 9 -60868958.686 6
  21620408.650    21620412.241    40853023.039 9 -45453342.386 8
 86  6 19  1  3 41.0800000  0  4G 6G13G 9G11
  21181795.666    21181797.595     7347614.533 9  -3080372.647 8
  21085132.725    21085134.607    -4562513.455 9   4456614.422 8
  20125163.972    20125164.596    21015013.487 9 -60872900.718 8
  21622946.113    21622949.740    40866358.550 9 -45442951.081 8
 86  6 19  1  3 47.0800000  0  4G 6G13G 9G11
  21184225.110    21184227.324     7360384.585 9  -3070421.968 7
  21083199.901    21083202.360    -4572672.165 9   4448698.543 8
  20124205.345    20124205.938    21009976.882 9 -60876825.336 7
  21625486.624    21625489.177    40879704.775 9 -45432551.422 8
 86  6 19  1  3 53.0800000  0  4G 6G13G 9G11
  21186660.306    21186661.906     7373175.101 9  -3060455.337 8
  21081271.051    21081272.565    -4582811.345 9   4440797.898 8
  20123252.264    20123252.797    21004962.817 9 -60880732.417 7
  21628028.000    21628030.562    40893061.731 9 -45422143.410 8
 86  6 19  1  3 59.0800000  0  4G 6G13G 9G11
  21189097.333    21189099.978     7385986.023 9  -3050472.795 8
  21079345.082    21079347.642    -4592931.008 9   4432912.449 7
  20122301.977    20122302.521    20999971.164 9 -60884622.015 7
  21630572.555    21630574.545    40906429.295 9 -45411727.128 8
 86  6 19  1  4  5.0800000  0  4G 6G13G 9G11
  21191539.396    21191541.441     7398817.438 9  -3040474.291 8
  21077423.159    21077424.601    -4603031.192 9   4425042.195 9
  20121356.319    20121357.584    20995002.087 9 -60888494.015 7
  21633117.810    21633120.092    40919807.526 9 -45401302.538 8
 86  6 19  1  4 11.0800000  0  4G 6G13G 9G11
  21193985.297    21193986.981     7411669.332 9  -3030459.828 8
  21075505.446    21075507.179    -4613111.857 9   4417187.125 8
  20120415.436    20120416.163    20990055.446 9 -60892348.540 8
  21635665.361    21635666.992    40933196.417 9 -45390869.635 8
 86  6 19  1  4 17.0800000  0  4G 6G13G 9G11
  21196435.001    21196437.029     7424541.672 9  -3020429.434 7
  21073590.172    21073593.642    -4623172.977 9   4409347.302 8
  20119477.730    20119477.798    20985131.371 8 -60896185.482 7
  21638216.175    21638218.916    40946596.000 9 -45380428.398 8
 86  6 19  1  4 23.0800000  0  4G 6G13G 9G11
  21198888.856    21198890.527     7437434.456 9  -3010383.104 8
  21071679.797    21071681.823    -4633214.545 9   4401522.701 8
  20118544.223    20118546.142    20980229.706 8 -60900004.959 7
  21640767.990    21640769.506    40960006.098 9 -45369978.978 8
 86  6 19  1  4 29.0800000  0  4G 6G13G 9G11
  21201346.289    21201346.029     7450347.682 9  -3000320.856 8
  21069772.204    21069774.961    -4643236.566 9   4393713.341 8
  20117615.997    20117617.834    20975350.671 9 -60903806.806 7
  21643321.223    21643323.770    40973426.740 9 -45359521.335 8
 86  6 19  1  4 35.0800000  0  4G 6G13G 9G11
  21203807.642    21203808.425     7463281.329 9  -2990242.691 8
  21067869.500    21067871.486    -4653239.008 9   4385919.230 8
  20116690.177    20116693.435    20970494.225 9 -60907591.061 7
  21645877.224    21645879.499    40986857.958 9 -45349055.461 8
 86  6 19  1  4 41.0800000  0  4G 6G13G 9G11
  21206272.428    21206272.068     7476235.396 9  -2980148.602 8
  21065969.391    21065972.652    -4663221.967 9   4378140.314 8
  20115771.403    20115774.896    20965660.297 9 -60911357.740 7
  21648434.956    21648437.039    41000299.728 9 -45338581.346 8
 86  6 19  1  4 47.0800000  0  4G 6G13G 9G11
  21208742.024    21208740.919     7489209.926 9  -2970038.588 7
  21064073.905    21064077.085    -4673185.404 9   4370376.591 9
  20114856.224    20114857.903    20960849.045 8 -60915106.766 7
  21650995.344    21650996.824    41013752.008 9 -45328099.069 7
 86  6 19  1  4 53.0800000  0  4G 6G13G 9G11
  21211214.394    21211215.137     7502204.805 9  -2959912.708 7
  21062182.338    21062184.605    -4683129.358 9   4362628.066 8
  20113945.096    20113946.236    20956060.338 8 -60918838.243 7
  21653556.324    21653559.328    41027214.788 9 -45317608.586 7
 86  6 19  1  4 59.0800000  0  4G 6G13G 9G11
  21213691.487    21213690.613     7515220.119 9  -2949770.915 8
  21060292.151    21060295.951    -4693053.770 9   4354894.757 8
  20113038.968    20113039.918    20951294.308 8 -60922552.015 7
  21656120.302    21656122.485    41040688.040 9 -45307109.951 8
 86  6 19  1  5  5.0800000  0  4G 6G13G 9G11
  21216172.189    21216171.572     7528255.810 9  -2939613.233 7
  21058407.476    21058411.837    -4702958.678 9   4347176.651 8
  20112135.310    20112135.095    20946550.872 8 -60926248.208 7
  21658686.698    21658687.449    41054171.684 9 -45296603.213 9
 86  6 19  1  5 11.0800000  0  4G 6G13G 9G11
  21218655.891    21218656.318     7541311.893 9  -2929439.668 8
  21056526.068    21056530.019    -4712844.071 9   4339473.762 8
  20111236.847    20111237.576    20941830.167 8 -60929926.690 7
  21661254.177    21661256.036    41067665.806 9 -45286088.323 8
 86  6 19  1  5 17.0800000  0  4G 6G13G 9G11
  21221143.917    21221144.758     7554388.319 9  -2919250.258 8
  21054649.096    21054652.494    -4722709.893 9   4331786.096 9
  20110343.463    20110343.119    20937132.166 9 -60933587.463 7
  21663823.364    21663825.529    41081170.311 9 -45275565.325 8
 86  6 19  1  5 23.0800000  0  4G 6G13G 9G11
  21223636.149    21223637.677     7567485.154 9  -2909044.944 7
  21052774.804    21052778.674    -4732556.176 9   4324113.674 9
  20109453.640    20109454.536    20932456.760 8 -60937230.650 6
  21666395.176    21666397.416    41094685.211 9 -45265034.229 8
 86  6 19  1  5 29.0800000  0  4G 6G13G 9G11
  21226132.818    21226134.760     7580602.323 9  -2898823.778 7
  21050904.403    21050908.735    -4742382.902 9   4316456.496 9
  20108567.725    20108567.444    20927804.093 9 -60940856.093 6
  21668968.935    21668971.667    41108210.479 9 -45254495.068 8
 86  6 19  1  5 35.0800000  0  4G 6G13G 9G11
  21228631.288    21228632.242     7593739.858 9  -2888586.741 7
  21049037.243    21049042.076    -4752190.051 9   4308814.569 8
  20107686.760    20107688.628    20923174.172 9 -60944463.827 6
  21671544.417    21671546.192    41121746.152 9 -45243947.800 8
 86  6 19  1  5 41.0800000  0  4G 6G13G 9G11
  21231135.341    21231137.427     7606897.798 9  -2878333.803 8
  21047174.626    21047179.639    -4761977.621 9   4301187.878 9
  20106809.856    20106809.836    20918567.067 9 -60948053.781 7
  21674122.383    21674124.330    41135292.178 9 -45233392.462 9
 86  6 19  1  5 47.0800000  0  4G 6G13G 9G11
  21233642.511    21233645.184     7620076.022 9  -2868065.057 8
  21045315.906    21045320.709    -4771745.667 9   4293576.437 9
  20105937.715    20105937.657    20913982.622 9 -60951626.085 6
  21676702.045    21676705.058    41148848.499 9 -45222829.100 8
 86  6 19  1  5 53.0800000  0  4G 6G13G 9G11
  21236154.003    21236157.078     7633274.564 9  -2857780.497 7
  21043460.805    21043464.820    -4781494.207 9   4285980.167 9
  20105069.923    20105070.647    20909420.971 8 -60955180.591 7
  21679283.853    21679287.028    41162415.145 9 -45212257.683 8
 86  6 19  1  5 59.0800000  0  4G 6G13G 9G11
  21238669.502    21238672.205     7646493.384 8  -2847480.118 7
  21041609.138    21041613.267    -4791223.189 9   4278399.135 7
  20104206.503    20104205.092    20904882.182 8 -60958717.319 6
  21681867.413    21681870.554    41175992.061 9 -45201678.269 8
 86  6 19  1  6  5.0800000  0  4G 6G13G 9G11
  21241189.351    21241190.895     7659732.542 9  -2837163.896 8
  21039760.083    21039766.354    -4800932.631 9   4270833.337 8
  20103347.431    20103345.864    20900366.172 9 -60962236.274 8
  21684452.970    21684455.109    41189579.226 9 -45191090.872 8
 86  6 19  1  6 11.0800000  0  4G 6G13G 9G11
  21243712.061    21243714.719     7672992.007 9  -2826831.851 8
  21037917.428    21037922.980    -4810622.457 9   4263282.828 9
  20102492.134    20102490.393    20895872.869 9 -60965737.545 6
  21687041.001    21687041.995    41203176.565 9 -45180495.551 8
 86  6 19  1  6 17.0800000  0  4G 6G13G 9G11
  21246239.094    21246242.597     7686271.717 9  -2816484.029 8
  21036077.123    21036082.783    -4820292.705 9   4255747.568 9
  20101642.830    20101641.152    20891402.474 8 -60969220.973 6
  21689630.015    21689632.459    41216784.116 9 -45169892.263 8
 86  6 19  1  6 23.0800000  0  4G 6G13G 9G11
  21248770.648    21248772.319     7699571.690 9  -2806120.426 7
  21034239.784    21034245.744    -4829943.402 9   4248227.558 8
  20100795.526    20100795.599    20886954.809 9 -60972686.684 7
  21692222.268    21692224.250    41230401.905 9 -45159281.003 8
 86  6 19  1  6 29.0800000  0  4G 6G13G 9G11
  21251305.722    21251307.165     7712891.955 9  -2795741.010 8
  21032407.692    21032412.962    -4839574.477 9   4240722.825 8
  20099953.859    20099953.641    20882530.108 8 -60976134.508 7
  21694815.802    21694816.602    41244029.836 9 -45148661.829 7
 86  6 19  1  6 35.0800000  0  4G 6G13G 9G11
  21253845.175    21253845.745     7726232.512 9  -2785345.766 8
  21030578.638    21030582.806    -4849185.998 9   4233233.330 8
  20099115.823    20099115.557    20878128.274 9 -60979564.495 8
  21697411.453    21697413.254    41257667.924 9 -45138034.752 7
 86  6 19  1  6 41.0800000  0  4G 6G13G 9G11
  21256387.805    21256387.689     7739593.320 9  -2774934.753 9
  21028753.666    21028758.302    -4858777.954 8   4225759.089 8
  20098282.393    20098282.624    20873749.357 9 -60982976.647 7
  21700008.501    21700009.802    41271316.169 9 -45127399.749 8
 86  6 19  1  6 47.0800000  0  4G 6G13G 9G11
  21258934.039    21258935.569     7752974.411 9  -2764507.934 8
  21026932.850    21026936.563    -4868350.396 9   4218300.050 8
  20097453.805    20097454.004    20869393.293 8 -60986370.975 7
  21702607.386    21702608.466    41284974.485 9 -45116756.904 7
 86  6 19  1  6 53.0800000  0  4G 6G13G 9G11
  21261484.080    21261484.207     7766375.726 9  -2754065.356 9
  21025115.714    21025119.232    -4877903.317 9   4210856.221 8
  20096629.285    20096630.065    20865060.203 9 -60989747.407 8
  21705208.318    21705209.691    41298642.891 9 -45106106.208 8
 86  6 19  1  6 59.0800000  0  4G 6G13G 9G11
  21264038.214    21264039.471     7779797.178 9  -2743607.076 8
  21023301.634    21023304.315    -4887436.670 9   4203427.640 9
  20095808.538    20095810.721    20860749.972 9 -60993106.036 7
  21707811.253    21707812.341    41312321.355 9 -45095447.660 8
 86  6 19  1  7  5.0800000  0  4G 6G13G 9G11
  21266595.382    21266597.097     7793238.886 9  -2733133.033 9
  21021491.544    21021494.879    -4896950.502 9   4196014.277 8
  20094992.754    20094994.824    20856462.707 9 -60996446.751 7
  21710416.178    21710416.943    41326009.878 9 -45084781.279 7
 86  6 19  1  7 11.0800000  0  4G 6G13G 9G11
  21269157.672    21269158.298     7806700.826 9  -2722643.212 8
  21019684.722    21019686.207    -4906444.766 9   4188616.149 9
  20094182.199    20094183.565    20852198.490 9 -60999769.516 8
  21713022.088    21713023.704    41339708.381 9 -45074107.123 7
 86  6 19  1  7 17.0800000  0  4G 6G13G 9G11
  21271723.025    21271724.552     7820182.923 9  -2712137.700 8
  21017881.385    21017883.531    -4915919.423 9   4181233.307 8
  20093373.840    20093375.091    20847957.241 9 -61003074.380 7
  21715630.947    21715633.037    41353416.830 9 -45063425.225 8
 86  6 19  1  7 23.0800000  0  4G 6G13G 9G11
  21274292.211    21274293.884     7833685.224 9  -2701616.426 7
  21016083.299    21016083.947    -4925374.532 9   4173865.699 7
  20092572.484    20092573.495    20843738.932 9 -61006361.386 8
  21718242.039    21718242.912    41367135.306 9 -45052735.500 8
 86  6 19  1  7 29.0800000  0  4G 6G13G 9G11
  21276864.976    21276866.904     7847207.758 9  -2691079.395 8
  21014287.385    21014289.460    -4934810.075 9   4166513.336 7
  20091774.285    20091776.203    20839543.761 9 -61009630.355 7
  21720854.505    21720855.771    41380863.763 9 -45042038.011 8
 86  6 19  1  7 35.0800000  0  4G 6G13G 9G11
  21279442.519    21279443.961     7860750.375 9  -2680526.723 8
  21012495.879    21012497.831    -4944226.035 9   4159176.228 8
  20090979.188    20090980.494    20835371.561 8 -61012881.418 7
  21723468.258    21723470.187    41394602.092 9 -45031332.820 7
 86  6 19  1  7 41.0800000  0  4G 6G13G 9G11
  21282023.383    21282025.641     7874313.150 9  -2669958.339 7
  21010707.293    21010710.098    -4953622.446 9   4151854.348 9
  20090188.679    20090191.740    20831222.425 8 -61016114.530 8
  21726084.672    21726086.733    41408350.409 9 -45020619.838 7
 86  6 19  1  7 47.0800000  0  4G 6G13G 9G11
  21284608.711    21284608.865     7887896.149 9  -2659374.191 8
  21008923.696    21008924.762    -4962999.311 9   4144547.700 8
  20089404.032    20089406.585    20827096.359 9 -61019329.644 8
  21728702.210    21728705.006    41422108.622 9 -45009899.165 8
 86  6 19  1  7 53.0800000  0  4G 6G13G 9G11
  21287197.130    21287198.485     7901499.282 9  -2648774.361 7
  21007143.701    21007143.891    -4972356.670 9   4137256.270 8
  20088622.268    20088626.486    20822993.334 9 -61022526.819 8
  21731322.102    21731324.578    41435876.718 9 -44999170.764 7
 86  6 19  1  7 59.0800000  0  4G 6G13G 9G11
  21289788.696    21289790.198     7915122.567 9  -2638158.804 8
  21005366.328    21005368.088    -4981694.472 9   4129980.065 8
  20087845.567    20087849.984    20818913.419 8 -61025705.959 8
  21733943.724    21733947.744    41449654.692 9 -44988434.702 8
 86  6 19  1  8  5.0800000  0  4G 6G13G 9G11
  21292385.500    21292387.415     7928765.964 9  -2627527.602 8
  21003592.864    21003594.619    -4991012.702 9   4122719.110 8
  20087073.273    20087076.762    20814856.667 8 -61028867.095 7
  21736567.650    21736570.920    41463442.520 9 -44977690.945 7
 86  6 19  1  8 11.0800000  0  4G 6G13G 9G11
  21294985.710    21294985.834     7942429.484 9  -2616880.700 7
  21001823.566    21001825.122    -5000311.427 9   4115473.365 8
  20086306.268    20086310.307    20810822.928 9 -61032010.263 8
  21739193.475    21739196.438    41477240.157 9 -44966939.533 7
 86  6 19  1  8 17.0800000  0  4G 6G13G 9G11
  21297589.381    21297590.352     7956113.071 9  -2606218.160 8
  21000057.737    21000059.063    -5009590.519 9   4108242.914 9
  20085543.660    20085547.330    20806812.451 9 -61035135.307 7
  21741820.556    21741823.667    41491047.597 9 -44956180.497 8
 86  6 19  1  8 23.0800000  0  4G 6G13G 9G11
  21300197.605    21300198.474     7969816.752 9  -2595539.969 7
  20998296.029    20998297.089    -5018850.059 9   4101027.682 8
  20084786.033    20084788.111    20802825.081 9 -61038242.347 7
  21744450.571    21744453.197    41504864.812 9 -44945413.834 7
 86  6 19  1  8 29.0800000  0  4G 6G13G 9G11
  21302810.234    21302808.570     7983540.490 9  -2584846.150 7
  20996537.887    20996539.586    -5028089.975 9   4093827.756 8
  20084030.145    20084033.623    20798860.860 8 -61041331.352 7
  21747081.682    21747083.949    41518691.811 9 -44934639.544 8
 86  6 19  1  8 35.0800000  0  4G 6G13G 9G11
  21305423.923    21305424.550     7997284.369 9  -2574136.643 7
  20994782.503    20994784.456    -5037310.249 9   4086643.130 8
  20083281.381    20083284.345    20794919.803 9 -61044402.325 9
  21749714.115    21749716.325    41532528.574 9 -44923857.662 8
 86  6 19  1  8 41.0800000  0  4G 6G13G 9G11
  21308044.023    21308042.258     8011048.320 9  -2563411.473 7
  20993032.221    20993033.466    -5046510.888 9   4079473.803 8
  20082535.876    20082537.727    20791001.894 8 -61047455.233 7
  21752348.523    21752351.601    41546375.098 9 -44913068.155 8
 86  6 19  1  8 47.0800000  0  4G 6G13G 9G11
  21310666.210    21310665.262     8024832.370 9  -2552670.655 8
  20991284.038    20991286.300    -5055691.958 9   4072319.740 8
  20081794.332    20081796.418    20787107.321 9 -61050489.970 7
  21754985.787    21754988.098    41560231.362 9 -44902271.060 7
 86  6 19  1  8 53.0800000  0  4G 6G13G 9G11
  21313292.605    21313292.718     8038636.401 9  -2541914.277 7
  20989540.399    20989542.881    -5064853.438 9   4065180.925 8
  20081058.487    20081059.567    20783235.956 8 -61053506.610 8
  21757624.472    21757627.098    41574097.298 9 -44891466.444 8
 86  6 19  1  8 59.0800000  0  4G 6G13G 9G11
  21315923.492    21315923.878     8052460.432 9  -2531142.297 7
  20987800.205    20987803.188    -5073995.412 8   4058057.303 8
  20080325.934    20080327.079    20779387.763 9 -61056505.214 7
  21760264.855    21760266.508    41587972.855 9 -44880654.330 7
 86  6 19  1  9  5.0800000  0  4G 6G13G 9G11
  21318557.989    21318557.612     8066304.539 9  -2520354.686 6
  20986062.893    20986066.847    -5083117.774 9   4050948.968 8
  20079599.109    20079599.014    20775562.830 8 -61059485.674 8
  21762907.477    21762910.159    41601858.093 9 -44869834.655 8
 86  6 19  1  9 11.0800000  0  4G 6G13G 9G11
  21321196.517    21321196.072     8080168.711 9  -2509551.441 8
  20984331.239    20984334.678    -5092220.543 9   4043855.907 9
  20078875.022    20078874.194    20771761.171 9 -61062447.989 8
  21765551.135    21765552.995    41615752.948 9 -44859007.504 8
 86  6 19  1  9 17.0800000  0  4G 6G13G 9G11
  21323836.821    21323839.266     8094052.861 9  -2498732.646 7
  20982601.892    20982606.462    -5101303.803 9   4036778.048 8
  20078156.020    20078155.951    20767982.853 8 -61065392.136 7
  21768197.800    21768199.401    41629657.374 9 -44848172.884 7
 86  6 19  1  9 23.0800000  0  4G 6G13G 9G11
  21326483.908    21326484.248     8107956.935 9  -2487898.313 8
  20980877.222    20980882.423    -5110367.492 9   4029715.444 8
  20077442.447    20077441.714    20764227.758 9 -61068318.188 6
  21770846.167    21770847.290    41643571.339 9 -44837330.829 7
 86  6 19  1  9 29.0800000  0  4G 6G13G 9G11
  21329133.226    21329135.398     8121880.978 9  -2477048.426 9
  20979156.060    20979160.391    -5119411.506 9   4022668.161 8
  20076732.429    20076730.651    20760495.987 9 -61071226.052 7
  21773495.650    21773497.037    41657494.857 9 -44826481.339 8
 86  6 19  1  9 35.0800000  0  4G 6G13G 9G11
  21331787.211    21331788.580     8135825.062 9  -2466182.903 8
  20977438.017    20977442.963    -5128435.937 7   4015636.134 8
  20076025.911    20076025.525    20756787.520 9 -61074115.757 7
  21776146.507    21776148.762    41671427.909 9 -44815624.415 8
 86  6 19  1  9 41.0800000  0  4G 6G13G 9G11
  21334444.056    21334446.655     8149789.134 9  -2455301.815 8
  20975725.872    20975730.662    -5137440.812 8   4008619.363 9
  20075324.130    20075323.657    20753102.419 9 -61076987.268 7
  21778800.561    21778801.469    41685370.477 9 -44804760.076 8
 86  6 19  1  9 47.0800000  0  4G 6G13G 9G11
  21337105.794    21337107.866     8163773.164 8  -2444405.182 9
  20974015.496    20974020.252    -5146426.197 8   4001617.766 8
  20074627.117    20074626.404    20749440.663 9 -61079840.583 7
  21781454.696    21781455.403    41699322.536 9 -44793888.352 8
 86  6 19  1  9 53.0800000  0  4G 6G13G 9G11
  21339769.880    21339772.640     8177777.130 9  -2433493.021 8
  20972310.192    20972313.172    -5155391.964 9   3994631.461 7
  20073935.026    20073935.376    20745802.288 9 -61082675.694 6
  21784112.084    21784113.386    41713284.107 9 -44783009.213 8
 86  6 19  1  9 59.0800000  0  4G 6G13G 9G11
  21342438.400    21342441.131     8191801.047 9  -2422565.306 8
  20970608.200    20970611.815    -5164338.185 9   3987660.380 7
  20073245.130    20073246.177    20742187.242 8 -61085492.602 7
  21786770.510    21786772.685    41727255.137 9 -44772122.709 8
 86  6 19  1 10  5.0800000  0  4G 6G13G 9G11
  21345111.358    21345114.103     8205844.854 9  -2411622.091 8
  20968909.115    20968913.295    -5173264.848 9   3980704.542 8
  20072563.121    20072562.776    20738595.655 9 -61088291.258 7
  21789430.833    21789432.140    41741235.555 9 -44761228.880 7
 86  6 19  1 10 11.0800000  0  4G 6G13G 9G11
  21347789.009    21347789.951     8219908.602 9  -2400663.336 9
  20967214.299    20967219.204    -5182171.961 9   3973763.930 7
  20071883.876    20071885.114    20735027.496 8 -61091071.631 7
  21792093.087    21792095.563    41755225.417 9 -44750327.689 8
 86  6 19  1 10 17.0800000  0  4G 6G13G 9G11
  21350469.466    21350470.577     8233992.308 9  -2389689.031 8
  20965523.032    20965526.471    -5191059.492 9   3966838.589 8
  20071208.776    20071211.325    20731482.740 7 -61093833.782 6
  21794757.258    21794758.535    41769224.748 9 -44739419.122 8
 86  6 19  1 10 23.0800000  0  4G 6G13G 9G11
  21353153.011    21353154.969     8248095.953 9  -2378699.177 9
  20963836.179    20963838.772    -5199927.427 9   3959928.522 8
  20070539.186    20070540.788    20727961.450 9 -61096577.645 7
  21797423.727    21797424.898    41783233.479 9 -44728503.234 8
 86  6 19  1 10 29.0800000  0  4G 6G13G 9G11
  21355840.593    21355843.408     8262219.472 9  -2367693.858 8
  20962151.855    20962154.745    -5208775.775 9   3953033.717 7
  20069873.112    20069875.356    20724463.624 8 -61099303.225 7
  21800090.659    21800092.756    41797251.641 9 -44717579.995 8
 86  6 19  1 10 35.0800000  0  4G 6G13G 9G11
  21358532.209    21358533.479     8276362.792 9  -2356673.091 7
  20960472.832    20960474.678    -5217604.624 9   3946154.092 8
  20069212.087    20069214.547    20720989.298 8 -61102010.505 7
  21802760.196    21802763.279    41811279.133 9 -44706649.477 8
 86  6 19  1 10 41.0800000  0  4G 6G13G 9G11
  21361228.319    21361229.204     8290526.014 9  -2345636.815 9
  20958796.743    20958798.257    -5226413.916 9   3939289.707 8
  20068555.214    20068557.672    20717538.457 9 -61104699.497 7
  21805430.892    21805433.403    41825315.931 9 -44695711.723 8
 86  6 19  1 10 47.0800000  0  4G 6G13G 9G11
  21363926.689    21363928.547     8304709.114 9  -2334585.053 9
  20957124.593    20957124.819    -5235203.592 9   3932440.626 8
  20067903.728    20067905.290    20714110.995 9 -61107370.234 7
  21808103.929    21808106.605    41839362.038 9 -44684766.712 8
 86  6 19  1 10 53.0800000  0  4G 6G13G 9G11
  21366628.866    21366630.938     8318912.080 9  -2323517.807 8
  20955456.302    20955456.539    -5243973.682 9   3925606.784 7
  20067256.249    20067257.822    20710707.090 8 -61110022.642 6
  21810778.967    21810780.160    41853417.459 9 -44673814.431 7
 86  6 19  1 10 59.0800000  0  4G 6G13G 9G11
  21369335.249    21369337.836     8333134.808 9  -2312435.169 8
  20953791.421    20953790.075    -5252724.296 9   3918788.136 8
  20066612.637    20066613.945    20707326.815 8 -61112656.619 6
  21813453.798    21813457.212    41867482.152 9 -44662854.941 8
 86  6 19  1 11  5.0800000  0  4G 6G13G 9G11
  21372045.840    21372048.399     8347377.415 9  -2301337.046 9
  20952130.489    20952128.838    -5261455.225 9   3911984.823 8
  20065973.863    20065976.036    20703969.922 9 -61115272.393 8
  21816132.395    21816136.343    41881556.090 9 -44651888.241 9
 86  6 19  1 11 11.0800000  0  4G 6G13G 9G11
  21374759.520    21374762.265     8361639.836 9  -2290223.472 8
  20950471.785    20950471.595    -5270166.507 9   3905196.814 8
  20065339.279    20065341.163    20700636.675 8 -61117869.738 7
  21818813.100    21818815.325    41895639.224 9 -44640914.376 8
 86  6 19  1 11 17.0800000  0  4G 6G13G 9G11
  21377476.894    21377479.496     8375922.041 9  -2279094.490 8
  20948817.836    20948818.510    -5278858.288 9   3898424.006 8
  20064710.214    20064711.259    20697326.967 9 -61120448.753 6
  21821494.215    21821497.562    41909731.547 9 -44629933.344 8
 86  6 19  1 11 23.0800000  0  4G 6G13G 9G11
  21380198.130    21380201.377     8390224.030 9  -2267950.101 9
  20947168.048    20947167.774    -5287530.504 9   3891666.448 7
  20064084.044    20064085.610    20694040.844 8 -61123009.338 6
  21824176.987    21824180.076    41923833.009 9 -44618945.197 9
 86  6 19  1 11 29.0800000  0  4G 6G13G 9G11
  21382923.745    21382926.361     8404545.803 9  -2256790.270 8
  20945521.313    20945520.623    -5296183.204 9   3884924.073 7
  20063463.426    20063465.064    20690778.287 9 -61125551.600 6
  21826862.615    21826864.919    41937943.619 9 -44607949.928 8
 86  6 19  1 11 35.0800000  0  4G 6G13G 9G11
  21385652.394    21385655.582     8418887.355 8  -2245615.041 8
  20943878.851    20943877.530    -5304816.381 9   3878196.937 9
  20062847.851    20062849.519    20687539.339 9 -61128075.456 7
  21829549.430    21829552.090    41952063.369 9 -44596947.537 8
 86  6 19  1 11 41.0800000  0  4G 6G13G 9G11
  21388384.820    21388388.552     8433248.662 9  -2234424.417 8
  20942239.654    20942238.696    -5313430.018 9   3871485.025 7
  20062235.549    20062237.632    20684324.004 9 -61130580.921 7
  21832237.033    21832241.090    41966192.263 9 -44585938.012 9
 86  6 19  1 11 47.0800000  0  4G 6G13G 9G11
  21391121.597    21391124.642     8447629.721 9  -2223218.412 8
  20940603.467    20940603.088    -5322024.140 9   3864788.312 8
  20061628.883    20061628.125    20681132.227 9 -61133068.022 7
  21834927.390    21834931.790    41980330.232 9 -44574921.415 9
 86  6 19  1 11 53.0800000  0  4G 6G13G 9G11
  21393862.724    21393864.425     8462030.484 9  -2211997.031 8
  20938972.333    20938972.384    -5330598.771 9   3858106.777 7
  20061025.465    20061026.744    20677964.072 9 -61135536.707 7
  21837619.973    21837622.962    41994477.236 8 -44563897.778 8
 86  6 19  1 11 59.0800000  0  4G 6G13G 9G11
  21396605.854    21396608.970     8476451.014 9  -2200760.267 9
  20937343.762    20937343.695    -5339153.732 9   3851440.581 8
  20060427.405    20060428.131    20674819.737 9 -61137986.856 8
  21840314.494    21840316.633    42008633.390 9 -44552867.022 8
 86  6 19  1 12  5.0800000  0  4G 6G13G 9G11
  21399355.422    21399356.265     8490891.345 9  -2189508.069 8
  20935720.635    20935719.894    -5347688.978 9   3844789.743 7
  20059832.879    20059833.815    20671699.040 8 -61140418.563 7
  21843009.208    21843012.278    42022798.650 9 -44541829.163 8
 86  6 19  1 12 11.0800000  0  4G 6G13G 9G11
  21402106.136    21402108.335     8505351.409 9  -2178240.495 8
  20934099.571    20934100.387    -5356204.670 9   3838154.147 8
  20059244.211    20059245.051    20668602.053 9 -61142831.796 6
  21845707.242    21845710.204    42036972.974 9 -44530784.228 8
 86  6 19  1 12 17.0800000  0  4G 6G13G 9G11
  21404861.486    21404863.171     8519831.214 9  -2166957.544 7
  20932482.337    20932482.154    -5364700.761 9   3831533.809 9
  20058658.596    20058660.128    20665528.782 9 -61145226.547 7
  21848405.842    21848408.346    42051156.350 9 -44519732.256 8
 86  6 19  1 12 23.0800000  0  4G 6G13G 9G11
  21407620.699    21407622.827     8534330.661 9  -2155659.279 9
  20930869.762    20930869.768    -5373177.288 9   3824928.732 8
  20058078.313    20058079.279    20662479.314 9 -61147602.769 7
  21851106.645    21851109.578    42065348.679 9 -44508673.302 8
 86  6 19  1 12 29.0800000  0  4G 6G13G 9G11
  21410383.346    21410386.048     8548849.821 9  -2144345.653 8
  20929259.498    20929261.132    -5381634.256 9   3818338.893 9
  20057502.794    20057503.136    20659453.464 8 -61149960.558 6
  21853808.849    21853811.424    42079549.982 9 -44497607.367 9
 86  6 19  1 12 35.0800000  0  4G 6G13G 9G11
  21413150.087    21413152.142     8563388.613 9  -2133016.727 8
  20927654.172    20927656.003    -5390071.635 9   3811764.299 9
  20056932.241    20056933.581    20656451.382 8 -61152299.851 7
  21856513.209    21856516.048    42093760.170 9 -44486534.490 8
 86  6 19  1 12 41.0800000  0  4G 6G13G 9G11
  21415920.518    21415922.361     8577947.035 9  -2121672.514 8
  20926052.079    20926054.645    -5398489.483 9   3805204.939 8
  20056364.631    20056367.194    20653473.065 8 -61154620.623 7
  21859219.134    21859223.198    42107979.271 9 -44475454.672 8
 86  6 19  1 12 47.0800000  0  4G 6G13G 9G11
  21418693.954    21418696.598     8592525.166 9  -2110312.935 8
  20924453.815    20924456.578    -5406887.768 9   3798660.826 8
  20055801.921    20055803.256    20650518.542 8 -61156922.841 7
  21861925.982    21861929.782    42122207.315 9 -44464367.889 9
 86  6 19  1 12 53.0800000  0  4G 6G13G 9G11
  21421472.513    21421474.844     8607122.875 9  -2098938.099 8
  20922859.318    20922862.372    -5415266.553 9   3792131.893 9
  20055245.465    20055246.194    20647587.789 7 -61159206.558 7
  21864635.656    21864638.710    42136444.260 9 -44453274.183 8
 86  6 19  1 12 59.0800000  0  4G 6G13G 9G11
  21424254.020    21424256.237     8621740.227 9  -2087547.985 8
  20921268.063    20921271.610    -5423625.756 9   3785618.218 7
  20054691.486    20054693.383    20644680.827 8 -61161471.700 7
  21867347.314    21867350.012    42150690.109 9 -44442173.511 9
 86  6 19  1 13  5.0800000  0  4G 6G13G 9G11
  21427038.560    21427042.007     8636377.237 9  -2076142.515 8
  20919681.350    20919685.063    -5431965.349 9   3779119.849 8
  20054143.614    20054143.566    20641797.687 8 -61163718.314 8
  21870058.806    21870062.369    42164944.789 8 -44431065.971 9
 86  6 19  1 13 11.0800000  0  4G 6G13G 9G11
  21429827.995    21429830.152     8651033.823 9  -2064721.810 8
  20918098.205    20918101.131    -5440285.418 9   3772636.677 8
  20053599.105    20053599.952    20638938.397 9 -61165946.331 7
  21872772.887    21872775.813    42179208.247 9 -44419951.592 8
 86  6 19  1 13 17.0800000  0  4G 6G13G 9G11
  21432620.719    21432623.807     8665709.965 9  -2053285.855 7
  20916518.085    20916522.013    -5448585.933 9   3766168.737 8
  20053059.775    20053060.548    20636102.825 9 -61168155.855 7
  21875489.094    21875491.382    42193480.512 9 -44408830.348 8
 86  6 19  1 13 23.0800000  0  4G 6G13G 9G11
  21435417.394    21435420.110     8680405.721 9  -2041834.635 8
  20914942.883    20914945.878    -5456866.920 9   3759716.035 9
  20052524.586    20052524.942    20633291.153 9 -61170346.778 7
  21878206.295    21878209.564    42207761.593 9 -44397702.241 9
 86  6 19  1 13 29.0800000  0  4G 6G13G 9G11
  21438217.960    21438219.377     8695120.959 9  -2030368.215 8
  20913370.703    20913374.684    -5465128.304 9   3753278.583 8
  20051994.308    20051994.633    20630503.332 9 -61172519.099 7
  21880926.171    21880929.134    42222051.411 9 -44386567.320 9
 86  6 19  1 13 35.0800000  0  4G 6G13G 9G11
  21441022.334    21441023.032     8709855.825 9  -2018886.503 8
  20911801.837    20911805.236    -5473370.108 9   3746856.412 8
  20051467.583    20051468.049    20627739.359 9 -61174672.839 7
  21883647.889    21883649.476    42236349.954 9 -44375425.594 9
 86  6 19  1 13 41.0800000  0  4G 6G13G 9G11
  21443829.628    21443830.253     8724610.250 9  -2007389.545 8
  20910237.580    20910240.500    -5481592.360 9   3740449.454 7
  20050946.956    20050946.424    20624999.229 9 -61176808.015 7
  21886369.161    21886372.699    42250657.250 9 -44364277.062 8
 86  6 19  1 13 47.0800000  0  4G 6G13G 9G11
  21446641.153    21446642.667     8739384.167 9  -1995877.414 8
  20908677.264    20908679.765    -5489795.068 9   3734057.730 8
  20050430.518    20050430.243    20622283.034 9 -61178924.534 7
  21889094.275    21889096.794    42264973.251 9 -44353121.735 9
 86  6 19  1 13 53.0800000  0  4G 6G13G 9G11
  21449456.430    21449457.443     8754177.569 9  -1984350.091 7
  20907120.362    20907122.565    -5497978.347 9   3727681.158 7
  20049918.117    20049917.388    20619590.720 9 -61181022.435 8
  21891819.439    21891823.596    42279297.846 9 -44341959.724 9
 86  6 19  1 13 59.0800000  0  4G 6G13G 9G11
  21452275.426    21452277.215     8768990.539 9  -1972807.518 7
  20905567.011    20905569.337    -5506142.031 9   3721319.850 7
  20049410.775    20049410.575    20616922.398 9 -61183101.629 7
  21894546.799    21894551.843    42293631.127 9 -44330790.920 9
 86  6 19  1 14  5.0800000  0  4G 6G13G 9G11
  21455098.631    21455099.172     8783822.991 9  -1961249.760 9
  20904016.844    20904020.103    -5514286.207 9   3714973.743 8
  20048907.655    20048906.948    20614277.982 9 -61185162.225 7
  21897276.379    21897280.156    42307973.065 9 -44319615.399 8
 86  6 19  1 14 11.0800000  0  4G 6G13G 9G11
  21457924.096    21457925.095     8798674.941 9  -1949676.806 8
  20902471.480    20902473.222    -5522410.856 9   3708642.855 8
  20048409.404    20048407.747    20611657.503 9 -61187204.171 7
  21900007.016    21900010.171    42322323.627 9 -44308433.154 8
 86  6 19  1 14 17.0800000  0  4G 6G13G 9G11
  21460755.142    21460754.595     8813546.387 9  -1938088.675 7
  20900928.636    20900930.733    -5530515.947 9   3702327.211 8
  20047915.047    20047914.116    20609060.953 9 -61189227.446 7
  21902740.888    21902743.039    42336682.862 9 -44297244.137 8
 86  6 19  1 14 23.0800000  0  4G 6G13G 9G11
  21463588.533    21463588.460     8828437.315 9  -1926485.363 8
  20899391.243    20899391.140    -5538601.492 9   3696026.793 7
  20047425.834    20047425.622    20606488.487 9 -61191231.974 7
  21905474.072    21905477.842    42351050.690 9 -44286048.428 9
 86  6 19  1 14 29.0800000  0  4G 6G13G 9G11
  21466426.390    21466426.789     8843347.610 9  -1914866.951 8
  20897855.138    20897856.504    -5546667.485 9   3689741.609 8
  20046939.787    20046939.684    20603939.933 9 -61193217.856 8
  21908210.497    21908213.553    42365427.121 9 -44274846.021 8
 86  6 19  1 14 35.0800000  0  4G 6G13G 9G11
  21469267.251    21469268.122     8858277.312 9  -1903233.414 9
  20896324.262    20896326.259    -5554714.004 9   3683471.596 8
  20046459.960    20046460.318    20601415.367 9 -61195185.052 8
  21910947.353    21910951.116    42379812.035 9 -44263637.000 8
 86  6 19  1 14 41.0800000  0  4G 6G13G 9G11
  21472112.291    21472112.488     8873226.534 7  -1891584.678 8
  20894797.189    20894798.820    -5562740.952 9   3677216.845 7
  20045984.228    20045985.352    20598914.812 9 -61197133.547 7
  21913686.933    21913690.246    42394205.454 9 -44252421.348 8
 86  6 19  1 14 47.0800000  0  4G 6G13G 9G11
  21474960.536    21474961.606     8888195.111 9  -1879920.853 9
  20893273.273    20893275.063    -5570748.378 9   3670977.293 8
  20045513.026    20045513.151    20596438.217 9 -61199063.347 8
  21916427.201    21916430.319    42408607.373 9 -44241199.079 8
 86  6 19  1 14 53.0800000  0  4G 6G13G 9G11
  21477812.501    21477812.600     8903183.143 9  -1868241.878 8
  20891752.954    20891755.023    -5578736.235 9   3664752.995 9
  20045046.359    20045047.176    20593985.651 9 -61200974.457 7
  21919169.680    21919173.878    42423017.813 9 -44229970.176 8
 86  6 19  1 14 59.0800000  0  4G 6G13G 9G11
  21480668.129    21480668.884     8918190.535 9  -1856547.806 7
  20890236.739    20890238.033    -5586704.657 9   3658543.838 8
  20044583.930    20044584.203    20591557.197 9 -61202866.750 7
  21921912.652    21921916.880    42437436.725 9 -44218734.664 8
 86  6 19  1 15  5.0800000  0  4G 6G13G 9G11
  21483527.994    21483527.991     8933217.312 9  -1844838.638 8
  20888723.967    20888725.999    -5594653.513 9   3652349.927 8
  20044126.461    20044126.614    20589152.721 9 -61204740.365 7
  21924659.222    21924663.551    42451864.118 9 -44207492.542 8
 86  6 19  1 15 11.0800000  0  4G 6G13G 9G11
  21486390.548    21486391.232     8948263.455 9  -1833114.377 8
  20887215.092    20887215.756    -5602582.796 9   3646171.262 8
  20043672.982    20043672.744    20586772.384 8 -61206595.166 7
  21927405.571    21927409.729    42466299.931 9 -44196243.850 8
 86  6 19  1 15 17.0800000  0  4G 6G13G 9G11
  21489256.679    21489258.265     8963328.980 9  -1821375.009 9
  20885709.895    20885711.755    -5610492.568 9   3640007.804 8
  20043224.082    20043225.257    20584416.194 9 -61208431.174 7
  21930154.562    21930157.802    42480744.194 9 -44184988.592 9
 86  6 19  1 15 23.0800000  0  4G 6G13G 9G11
  21492128.363    21492129.061     8978413.879 9  -1809620.555 8
  20884208.539    20884210.298    -5618382.836 9   3633859.550 8
  20042780.726    20042782.574    20582084.039 9 -61210248.426 7
  21932905.203    21932907.506    42495196.831 9 -44173726.796 8
 86  6 19  1 15 29.0800000  0  4G 6G13G 9G11
  21495002.622    21495002.889     8993518.086 9  -1797851.039 8
  20882710.864    20882712.910    -5626253.540 9   3627726.543 7
  20042340.661    20042343.834    20579775.918 8 -61212046.975 7
  21935656.302    21935660.122    42509657.831 9 -44162458.494 9
 86  6 19  1 15 35.0800000  0  4G 6G13G 9G11
  21497879.915    21497882.215     9008641.631 9  -1786066.472 8
  20881216.370    20881218.306    -5634104.792 9   3621608.676 8
  20041906.286    20041908.991    20577491.921 9 -61213826.705 7
  21938410.599    21938413.568    42524127.146 9 -44151183.699 8
 86  6 19  1 15 41.0800000  0  4G 6G13G 9G11
  21500761.986    21500763.000     9023784.469 9  -1774266.862 8
  20879726.299    20879727.377    -5641936.549 9   3615506.007 7
  20041475.777    20041479.418    20575232.144 8 -61215587.587 7
  21941165.349    21941167.451    42538604.818 9 -44139902.401 8
 86  6 19  1 15 47.0800000  0  4G 6G13G 9G11
  21503647.177    21503648.091     9038946.590 9  -1762452.238 8
  20878238.794    20878241.599    -5649748.836 9   3609418.508 9
  20041050.065    20041053.311    20572996.444 9 -61217329.690 7
  21943921.414    21943923.580    42553090.817 9 -44128614.614 8
 86  6 19  1 15 53.0800000  0  4G 6G13G 9G11
  21506535.717    21506536.600     9054128.012 9  -1750622.564 8
  20876756.248    20876758.591    -5657541.643 9   3603346.187 8
  20040628.933    20040632.262    20570784.935 9 -61219052.945 8
  21946679.745    21946681.986    42567585.090 9 -44117320.371 8
 86  6 19  1 15 59.0800000  0  4G 6G13G 9G11
  21509428.463    21509429.848     9069328.712 9  -1738777.867 7
  20875277.122    20875279.634    -5665314.876 9   3597289.128 9
  20040212.526    20040216.304    20568597.623 9 -61220757.335 8
  21949439.182    21949441.993    42582087.627 9 -44106019.692 7
 86  6 19  1 16  5.0800000  0  4G 6G13G 9G11
  21512324.244    21512327.260     9084548.746 9  -1726918.104 8
  20873800.889    20873803.839    -5673068.575 9   3591247.290 8
  20039802.142    20039804.397    20566434.474 9 -61222442.913 8
  21952199.947    21952203.173    42596598.415 9 -44094712.587 8
 86  6 19  1 16 11.0800000  0  4G 6G13G 9G11
  21515224.231    21515226.575     9099787.966 9  -1715043.395 9
  20872329.697    20872332.262    -5680802.684 9   3585220.704 9
  20039394.433    20039397.173    20564295.484 8 -61224109.659 8
  21954963.624    21954966.098    42611117.421 9 -44083399.079 9
 86  6 19  1 16 17.0800000  0  4G 6G13G 9G11
  21518127.079    21518129.982     9115046.454 9  -1703153.672 8
  20870860.665    20870863.798    -5688517.350 9   3579209.285 8
  20038993.003    20038994.317    20562180.735 8 -61225757.515 6
  21957728.153    21957731.222    42625644.671 9 -44072079.147 8
 86  6 19  1 16 23.0800000  0  4G 6G13G 9G11
  21521035.338    21521037.596     9130324.142 9  -1691248.982 8
  20869396.874    20869398.998    -5696212.542 9   3573213.037 8
  20038594.561    20038597.219    20560090.130 8 -61227386.552 8
  21960493.411    21960496.716    42640180.123 9 -44060752.826 8
 86  6 19  1 16 29.0800000  0  4G 6G13G 9G11
  21523946.086    21523949.158     9145621.084 9  -1679329.304 9
  20867935.888    20867938.872    -5703888.271 9   3567231.954 7
  20038202.006    20038201.983    20558023.847 9 -61228996.660 7
  21963261.933    21963264.129    42654723.701 9 -44049420.165 9
 86  6 19  1 16 35.0800000  0  4G 6G13G 9G11
  21526860.267    21526862.325     9160937.163 9  -1667394.693 8
  20866479.538    20866481.967    -5711544.546 9   3561266.024 7
  20037812.302    20037813.934    20555981.801 9 -61230587.859 7
  21966030.684    21966033.007    42669275.377 9 -44038081.204 8
 86  6 19  1 16 41.0800000  0  4G 6G13G 9G11
  21529778.227    21529781.457     9176272.493 9  -1655445.106 8
  20865026.341    20865028.713    -5719181.253 9   3555315.360 7
  20037427.604    20037430.705    20553963.971 9 -61232160.187 7
  21968802.109    21968803.882    42683835.210 9 -44026735.878 9
 86  6 19  1 16 47.0800000  0  4G 6G13G 9G11
  21532699.591    21532703.953     9191626.937 9  -1643480.605 8
  20863576.529    20863579.013    -5726798.511 9   3549379.830 7
  20037049.237    20037049.950    20551970.395 9 -61233713.623 7
  21971573.900    21971576.024    42698403.207 9 -44015384.194 8
 86  6 19  1 16 53.0800000  0  4G 6G13G 9G11
  21535625.849    21535628.739     9207000.529 9  -1631501.188 8
  20862131.369    20862132.046    -5734396.444 9   3543459.372 8
  20036675.300    20036676.126    20550001.054 8 -61235248.182 8
  21974347.571    21974348.553    42712979.257 9 -44004026.228 8
 86  6 19  1 16 59.0800000  0  4G 6G13G 9G11
  21538555.085    21538558.387     9222393.248 9  -1619506.872 8
  20860688.504    20860691.444    -5741974.859 9   3537554.115 7
  20036304.287    20036306.174    20548055.977 9 -61236763.814 7
  21977123.685    21977124.785    42727563.387 9 -43992661.983 8
 86  6 19  1 17  5.0800000  0  4G 6G13G 9G11
  21541487.811    21541490.356     9237805.133 9  -1607497.616 7
  20859250.217    20859252.705    -5749533.730 9   3531664.098 9
  20035939.140    20035939.866    20546135.241 9 -61238260.487 7
  21979900.040    21979902.501    42742155.560 9 -43981291.456 8
 86  6 19  1 17 11.0800000  0  4G 6G13G 9G11
  21544424.745    21544427.517     9253236.178 9  -1595473.421 8
  20857815.533    20857817.465    -5757073.045 9   3525789.305 8
  20035577.703    20035580.682    20544238.778 8 -61239738.261 7
  21982678.148    21982680.316    42756755.756 9 -43969914.677 8
 86  6 19  1 17 17.0800000  0  4G 6G13G 9G11
  21547363.452    21547366.840     9268686.333 9  -1583434.340 9
  20856384.451    20856385.528    -5764592.894 9   3519929.692 8
  20035221.372    20035222.276    20542366.598 9 -61241197.105 7
  21985458.266    21985459.883    42771363.980 9 -43958531.642 9
 86  6 19  1 17 23.0800000  0  4G 6G13G 9G11
  21550307.426    21550310.183     9284155.577 8  -1571380.398 8
  20854957.217    20854959.797    -5772093.270 9   3514085.239 8
  20034869.711    20034871.531    20540518.824 9 -61242636.925 7
  21988239.280    21988241.355    42785980.198 9 -43947142.385 9
 86  6 19  1 17 29.0800000  0  4G 6G13G 9G11
  21553254.977    21553257.292     9299643.967 9  -1559311.526 8
  20853533.303    20853534.494    -5779574.078 9   3508256.057 8
  20034522.068    20034524.760    20538695.417 8 -61244057.764 8
  21991023.104    21991024.077    42800604.457 9 -43935746.860 9
 86  6 19  1 17 35.0800000  0  4G 6G13G 9G11
  21556205.847    21556208.705     9315151.386 9  -1547227.825 8
  20852113.505    20852115.798    -5787035.416 9   3502442.026 8
  20034179.699    20034181.436    20536896.299 9 -61245459.681 7
  21993806.006    21993808.467    42815236.603 9 -43924345.185 9
 86  6 19  1 17 41.0800000  0  4G 6G13G 9G11
  21559160.322    21559162.696     9330677.903 9  -1535129.253 8
  20850697.983    20850699.337    -5794477.290 9   3496643.165 8
  20033842.218    20033843.994    20535121.551 8 -61246842.596 7
  21996592.307    21996594.108    42829876.731 9 -43912937.303 8
 86  6 19  1 17 47.0800000  0  4G 6G13G 9G11
  21562118.407    21562121.851     9346223.450 9  -1523015.848 7
  20849285.223    20849286.661    -5801899.693 9   3490859.477 8
  20033509.001    20033511.713    20533371.252 9 -61248206.464 7
  21999380.081    21999381.763    42844524.715 9 -43901523.287 8
 86  6 19  1 17 53.0800000  0  4G 6G13G 9G11
  21565079.952    21565083.424     9361788.087 9  -1510887.568 8
  20847876.890    20847878.582    -5809302.639 9   3485090.957 8
  20033181.234    20033183.336    20531645.235 8 -61249551.416 6
  22002168.922    22002170.502    42859180.633 9 -43890103.098 8
 86  6 19  1 17 59.0800000  0  4G 6G13G 9G11
  21568046.160    21568048.204     9377371.784 9  -1498744.436 8
  20846472.225    20846472.542    -5816686.064 9   3479337.644 8
  20032857.328    20032859.393    20529943.735 8 -61250877.262 8
  22004959.522    22004961.989    42873844.475 9 -43878676.729 9
 86  6 19  1 18  5.0800000  0  4G 6G13G 9G11
  21571015.431    21571017.103     9392974.553 9  -1486586.453 7
  20845070.501    20845073.166    -5824049.982 9   3473599.526 8
  20032537.309    20032540.499    20528266.661 8 -61252184.070 6
  22007750.043    22007752.476    42888516.157 9 -43867244.249 8
 86  6 19  1 18 11.0800000  0  4G 6G13G 9G11
  21573988.054    21573990.127     9408596.255 9  -1474413.686 8
  20843673.317    20843675.381    -5831394.500 9   3467876.531 7
  20032223.826    20032224.702    20526614.010 8 -61253471.838 7
  22010544.120    22010546.331    42903195.678 9 -43855805.673 8
 86  6 19  1 18 17.0800000  0  4G 6G13G 9G11
  21576963.562    21576964.263     9424236.922 9  -1462226.162 8
  20842278.785    20842281.268    -5838719.646 9   3462168.634 8
  20031914.678    20031915.570    20524985.721 8 -61254740.661 7
  22013339.442    22013341.330    42917883.010 9 -43844360.992 8
 86  6 19  1 18 23.0800000  0  4G 6G13G 9G11
  21579945.887    21579945.582     9439896.607 9  -1450023.817 8
  20840889.058    20840890.707    -5846025.343 9   3456475.887 8
  20031609.120    20031610.523    20523381.924 9 -61255990.366 7
  22016135.623    22016137.955    42932578.162 9 -43832910.227 9
 86  6 19  1 18 29.0800000  0  4G 6G13G 9G11
  21582928.322    21582928.091     9455575.237 9  -1437806.704 8
  20839502.753    20839505.081    -5853311.626 9   3450798.256 8
  20031309.056    20031310.005    20521802.506 8 -61257221.083 6
  22018933.092    22018935.724    42947281.071 9 -43821453.416 9
 86  6 19  1 18 35.0800000  0  4G 6G13G 9G11
  21585915.596    21585915.393     9471272.856 9  -1425574.797 7
  20838119.497    20838121.214    -5860578.536 9   3445135.728 8
  20031012.569    20031015.040    20520247.591 9 -61258432.698 7
  22021732.808    22021735.239    42961991.802 9 -43809990.511 8
 86  6 19  1 18 41.0800000  0  4G 6G13G 9G11
  21588906.876    21588906.428     9486989.415 9  -1413328.134 7
  20836740.260    20836742.478    -5867825.971 9   3439488.385 8
  20030721.553    20030721.660    20518717.241 8 -61259625.189 7
  22024533.173    22024535.899    42976710.298 9 -43798521.552 8
 86  6 19  1 18 47.0800000  0  4G 6G13G 9G11
  21591901.647    21591900.469     9502724.863 9  -1401066.742 7
  20835365.182    20835367.917    -5875053.916 9   3433856.218 7
  20030435.609    20030435.918    20517211.403 9 -61260798.565 7
  22027335.542    22027339.298    42991436.493 9 -43787046.609 8
 86  6 19  1 18 53.0800000  0  4G 6G13G 9G11
  21594899.451    21594898.931     9518479.294 9  -1388790.568 8
  20833993.009    20833996.092    -5882262.372 9   3428239.247 8
  20030153.988    20030154.365    20515730.022 9 -61261952.885 8
  22030139.359    22030143.055    43006170.368 9 -43775565.671 9
 86  6 19  1 18 59.0800000  0  4G 6G13G 9G11
  21597901.063    21597898.797     9534252.585 9  -1376499.693 7
  20832624.621    20832627.845    -5889451.419 9   3422637.389 8
  20029875.695    20029877.004    20514273.089 9 -61263088.159 7
  22032944.732    22032947.722    43020911.889 9 -43764078.770 9
 86  6 19  1 19  5.0800000  0  4G 6G13G 9G11
  21600906.565    21600904.787     9550044.718 9  -1364194.131 7
  20831260.933    20831263.425    -5896621.096 9   3417050.622 8
  20029604.261    20029603.625    20512840.617 9 -61264204.369 7
  22035750.277    22035754.872    43035661.185 9 -43752585.819 8
 86  6 19  1 19 11.0800000  0  4G 6G13G 9G11
  21603915.388    21603913.925     9565855.755 9  -1351873.845 8
  20829900.699    20829902.321    -5903771.345 9   3411478.996 8
  20029335.166    20029336.298    20511432.706 8 -61265301.471 8
  22038558.887    22038562.357    43050418.137 9 -43741086.913 8
 86  6 19  1 19 17.0800000  0  4G 6G13G 9G11
  21606927.359    21606926.097     9581685.618 9  -1339538.891 7
  20828542.931    20828546.456    -5910902.169 9   3405922.499 7
  20029072.682    20029072.923    20510049.291 9 -61266379.440 7
  22041367.932    22041372.739    43065182.686 9 -43729582.068 8
 86  6 19  1 19 23.0800000  0  4G 6G13G 9G11
  21609943.193    21609943.318     9597534.334 9  -1327189.241 8
  20827189.537    20827192.427    -5918013.671 9   3400381.081 8
  20028813.421    20028815.181    20508690.432 9 -61267438.289 6
  22044179.981    22044183.265    43079954.838 9 -43718071.303 8
 86  6 19  1 19 29.0800000  0  4G 6G13G 9G11
  21612961.888    21612962.301     9613401.899 9  -1314824.900 7
  20825840.151    20825843.003    -5925105.774 9   3394854.764 8
  20028560.547    20028559.988    20507356.209 9 -61268477.958 7
  22046991.895    22046995.350    43094734.574 9 -43706554.643 8
 86  6 19  1 19 35.0800000  0  4G 6G13G 9G11
  21615986.023    21615986.792     9629288.211 9  -1302445.972 7
  20824494.456    20824497.478    -5932178.480 9   3389343.563 8
  20028311.015    20028311.070    20506046.411 8 -61269498.582 7
  22049806.027    22049809.597    43109521.793 9 -43695032.119 8
 86  6 19  1 19 41.0800000  0  4G 6G13G 9G11
  21619012.016    21619013.186     9645193.272 9  -1290052.416 7
  20823152.804    20823155.178    -5939231.750 9   3383847.523 8
  20028066.537    20028066.690    20504761.282 9 -61270499.979 7
  22052621.295    22052625.295    43124316.543 9 -43683503.752 8
 86  6 19  1 19 47.0800000  0  4G 6G13G 9G11
  21622041.788    21622043.545     9661117.202 9  -1277644.169 9
  20821813.978    20821817.430    -5946265.605 9   3378366.602 8
  20027826.558    20027826.075    20503500.650 9 -61271482.301 7
  22055437.983    22055441.760    43139118.808 9 -43671969.526 8
 86  6 19  1 19 53.0800000  0  4G 6G13G 9G11
  21625075.937    21625077.065     9677059.898 9  -1265221.302 8
  20820478.284    20820481.339    -5953280.007 9   3372900.822 8
  20027590.556    20027591.368    20502264.587 8 -61272445.472 7
  22058256.036    22058259.661    43153928.594 9 -43660429.435 9
 86  6 19  1 19 59.0800000  0  4G 6G13G 9G11
  21628112.576    21628114.979     9693021.368 9  -1252783.794 9
  20819148.564    20819149.834    -5960274.983 9   3367450.205 7
  20027359.571    20027361.796    20501053.206 9 -61273389.403 8
  22061076.184    22061079.875    43168745.921 9 -43648883.465 8
 86  6 19  1 20  5.0800000  0  4G 6G13G 9G11
  21631153.910    21631156.253     9709001.662 9  -1240331.639 9
  20817820.367    20817823.499    -5967250.574 9   3362014.675 8
  20027133.871    20027133.484    20499866.450 9 -61274314.159 7
  22063896.890    22063900.595    43183570.814 9 -43637331.604 8
 86  6 19  1 20 11.0800000  0  4G 6G13G 9G11
  21634199.480    21634200.993     9725000.745 9  -1227864.813 8
  20816496.819    20816498.484    -5974206.731 9   3356594.295 8
  20026912.291    20026914.342    20498704.526 9 -61275219.540 7
  22066719.987    22066722.826    43198403.210 9 -43625773.889 8
 86  6 19  1 20 17.0800000  0  4G 6G13G 9G11
  21637247.052    21637249.595     9741018.567 9  -1215383.403 8
  20815176.451    20815178.442    -5981143.455 9   3351189.060 7
  20026697.162    20026697.581    20497567.216 8 -61276105.771 7
  22069543.426    22069546.316    43213243.034 9 -43614210.397 8
 86  6 19  1 20 23.0800000  0  4G 6G13G 9G11
  21640298.830    21640300.271     9757055.005 9  -1202887.486 9
  20813860.507    20813862.498    -5988060.802 9   3345798.936 8
  20026484.519    20026487.221    20496454.619 9 -61276972.733 7
  22072369.369    22072371.188    43228090.239 9 -43602641.147 8
 86  6 19  1 20 29.0800000  0  4G 6G13G 9G11
  21643353.069    21643356.315     9773110.203 9  -1190376.947 9
  20812547.247    20812549.429    -5994958.849 9   3340423.830 8
  20026278.298    20026279.363    20495366.583 8 -61277820.546 7
  22075196.109    22075199.499    43242944.819 9 -43591066.149 8
 86  6 19  1 20 35.0800000  0  4G 6G13G 9G11
  21646412.175    21646414.261     9789184.093 9  -1177851.859 8
  20811237.949    20811240.278    -6001837.501 9   3335063.845 8
  20026076.894    20026077.051    20494303.252 9 -61278649.126 7
  22078023.855    22078027.139    43257806.820 9 -43579485.371 8
 86  6 19  1 20 41.0800000  0  4G 6G13G 9G11
  21649474.170    21649476.327     9805276.602 9  -1165312.246 9
  20809932.587    20809936.201    -6008696.806 9   3329718.936 8
  20025878.879    20025880.326    20493264.508 9 -61279458.543 7
  22080853.033    22080856.180    43272676.136 9 -43567898.888 8
 86  6 19  1 20 47.0800000  0  4G 6G13G 9G11
  21652541.003    21652541.886     9821387.777 9  -1152758.099 8
  20808630.222    20808633.878    -6015536.709 9   3324389.157 8
  20025686.653    20025688.196    20492250.425 9 -61280248.737 7
  22083683.305    22083687.175    43287552.786 9 -43556306.702 7
 86  6 19  1 20 53.0800000  0  4G 6G13G 9G11
  21655611.098    21655610.510     9837517.634 9  -1140189.380 8
  20807331.898    20807336.231    -6022357.272 9   3319074.420 8
  20025498.001    20025497.888    20491261.116 8 -61281019.628 8
  22086516.325    22086519.651    43302436.705 9 -43544708.842 8
 86  6 19  1 20 59.0800000  0  4G 6G13G 9G11
  21658683.194    21658684.136     9853666.113 9  -1127606.161 8
  20806037.837    20806041.389    -6029158.519 9   3313774.761 7
  20025314.254    20025314.704    20490296.661 8 -61281771.136 7
  22089349.766    22089352.685    43317327.948 9 -43533105.283 8
 86  6 19  1 21  5.0800000  0  4G 6G13G 9G11
  21661759.730    21661760.413     9869833.172 9  -1115008.462 8
  20804746.611    20804751.695    -6035940.321 9   3308490.245 7
  20025135.437    20025135.704    20489356.830 9 -61282503.472 7
  22092184.782    22092187.988    43332226.481 8 -43521496.040 8
 86  6 19  1 21 11.0800000  0  4G 6G13G 9G11
  21664839.755    21664839.951     9886018.865 9  -1102396.236 8
  20803460.791    20803464.955    -6042702.774 9   3303220.817 8
  20024960.637    20024961.962    20488441.786 9 -61283216.493 7
  22095021.201    22095023.454    43347132.324 9 -43509881.102 7
 86  6 19  1 21 17.0800000  0  4G 6G13G 9G11
  21667923.643    21667923.169     9902223.127 9  -1089769.538 7
  20802178.067    20802181.869    -6049445.861 9   3297966.462 7
  20024791.273    20024792.481    20487551.266 9 -61283910.409 7
  22097859.235    22097863.013    43362045.423 9 -43498260.510 7
 86  6 19  1 21 23.0800000  0  4G 6G13G 9G11
  21671010.737    21671010.705     9918445.996 9  -1077128.352 8
  20800898.015    20800902.847    -6056169.619 9   3292727.184 8
  20024626.680    20024626.289    20486685.582 8 -61284584.975 7
  22100699.074    22100701.415    43376965.727 9 -43486634.295 7
 86  6 19  1 21 29.0800000  0  4G 6G13G 9G11
  21674101.380    21674101.248     9934687.424 9  -1064472.690 8
  20799622.738    20799626.679    -6062874.055 9   3287502.946 7
  20024466.156    20024465.971    20485844.641 9 -61285240.251 7
  22103539.169    22103542.897    43391893.232 9 -43475002.476 7
 86  6 19  1 21 35.0800000  0  4G 6G13G 9G11
  21677195.571    21677195.182     9950947.385 9  -1051802.601 8
  20798350.015    20798354.579    -6069559.224 9   3282293.719 8
  20024311.693    20024312.309    20485028.387 8 -61285876.289 7
  22106381.170    22106384.188    43406827.917 9 -43463365.070 8
 86  6 19  1 21 41.0800000  0  4G 6G13G 9G11
  21680292.767    21680293.767     9967225.871 9  -1039118.074 8
  20797082.187    20797085.926    -6076225.010 9   3277099.615 8
  20024160.936    20024161.254    20484237.127 9 -61286492.843 7
  22109224.777    22109227.911    43421769.721 9 -43451722.102 8
 86  6 19  1 21 47.0800000  0  4G 6G13G 9G11
  21683394.600    21683394.926     9983522.883 9  -1026419.111 8
  20795818.549    20795820.707    -6082871.449 9   3271920.568 8
  20024016.184    20024015.804    20483470.619 8 -61287090.130 7
  22112068.815    22112072.765    43436718.730 9 -43440073.521 7
 86  6 19  1 21 53.0800000  0  4G 6G13G 9G11
  21686499.295    21686499.034     9999838.432 9  -1013705.698 9
  20794556.379    20794558.475    -6089498.586 9   3266756.568 8
  20023874.674    20023873.680    20482728.888 9 -61287668.104 6
  22114915.128    22114919.328    43451674.853 9 -43428419.407 8
 86  6 19  1 21 59.0800000  0  4G 6G13G 9G11
  21689606.793    21689607.992    10016172.507 9  -1000977.866 8
  20793298.938    20793300.518    -6096106.367 8   3261607.652 8
  20023736.969    20023738.989    20482012.004 8 -61288226.721 7
  22117763.503    22117766.298    43466638.091 9 -43416759.739 8
 86  6 19  1 22  5.0800000  0  4G 6G13G 9G11
  21692717.899    21692719.999    10032525.029 9   -988235.648 8
  20792045.521    20792047.949    -6102694.859 9   3256473.755 8
  20023605.685    20023606.002    20481319.776 8 -61288766.133 8
  22120611.110    22120614.758    43481608.426 9 -43405094.553 8
 86  6 19  1 22 11.0800000  0  4G 6G13G 9G11
  21695833.638    21695834.640    10048895.989 9   -975479.058 8
  20790796.060    20790797.993    -6109264.127 9   3251354.845 8
  20023478.488    20023479.587    20480652.398 9 -61289286.155 6
  22123461.072    22123464.729    43496585.792 9 -43393423.889 8
 86  6 19  1 22 17.0800000  0  4G 6G13G 9G11
  21698952.500    21698953.270    10065285.431 9   -962708.075 7
  20789548.961    20789551.719    -6115813.988 9   3246251.057 8
  20023354.901    20023356.783    20480009.876 8 -61289786.828 7
  22126314.004    22126316.543    43511570.156 9 -43381747.749 8
 86  6 19  1 22 23.0800000  0  4G 6G13G 9G11
  21702074.594    21702075.994    10081693.303 9   -949922.740 8
  20788306.745    20788308.200    -6122344.488 9   3241162.358 8
  20023238.882    20023239.783    20479392.304 8 -61290268.054 7
  22129167.449    22129168.580    43526561.578 9 -43370066.125 7
 86  6 19  1 22 29.0800000  0  4G 6G13G 9G11
  21705201.208    21705201.293    10098119.639 9   -937122.998 7
  20787067.705    20787069.488    -6128855.656 9   3236088.721 7
  20023124.655    20023126.953    20478799.390 8 -61290730.064 8
  22132021.074    22132022.727    43541560.065 9 -43358378.993 8
 86  6 19  1 22 35.0800000  0  4G 6G13G 9G11
  21708329.973    21708331.872    10114564.383 9   -924308.924 7
  20785832.045    20785833.746    -6135347.533 9   3231030.122 8
  20023016.575    20023019.062    20478231.496 8 -61291172.586 7
  22134876.325    22134879.924    43556565.516 9 -43346686.433 8
 86  6 19  1 22 41.0800000  0  4G 6G13G 9G11
  21711463.169    21711464.069    10131027.541 9   -911480.486 8
  20784600.448    20784601.915    -6141820.062 9   3225986.601 8
  20022914.117    20022915.107    20477688.469 8 -61291595.722 8
  22137732.689    22137735.827    43571578.018 9 -43334988.386 7
 86  6 19  1 22 47.0800000  0  4G 6G13G 9G11
  21714599.660    21714600.187    10147509.037 9   -898637.764 8
  20783373.397    20783375.013    -6148273.375 9   3220958.031 7
  20022815.595    20022816.423    20477170.322 8 -61291999.470 7
  22140591.194    22140594.971    43586597.450 9 -43323284.937 8
 86  6 19  1 22 53.0800000  0  4G 6G13G 9G11
  21717739.754    21717741.039    10164008.939 9   -885780.712 9
  20782149.517    20782149.596    -6154707.294 9   3215944.602 8
  20022720.737    20022723.622    20476676.962 8 -61292383.913 7
  22143450.235    22143453.283    43601623.815 9 -43311576.071 9
 86  6 19  1 22 59.0800000  0  4G 6G13G 9G11
  21720883.313    21720884.269    10180527.144 9   -872909.378 8
  20780928.483    20780928.611    -6161121.983 9   3210946.142 7
  20022632.037    20022633.999    20476208.482 8 -61292748.964 7
  22146311.323    22146313.875    43616657.105 9 -43299861.830 8
 86  6 19  1 23  5.0800000  0  4G 6G13G 9G11
  21724030.764    21724031.090    10197063.785 9   -860023.692 8
  20779712.043    20779711.917    -6167517.380 9   3205962.723 8
  20022548.365    20022549.957    20475765.089 8 -61293094.463 7
  22149174.284    22149175.613    43631697.345 9 -43288142.155 8
 86  6 19  1 23 11.0800000  0  4G 6G13G 9G11
  21727180.675    21727181.888    10213618.720 9   -847123.742 9
  20778498.091    20778499.705    -6173893.467 9   3200994.334 7
  20022468.139    20022468.489    20475346.538 8 -61293420.606 7
  22152036.509    22152039.856    43646744.492 9 -43276417.118 8
 86  6 19  1 23 17.0800000  0  4G 6G13G 9G11
  21730334.077    21730335.290    10230191.918 9   -834209.569 8
  20777288.035    20777289.271    -6180250.316 9   3196040.965 6
  20022393.807    20022394.525    20474952.863 8 -61293727.366 7
  22154901.738    22154906.025    43661798.489 9 -43264686.729 8
 86  6 19  1 23 23.0800000  0  4G 6G13G 9G11
  21733491.572    21733492.730    10246783.539 9   -821281.040 9
  20776082.329    20776083.706    -6186587.902 9   3191102.579 7
  20022322.478    20022324.936    20474584.279 9 -61294014.581 7
  22157767.226    22157769.607    43676859.358 9 -43252950.993 7
 86  6 19  1 23 29.0800000  0  4G 6G13G 9G11
  21736651.986    21736653.571    10263393.407 9   -808338.295 8
  20774879.574    20774880.751    -6192906.241 9   3186179.211 8
  20022256.820    20022258.890    20474240.613 8 -61294282.364 7
  22160634.209    22160637.169    43691927.056 9 -43241209.930 8
 86  6 19  1 23 35.0800000  0  4G 6G13G 9G11
  21739815.434    21739817.537    10280021.485 9   -795381.357 9
  20773680.767    20773681.193    -6199205.313 9   3181270.842 8
  20022195.670    20022198.125    20473921.924 9 -61294530.687 6
  22163502.249    22163506.349    43707001.576 9 -43229463.556 8
 86  6 19  1 23 41.0800000  0  4G 6G13G 9G11
  21742982.831    21742985.490    10296667.898 9   -782410.132 9
  20772484.792    20772485.749    -6205485.111 9   3176377.493 8
  20022141.595    20022143.235    20473628.091 8 -61294759.642 7
  22166373.532    22166375.063    43722082.874 9 -43217711.903 9
 86  6 19  1 23 47.0800000  0  4G 6G13G 9G11
  21746153.893    21746156.723    10313332.570 9   -769424.680 8
  20771294.363    20771295.014    -6211745.697 9   3171499.126 8
  20022089.819    20022092.289    20473359.332 9 -61294969.062 7
  22169244.249    22169247.822    43737170.973 9 -43205954.950 8
 86  6 19  1 23 53.0800000  0  4G 6G13G 9G11
  21749328.359    21749331.389    10330015.449 9   -756425.052 9
  20770106.056    20770107.678    -6217987.050 9   3166635.733 8
  20022044.197    20022044.192    20473115.547 8 -61295159.027 7
  22172116.147    22172118.923    43752265.805 9 -43194192.748 8
 86  6 19  1 23 59.0800000  0  4G 6G13G 9G11
  21752507.116    21752508.802    10346716.598 9   -743411.181 8
  20768921.550    20768923.227    -6224209.159 9   3161787.344 7
  20022003.011    20022003.976    20472896.871 9 -61295329.422 7
  22174990.544    22174992.203    43767367.340 9 -43182425.324 8
 86  6 19  1 24  5.0800000  0  4G 6G13G 9G11
  21755688.051    21755691.725    10363435.880 9   -730383.176 8
  20767740.594    20767743.463    -6230412.085 9   3156953.895 8
  20021964.743    20021966.738    20472703.145 9 -61295480.378 8
  22177865.082    22177868.585    43782475.560 9 -43170652.686 8
 86  6 19  1 24 11.0800000  0  4G 6G13G 9G11
  21758873.133    21758875.949    10380173.334 9   -717341.016 8
  20766563.417    20766566.782    -6236595.701 9   3152135.500 8
  20021933.843    20021934.779    20472534.349 8 -61295611.916 7
  22180741.149    22180744.513    43797590.492 9 -43158874.833 9
 86  6 19  1 24 17.0800000  0  4G 6G13G 9G11
  21762062.195    21762064.826    10396928.974 9   -704284.671 8
  20765390.693    20765394.001    -6242760.149 9   3147332.034 8
  20021903.540    20021907.867    20472390.522 8 -61295723.993 7
  22183619.108    22183621.711    43812712.129 9 -43147091.735 9
 86  6 19  1 24 23.0800000  0  4G 6G13G 9G11
  21765254.375    21765256.461    10413702.826 9   -691214.163 9
  20764221.398    20764223.952    -6248905.377 9   3142543.556 8
  20021883.328    20021885.326    20472271.779 9 -61295816.522 8
  22186498.797    22186500.549    43827840.445 9 -43135303.438 8
 86  6 19  1 24 29.0800000  0  4G 6G13G 9G11
  21768449.475    21768451.706    10430494.842 9   -678129.478 9
  20763055.157    20763059.157    -6255031.302 9   3137770.103 8
  20021865.949    20021868.155    20472178.097 8 -61295889.513 7
  22189378.822    22189380.025    43842975.426 9 -43123509.963 7
 86  6 19  1 24 35.0800000  0  4G 6G13G 9G11
  21771648.467    21771650.237    10447304.823 9   -665030.792 8
  20761894.316    20761896.971    -6261138.092 9   3133011.584 8
  20021851.901    20021853.666    20472109.440 8 -61295943.017 8
  22192259.370    22192262.210    43858116.927 9 -43111711.382 8
 86  6 19  1 24 41.0800000  0  4G 6G13G 9G11
  21774850.264    21774852.679    10464133.079 9   -651917.876 9
  20760734.715    20760738.830    -6267225.462 9   3128268.177 8
  20021842.963    20021845.364    20472065.871 8 -61295976.978 7
  22195141.942    22195144.059    43873265.190 9 -43099907.545 8
 86  6 19  1 24 47.0800000  0  4G 6G13G 9G11
  21778056.524    21778057.809    10480979.480 9   -638790.824 9
  20759580.056    20759584.320    -6273293.491 9   3123539.845 8
  20021840.860    20021842.307    20472047.467 8 -61295991.321 7
  22198026.096    22198029.108    43888420.095 9 -43088098.536 8
 86  6 19  1 24 53.0800000  0  4G 6G13G 9G11
  21781265.447    21781267.263    10497843.974 9   -625649.658 9
  20758428.989    20758433.272    -6279342.418 9   3118826.393 8
  20021841.669    20021842.765    20472054.151 8 -61295986.113 7
  22200911.280    22200912.331    43903581.567 9 -43076284.401 8
 86  6 19  1 24 59.0800000  0  4G 6G13G 9G11
  21784479.005    21784479.860    10514726.524 9   -612494.430 7
  20757281.440    20757285.459    -6285372.187 9   3114127.889 8
  20021847.292    20021849.852    20472085.901 8 -61295961.376 7
  22203797.787    22203798.903    43918749.589 9 -43064465.163 8
 86  6 19  1 25  5.0800000  0  4G 6G13G 9G11
  21787694.682    21787696.754    10531627.026 9   -599325.215 8
  20756138.842    20756141.744    -6291382.860 9   3109444.246 8
  20021859.040    20021860.326    20472142.586 9 -61295917.213 6
  22206684.818    22206687.650    43933924.004 9 -43052640.942 8
 86  6 19  1 25 11.0800000  0  4G 6G13G 9G11
  21790913.849    21790916.079    10548545.629 9   -586141.891 8
  20754998.818    20755001.224    -6297374.268 8   3104775.613 7
  20021873.770    20021876.272    20472224.496 9 -61295853.390 7
  22209572.963    22209575.444    43949104.996 9 -43040811.599 8
 86  6 19  1 25 17.0800000  0  4G 6G13G 9G11
  21794136.538    21794138.123    10565482.207 9   -572944.568 9
  20753862.334    20753864.766    -6303346.534 9   3100121.902 8
  20021894.037    20021897.319    20472331.349 8 -61295770.136 8
  22212463.749    22212466.025    43964292.414 9 -43028977.249 8
 86  6 19  1 25 23.0800000  0  4G 6G13G 9G11
  21797363.574    21797364.560    10582436.841 9   -559733.165 9
  20752729.464    20752732.426    -6309299.617 9   3095483.128 8
  20021919.630    20021922.322    20472463.460 9 -61295667.186 7
  22215355.673    22215357.626    43979486.330 9 -43017137.845 8
 86  6 19  1 25 29.0800000  0  4G 6G13G 9G11
  21800592.846    21800594.560    10599409.454 9   -546507.766 8
  20751600.033    20751603.058    -6315233.541 9   3090859.292 7
  20021949.154    20021952.808    20472620.641 9 -61295544.714 7
  22218248.607    22218250.244    43994686.704 9 -43005293.400 8
 86  6 19  1 25 35.0800000  0  4G 6G13G 9G11
  21803825.750    21803827.981    10616400.039 9   -533268.358 8
  20750474.318    20750477.907    -6321148.309 9   3086250.383 8
  20021983.293    20021986.965    20472802.990 9 -61295402.627 7
  22221143.019    22221144.950    44009893.540 9 -42993443.928 8
 86  6 19  1 25 41.0800000  0  4G 6G13G 9G11
  21807062.776    21807065.190    10633408.619 9   -520014.943 8
  20749353.558    20749356.159    -6327043.901 9   3081656.419 8
  20022023.942    20022026.154    20473010.477 8 -61295240.955 7
  22224037.039    22224039.371    44025106.788 9 -42981589.447 9
 86  6 19  1 25 47.0800000  0  4G 6G13G 9G11
  21810302.291    21810304.605    10650435.110 9   -506747.547 8
  20748235.264    20748237.861    -6332920.396 9   3077077.346 8
  20022069.293    20022069.976    20473243.104 9 -61295059.686 7
  22226933.635    22226935.958    44040326.386 9 -42969730.028 8
 86  6 19  1 25 53.0800000  0  4G 6G13G 9G11
  21813545.928    21813548.429    10667479.594 9   -493466.133 9
  20747120.967    20747122.847    -6338777.693 9   3072513.208 8
  20022118.661    20022119.504    20473500.852 9 -61294858.857 8
  22229831.411    22229832.821    44055552.376 9 -42957865.626 8
 86  6 19  1 25 59.0800000  0  4G 6G13G 9G11
  21816792.827    21816793.983    10684541.936 9   -480170.819 8
  20746009.883    20746012.330    -6344615.885 9   3067963.981 7
  20022171.752    20022172.495    20473783.776 9 -61294638.392 7
  22232729.608    22232732.428    44070784.716 9 -42945996.267 7
 86  6 19  1 26  5.0800000  0  4G 6G13G 9G11
  21820043.104    21820045.591    10701622.231 9   -466861.509 9
  20744902.100    20744904.788    -6350435.055 9   3063429.564 9
  20022230.607    20022232.133    20474091.845 8 -61294398.336 8
  22235630.240    22235631.505    44086023.365 9 -42934122.003 8
 86  6 19  1 26 11.0800000  0  4G 6G13G 9G11
  21823296.671    21823299.430    10718720.392 9   -453538.284 8
  20743798.619    20743800.348    -6356235.096 9   3058910.048 7
  20022293.253    20022294.115    20474425.063 9 -61294138.687 8
  22238530.470    22238532.766    44101268.325 9 -42922242.820 8
 86  6 19  1 26 17.0800000  0  4G 6G13G 9G11
  21826554.388    21826556.143    10735836.447 9   -440201.106 9
  20742699.460    20742699.933    -6362015.965 9   3054405.478 7
  20022361.985    20022363.114    20474783.544 9 -61293859.358 8
  22241432.925    22241435.634    44116519.641 9 -42910358.677 8
 86  6 19  1 26 23.0800000  0  4G 6G13G 9G11
  21829814.650    21829815.978    10752970.350 9   -426850.020 8
  20741603.006    20741604.220    -6367777.644 9   3049915.872 8
  20022435.126    20022435.740    20475167.225 9 -61293560.381 7
  22244336.116    22244340.195    44131777.241 9 -42898469.640 8
 86  6 19  1 26 29.0800000  0  4G 6G13G 9G11
  21833078.664    21833081.522    10770122.165 8   -413484.972 8
  20740509.845    20740510.270    -6373520.168 9   3045441.183 8
  20022513.405    20022512.773    20475576.044 8 -61293241.816 8
  22247241.083    22247243.780    44147041.090 9 -42886575.733 8
 86  6 19  1 26 35.0800000  0  4G 6G13G 9G11
  21836345.481    21836348.097    10787291.818 9   -400106.018 8
  20739420.423    20739422.386    -6379243.590 9   3040981.368 8
  20022595.196    20022597.374    20476010.047 9 -61292903.624 7
  22250146.429    22250148.875    44162311.242 9 -42874676.924 8
 86  6 19  1 26 41.0800000  0  4G 6G13G 9G11
  21839615.962    21839618.219    10804479.232 9   -386713.236 8
  20738334.910    20738335.867    -6384947.868 9   3036536.471 7
  20022682.677    20022682.763    20476469.334 9 -61292545.743 7
  22253053.070    22253055.945    44177587.650 9 -42862773.217 8
 86  6 19  1 26 47.0800000  0  4G 6G13G 9G11
  21842889.705    21842891.691    10821684.465 9   -373306.566 9
  20737253.250    20737254.995    -6390633.030 9   3032106.477 8
  20022774.595    20022776.241    20476953.848 9 -61292168.188 7
  22255961.563    22255965.034    44192870.243 9 -42850864.720 8
 86  6 19  1 26 53.0800000  0  4G 6G13G 9G11
  21846167.770    21846170.256    10838907.448 9   -359886.063 7
  20736174.204    20736176.725    -6396299.149 9   3027691.333 8
  20022871.146    20022873.742    20477463.594 8 -61291770.998 7
  22258870.743    22258873.956    44208159.003 9 -42838951.396 8
 86  6 19  1 26 59.0800000  0  4G 6G13G 9G11
  21849447.865    21849451.068    10856148.210 9   -346451.707 8
  20735100.081    20735101.007    -6401946.131 9   3023291.083 8
  20022973.812    20022974.991    20477998.498 9 -61291354.180 7
  22261780.832    22261784.381    44223453.952 9 -42827033.270 9
 86  6 19  1 27  5.0800000  0  4G 6G13G 9G11
  21852731.654    21852735.371    10873406.739 9   -333003.519 8
  20734028.459    20734031.185    -6407573.997 9   3018905.730 8
  20023079.013    20023081.777    20478558.626 9 -61290917.727 7
  22264693.527    22264696.509    44238755.063 9 -42815110.328 8
 86  6 19  1 27 11.0800000  0  4G 6G13G 9G11
  21856019.333    21856022.909    10890682.996 9   -319541.491 8
  20732961.566    20732963.779    -6413182.770 9   3014535.259 8
  20023190.142    20023192.584    20479144.090 8 -61290461.519 7
  22267606.328    22267609.597    44254062.305 9 -42803182.615 8
 86  6 19  1 27 17.0800000  0  4G 6G13G 9G11
  21859310.048    21859313.422    10907976.994 8   -306065.654 8
  20731897.385    20731899.964    -6418772.536 9   3010179.603 8
  20023307.134    20023308.213    20479754.792 8 -61289985.657 8
  22270520.036    22270523.441    44269375.677 9 -42791250.127 8
 86  6 19  1 27 23.0800000  0  4G 6G13G 9G11
  21862604.396    21862608.343    10925288.716 8   -292576.020 9
  20730836.867    20730839.612    -6424343.248 9   3005838.800 8
  20023428.205    20023430.361    20480390.778 9 -61289490.092 8
  22273435.234    22273438.266    44284695.139 9 -42779312.882 7
 86  6 19  1 27 29.0800000  0  4G 6G13G 9G11
  21865901.177    21865905.825    10942618.115 9   -279072.610 9
  20729780.300    20729783.901    -6429894.868 9   3001512.856 8
  20023553.844    20023554.107    20481051.948 9 -61288974.872 6
  22276351.318    22276354.623    44300020.696 9 -42767370.888 9
 86  6 19  1 27 35.0800000  0  4G 6G13G 9G11
  21869202.424    21869205.982    10959965.159 9   -265555.440 8
  20728728.117    20728730.732    -6435427.458 9   2997201.754 8
  20023683.976    20023686.186    20481738.422 8 -61288439.964 6
  22279268.626    22279271.660    44315352.331 9 -42755424.173 9
 86  6 19  1 27 41.0800000  0  4G 6G13G 9G11
  21872505.842    21872511.648    10977329.839 8   -252024.524 9
  20727677.941    20727681.114    -6440941.049 9   2992905.452 8
  20023821.508    20023820.365    20482450.120 9 -61287885.394 6
  22282187.430    22282190.635    44330689.952 9 -42743472.782 8
 86  6 19  1 27 47.0800000  0  4G 6G13G 9G11
  21875814.357    21875819.204    10994712.074 9   -238479.932 8
  20726633.101    20726636.225    -6446435.780 9   2988623.864 8
  20023959.527    20023961.165    20483187.107 8 -61287311.112 6
  22285106.468    22285110.474    44346033.493 9 -42731516.775 8
 86  6 19  1 27 53.0800000  0  4G 6G13G 9G11
  21879126.449    21879129.796    11012112.045 9   -224921.535 8
  20725591.168    20725593.476    -6451911.367 9   2984357.173 8
  20024105.708    20024106.390    20483949.413 8 -61286717.114 7
  22288027.976    22288031.610    44361383.176 9 -42719555.988 8
 86  6 19  1 27 59.0800000  0  4G 6G13G 9G11
  21882441.259    21882444.061    11029529.605 9   -211349.414 8
  20724552.800    20724554.638    -6457367.951 9   2980105.292 8
  20024255.840    20024255.362    20484737.074 8 -61286103.373 7
  22290949.341    22290953.634    44376738.863 9 -42707590.530 9
 86  6 19  1 28  5.0800000  0  4G 6G13G 9G11
  21885758.845    21885761.876    11046964.783 9   -197763.576 8
  20723518.790    20723521.072    -6462805.499 9   2975868.262 7
  20024411.568    20024411.524    20485549.997 8 -61285469.903 6
  22293872.990    22293875.857    44392100.532 9 -42695620.396 9
 86  6 19  1 28 11.0800000  0  4G 6G13G 9G11
  21889080.210    21889082.483    11064417.564 9   -184163.999 8
  20722487.248    20722489.545    -6468223.961 9   2971646.078 7
  20024571.001    20024570.205    20486388.202 9 -61284816.761 7
  22296797.745    22296800.134    44407468.163 9 -42683645.630 9
 86  6 19  1 28 17.0800000  0  4G 6G13G 9G11
  21892404.951    21892406.723    11081887.925 9   -170550.750 8
  20721459.525    20721462.301    -6473623.402 9   2967438.733 9
  20024734.956    20024734.753    20487251.827 9 -61284143.819 6
  22299723.001    22299725.849    44422841.734 9 -42671666.225 8
 86  6 19  1 28 23.0800000  0  4G 6G13G 9G11
  21895732.841    21895734.812    11099375.853 9   -156923.801 9
  20720435.559    20720438.751    -6479003.846 9   2963246.173 9
  20024903.649    20024902.072    20488140.720 9 -61283451.173 7
  22302649.891    22302652.150    44438221.273 9 -42659682.163 9
 86  6 19  1 28 29.0800000  0  4G 6G13G 9G11
  21899064.706    21899064.905    11116881.244 9   -143283.242 8
  20719414.821    20719417.997    -6484365.252 9   2959068.470 9
  20025078.266    20025078.822    20489054.922 9 -61282738.817 7
  22305578.067    22305580.355    44453606.668 9 -42647693.548 8
 86  6 19  1 28 35.0800000  0  4G 6G13G 9G11
  21902399.950    21902399.532    11134404.226 9   -129628.962 8
  20718398.146    20718401.688    -6489707.573 9   2954905.613 9
  20025256.337    20025256.971    20489994.476 7 -61282006.685 7
  22308507.387    22308509.948    44468998.018 9 -42635700.285 8
 86  6 19  1 28 41.0800000  0  4G 6G13G 9G11
  21905738.515    21905738.454    11151944.702 9   -115961.072 8
  20717384.925    20717387.870    -6495030.939 9   2950757.555 7
  20025439.495    20025439.309    20490959.422 8 -61281254.798 6
  22311436.814    22311439.161    44484395.207 9 -42623702.483 8
 86  6 19  1 28 47.0800000  0  4G 6G13G 9G11
  21909078.738    21909080.265    11169502.615 9   -102279.589 8
  20716375.370    20716379.612    -6500335.412 9   2946624.195 8
  20025629.446    20025628.560    20491949.639 8 -61280483.191 7
  22314367.801    22314369.997    44499798.158 9 -42611700.188 8
 86  6 19  1 28 53.0800000  0  4G 6G13G 9G11
  21912423.454    21912423.709    11187078.061 9    -88584.426 8
  20715370.292    20715372.972    -6505620.831 9   2942505.685 8
  20025821.949    20025822.186    20492965.354 9 -61279691.744 6
  22317300.106    22317303.305    44515206.958 9 -42599693.332 8
 86  6 19  1 28 59.0800000  0  4G 6G13G 9G11
  21915770.947    21915772.777    11204670.961 9    -74875.695 7
  20714368.270    20714371.263    -6510887.220 9   2938402.000 7
  20026019.981    20026021.282    20494006.491 8 -61278880.459 7
  22320233.963    22320236.445    44530621.658 9 -42587681.884 9
 86  6 19  1 29  5.0800000  0  4G 6G13G 9G11
  21919122.447    21919123.373    11222281.325 9    -61153.329 8
  20713369.962    20713372.649    -6516134.719 9   2934313.039 8
  20026222.685    20026223.913    20495072.955 8 -61278049.468 8
  22323168.579    22323170.352    44546042.065 9 -42575665.988 8
 86  6 19  1 29 11.0800000  0  4G 6G13G 9G11
  21922476.408    21922478.422    11239909.145 9    -47417.375 8
  20712375.148    20712378.106    -6521363.191 9   2930238.910 9
  20026430.192    20026432.375    20496164.853 9 -61277198.652 7
  22326104.539    22326106.633    44561468.279 9 -42563645.555 9
 86  6 19  1 29 17.0800000  0  4G 6G13G 9G11
  21925833.659    21925835.873    11257554.409 9    -33667.826 8
  20711384.104    20711386.730    -6526572.692 9   2926179.568 8
  20026642.925    20026643.123    20497282.100 9 -61276328.060 7
  22329040.913    22329043.116    44576900.277 9 -42551620.627 8
 86  6 19  1 29 23.0800000  0  4G 6G13G 9G11
  21929195.719    21929197.017    11275217.077 9    -19904.721 9
  20710396.576    20710399.294    -6531763.185 9   2922135.028 9
  20026859.902    20026862.262    20498424.841 9 -61275437.625 7
  22331978.520    22331980.243    44592338.007 9 -42539591.231 9
 86  6 19  1 29 29.0800000  0  4G 6G13G 9G11
  21932559.753    21932562.440    11292897.120 9     -6128.081 7
  20709412.583    20709414.806    -6536934.750 9   2918105.231 7
  20027083.066    20027084.725    20499592.947 9 -61274527.415 8
  22334917.119    22334919.287    44607781.459 9 -42527557.379 9
 86  6 19  1 29 35.0800000  0  4G 6G13G 9G11
  21935926.819    21935930.308    11310594.508 9      7662.084 8
  20708432.683    20708434.486    -6542087.363 9   2914090.221 8
  20027309.623    20027311.539    20500786.456 8 -61273597.411 7
  22337857.944    22337858.874    44623230.566 9 -42515519.110 8
 86  6 19  1 29 41.0800000  0  4G 6G13G 9G11
  21939297.636    21939301.340    11328309.245 9     21465.773 8
  20707455.176    20707458.714    -6547221.028 9   2910089.954 8
  20027541.995    20027543.723    20502005.423 9 -61272647.565 7
  22340797.896    22340799.949    44638685.364 9 -42503476.416 8
 86  6 19  1 29 47.0800000  0  4G 6G13G 9G11
  21942672.373    21942675.289    11346041.367 9     35282.991 9
  20706483.124    20706484.248    -6552335.763 9   2906104.454 8
  20027779.454    20027779.918    20503249.813 8 -61271677.916 7
  22343739.896    22343742.242    44654145.872 9 -42491429.273 9
 86  6 19  1 29 53.0800000  0  4G 6G13G 9G11
  21946050.660    21946052.173    11363790.777 9     49113.700 8
  20705512.708    20705514.489    -6557431.600 9   2902133.670 9
  20028020.158    20028020.169    20504519.641 8 -61270688.448 7
  22346683.233    22346685.256    44669611.976 9 -42479377.776 8
 86  6 19  1 29 59.0800000  0  4G 6G13G 9G11
  21949430.805    21949433.321    11381557.501 9     62957.889 8
  20704546.976    20704547.295    -6562508.538 9   2898177.623 7
  20028267.347    20028267.856    20505814.815 8 -61269679.227 7
  22349626.840    22349629.829    44685083.742 9 -42467321.858 9
 86  6 19  1 30  5.0800000  0  4G 6G13G 9G11
  21952815.417    21952816.958    11399341.508 9     76815.549 9
  20703583.879    20703585.692    -6567566.623 9   2894236.261 7
  20028518.919    20028518.678    20507135.527 8 -61268650.071 8
  22352571.765    22352574.855    44700561.173 9 -42455261.516 9
 86  6 19  1 30 11.0800000  0  4G 6G13G 9G11
  21956202.287    21956204.619    11417142.788 9     90686.660 8
  20702625.353    20702624.928    -6572605.711 9   2890309.707 8
  20028774.354    20028774.282    20508481.717 8 -61267601.102 7
  22355518.543    22355521.469    44716044.216 9 -42443196.818 9
 86  6 19  1 30 17.0800000  0  4G 6G13G 9G11
  21959594.053    21959594.980    11434961.280 9    104571.202 8
  20701670.516    20701670.286    -6577625.866 9   2886397.907 8
  20029035.894    20029036.790    20509853.277 9 -61266532.357 8
  22358466.667    22358468.620    44731532.832 9 -42431127.771 8
 86  6 19  1 30 23.0800000  0  4G 6G13G 9G11
  21962987.993    21962990.080    11452797.063 9    118469.211 8
  20700717.880    20700718.448    -6582627.114 9   2882500.826 7
  20029302.125    20029303.035    20511250.305 9 -61265443.770 7
  22361415.075    22361416.850    44747027.053 9 -42419054.353 8
 86  6 19  1 30 29.0800000  0  4G 6G13G 9G11
  21966384.768    21966386.911    11470650.073 9    132380.635 8
  20699769.982    20699771.036    -6587609.489 9   2878618.468 8
  20029570.991    20029573.515    20512672.764 8 -61264335.342 8
  22364364.122    22364366.416    44762526.836 9 -42406976.603 8
 86  6 19  1 30 35.0800000  0  4G 6G13G 9G11
  21969785.863    21969787.591    11488520.282 9    146305.479 9
  20698824.946    20698826.369    -6592572.936 9   2874750.844 7
  20029847.044    20029848.704    20514120.746 8 -61263207.061 7
  22367314.633    22367316.852    44778032.102 9 -42394894.573 9
 86  6 19  1 30 41.0800000  0  4G 6G13G 9G11
  21973189.046    21973192.021    11506407.690 9    160243.709 8
  20697884.028    20697885.158    -6597517.535 9   2870897.910 8
  20030126.638    20030129.825    20515594.247 9 -61262058.861 7
  22370266.707    22370268.436    44793542.858 9 -42382808.280 9
 86  6 19  1 30 47.0800000  0  4G 6G13G 9G11
  21976596.523    21976599.367    11524312.225 9    174195.288 8
  20696946.794    20696947.746    -6602443.220 9   2867059.729 8
  20030412.069    20030414.474    20517093.260 9 -61260890.809 7
  22373219.666    22373221.182    44809059.144 9 -42370717.659 9
 86  6 19  1 30 53.0800000  0  4G 6G13G 9G11
  21980007.348    21980009.277    11542233.972 9    188160.281 8
  20696013.405    20696014.021    -6607350.073 9   2863236.202 8
  20030703.020    20030705.362    20518617.788 9 -61259702.863 7
  22376173.333    22376175.694    44824580.920 9 -42358622.774 8
 86  6 19  1 30 59.0800000  0  4G 6G13G 9G11
  21983420.148    21983422.391    11560172.868 9    202138.632 9
  20695082.568    20695084.282    -6612238.100 9   2859427.363 8
  20030998.095    20030998.973    20520167.645 8 -61258495.170 7
  22379127.188    22379129.862    44840108.153 9 -42346523.633 8
 86  6 19  1 31  5.0800000  0  4G 6G13G 9G11
  21986837.641    21986840.041    11578128.893 9    216130.344 8
  20694156.037    20694156.672    -6617107.243 9   2855633.229 7
  20031297.951    20031299.508    20521743.118 8 -61257267.542 8
  22382082.536    22382085.970    44855640.770 9 -42334420.304 9
 86  6 19  1 31 11.0800000  0  4G 6G13G 9G11
  21990257.280    21990260.025    11596102.020 9    230135.372 9
  20693232.755    20693234.301    -6621957.550 9   2851853.781 9
  20031603.316    20031604.746    20523344.140 8 -61256019.993 7
  22385039.809    22385043.710    44871178.763 9 -42322312.788 8
 86  6 19  1 31 17.0800000  0  4G 6G13G 9G11
  21993681.299    21993682.841    11614092.238 9    244153.715 9
  20692313.268    20692314.489    -6626789.033 9   2848088.992 7
  20031912.431    20031915.146    20524970.579 9 -61254752.632 8
  22387997.906    22388000.868    44886722.159 9 -42310201.050 9
 86  6 19  1 31 23.0800000  0  4G 6G13G 9G11
  21997108.093    21997109.606    11632099.479 9    258185.317 8
  20691396.982    20691399.398    -6631601.767 9   2844338.799 8
  20032227.747    20032228.487    20526622.486 9 -61253465.424 7
  22390956.689    22390959.901    44902270.974 9 -42298085.105 9
 86  6 19  1 31 29.0800000  0  4G 6G13G 9G11
  22000538.178    22000539.448    11650123.799 9    272230.231 9
  20690485.302    20690487.476    -6636395.700 9   2840603.280 8
  20032546.103    20032547.701    20528300.018 9 -61252158.262 7
  22393916.709    22393920.223    44917825.127 9 -42285964.994 9
 86  6 19  1 31 35.0800000  0  4G 6G13G 9G11
  22003971.413    22003971.752    11668165.106 9    286288.398 8
  20689576.246    20689578.553    -6641170.850 9   2836882.383 8
  20032870.152    20032871.588    20530002.925 9 -61250831.318 7
  22396877.096    22396880.337    44933384.525 9 -42273840.791 9
 86  6 19  1 31 41.0800000  0  4G 6G13G 9G11
  22007406.733    22007409.521    11686223.510 9    300359.869 8
  20688671.944    20688672.650    -6645927.091 9   2833176.232 8
  20033198.937    20033200.648    20531731.447 8 -61249484.410 8
  22399839.193    22399842.441    44948949.305 9 -42261712.402 9
 86  6 19  1 31 47.0800000  0  4G 6G13G 9G11
  22010846.951    22010847.605    11704298.853 9    314444.542 8
  20687770.351    20687771.661    -6650664.479 9   2829484.763 8
  20033532.831    20033534.764    20533485.539 8 -61248117.591 8
  22402802.031    22402805.524    44964519.366 9 -42249579.891 9
 86  6 19  1 31 53.0800000  0  4G 6G13G 9G11
  22014289.972    22014291.871    11722391.256 9    328542.516 8
  20686871.813    20686873.037    -6655383.131 9   2825807.893 8
  20033871.730    20033873.380    20535265.235 8 -61246730.817 8
  22405765.895    22405768.779    44980094.705 9 -42237443.258 8
 86  6 19  1 31 59.0800000  0  4G 6G13G 9G11
  22017735.167    22017737.081    11740500.646 9    342653.716 8
  20685977.964    20685979.549    -6660083.057 9   2822145.616 8
  20034214.615    20034217.185    20537070.372 9 -61245324.223 8
  22408731.719    22408733.213    44995675.356 9 -42225302.504 9
 86  6 19  1 32  5.0800000  0  4G 6G13G 9G11
  22021185.085    22021186.155    11758626.896 8    356778.061 7
  20685087.085    20685088.598    -6664764.233 9   2818497.938 7
  20034563.294    20034564.720    20538901.054 9 -61243897.714 8
  22411696.611    22411700.532    45011261.214 9 -42213157.682 8
 86  6 19  1 32 11.0800000  0  4G 6G13G 9G11
  22024636.977    22024637.918    11776770.132 9    370915.644 8
  20684199.822    20684201.765    -6669426.660 9   2814864.883 8
  20034917.465    20034919.223    20540757.300 9 -61242451.290 8
  22414663.766    22414666.277    45026852.317 9 -42201008.785 8
 86  6 19  1 32 17.0800000  0  4G 6G13G 9G11
  22028093.421    22028094.919    11794930.395 9    385066.477 7
  20683315.893    20683318.255    -6674070.220 9   2811246.521 8
  20035275.068    20035275.142    20542639.187 9 -61240984.897 7
  22417631.486    22417633.962    45042448.730 9 -42188855.731 9
 86  6 19  1 32 23.0800000  0  4G 6G13G 9G11
  22031551.408    22031554.024    11813107.519 9    399230.476 8
  20682436.014    20682439.226    -6678695.010 9   2807642.789 8
  20035637.893    20035638.182    20544546.618 7 -61239498.571 8
  22420600.707    22420602.623    45058050.326 9 -42176698.653 8
 86  6 19  1 32 29.0800000  0  4G 6G13G 9G11
  22035013.946    22035015.603    11831301.562 9    413407.648 8
  20681559.702    20681562.768    -6683301.015 9   2804053.691 8
  20036005.769    20036006.318    20546479.512 9 -61237992.419 7
  22423570.008    22423572.605    45073657.159 9 -42164537.494 8
 86  6 19  1 32 35.0800000  0  4G 6G13G 9G11
  22038479.576    22038480.719    11849512.459 9    427597.944 8
  20680686.449    20680690.772    -6687888.309 9   2800479.182 7
  20036379.091    20036379.395    20548438.159 9 -61236466.201 7
  22426540.775    22426543.264    45089269.146 9 -42152372.301 9
 86  6 19  1 32 41.0800000  0  4G 6G13G 9G11
  22041947.810    22041950.255    11867740.246 9    441801.412 8
  20679817.357    20679819.501    -6692456.942 9   2796919.214 9
  20036755.815    20036756.812    20550422.396 9 -61234920.065 6
  22429512.444    22429516.334    45104886.341 9 -42140203.067 8
 86  6 19  1 32 47.0800000  0  4G 6G13G 9G11
  22045420.622    22045422.251    11885984.869 9    456017.993 9
  20678951.620    20678954.355    -6697006.823 9   2793373.854 8
  20037138.264    20037140.610    20552432.228 9 -61233353.970 7
  22432485.129    22432487.946    45120508.626 9 -42128029.866 9
 86  6 19  1 32 53.0800000  0  4G 6G13G 9G11
  22048895.123    22048897.324    11904246.255 9    470247.630 8
  20678089.445    20678092.118    -6701538.107 9   2789842.986 7
  20037525.175    20037527.825    20554467.521 9 -61231768.014 7
  22435459.028    22435462.406    45136135.959 9 -42115852.725 8
 86  6 19  1 32 59.0800000  0  4G 6G13G 9G11
  22052373.516    22052375.745    11922524.480 9    484490.396 8
  20677230.418    20677233.223    -6706050.673 9   2786326.711 7
  20037917.325    20037918.367    20556528.523 8 -61230162.050 8
  22438433.466    22438436.843    45151768.362 9 -42103671.634 8
 86  6 19  1 33  5.0800000  0  4G 6G13G 9G11
  22055854.170    22055857.201    11940819.461 9    498746.223 8
  20676375.353    20676378.045    -6710544.553 9   2782824.980 8
  20038314.434    20038315.692    20558615.013 9 -61228536.225 7
  22441409.236    22441412.876    45167405.887 9 -42091486.557 8
 86  6 19  1 33 11.0800000  0  4G 6G13G 9G11
  22059339.604    22059342.133    11959131.265 9    513015.153 8
  20675523.450    20675525.522    -6715019.719 9   2779337.847 8
  20038716.677    20038716.354    20560727.235 9 -61226890.334 7
  22444386.750    22444388.494    45183048.490 9 -42079297.526 8
 86  6 19  1 33 17.0800000  0  4G 6G13G 9G11
  22062827.154    22062830.142    11977459.793 9    527297.112 8
  20674675.701    20674676.752    -6719476.149 9   2775865.312 8
  20039123.670    20039124.965    20562865.050 9 -61225224.492 7
  22447364.176    22447366.881    45198696.133 9 -42067104.558 8
 86  6 19  1 33 23.0800000  0  4G 6G13G 9G11
  22066317.768    22066320.755    11995805.075 9    541592.124 9
  20673832.318    20673832.205    -6723913.876 9   2772407.344 8
  20039535.296    20039535.914    20565028.365 9 -61223538.798 7
  22450341.533    22450345.789    45214348.747 9 -42054907.724 8
 86  6 19  1 33 29.0800000  0  4G 6G13G 9G11
  22069812.445    22069815.433    12014167.049 9    555900.153 8
  20672989.946    20672991.224    -6728332.904 9   2768963.948 8
  20039951.829    20039952.572    20567217.369 9 -61221833.074 8
  22453322.216    22453324.572    45230006.321 9 -42042707.018 8
 86  6 19  1 33 35.0800000  0  4G 6G13G 9G11
  22073308.896    22073312.085    12032545.796 9    570221.266 7
  20672152.971    20672153.926    -6732733.240 9   2765535.120 8
  20040373.075    20040373.101    20569432.031 9 -61220107.372 7
  22456302.514    22456305.740    45245668.961 9 -42030502.383 9
 86  6 19  1 33 41.0800000  0  4G 6G13G 9G11
  22076810.671    22076811.626    12050941.180 9    584555.307 9
  20671319.295    20671319.643    -6737114.945 9   2762120.805 8
  20040800.580    20040799.325    20571672.275 9 -61218361.738 7
  22459283.220    22459287.411    45261336.558 9 -42018293.850 8
 86  6 19  1 33 47.0800000  0  4G 6G13G 9G11
  22080313.847    22080316.319    12069353.270 9    598902.378 8
  20670488.693    20670490.511    -6741478.043 9   2758721.001 7
  20041230.968    20041230.776    20573938.147 9 -61216596.122 7
  22462265.440    22462269.233    45277009.057 9 -42006081.526 8
 86  6 19  1 33 53.0800000  0  4G 6G13G 9G11
  22083819.943    22083824.031    12087781.988 9    613262.418 8
  20669661.879    20669662.960    -6745822.510 9   2755335.701 8
  20041665.771    20041666.899    20576229.635 9 -61214810.542 7
  22465249.644    22465252.519    45292686.492 9 -41993865.338 9
 86  6 19  1 33 59.0800000  0  4G 6G13G 9G11
  22087330.904    22087333.720    12106227.329 9    627635.397 8
  20668839.052    20668840.528    -6750148.324 9   2751964.934 8
  20042107.107    20042108.012    20578546.792 9 -61213004.958 7
  22468232.710    22468236.267    45308368.843 9 -41981645.334 7
 86  6 19  1 34  5.0800000  0  4G 6G13G 9G11
  22090843.638    22090845.955    12124689.318 9    642021.357 8
  20668019.387    20668020.487    -6754455.480 9   2748608.717 8
  20042553.876    20042555.976    20580889.550 9 -61211179.438 7
  22471218.853    22471221.951    45324056.137 9 -41969421.473 9
 86  6 19  1 34 11.0800000  0  4G 6G13G 9G11
  22094360.924    22094362.639    12143167.911 9    656420.242 8
  20667203.644    20667203.941    -6758743.978 9   2745267.027 8
  20043003.087    20043006.045    20583257.979 9 -61209333.912 8
  22474204.552    22474207.677    45339748.337 9 -41957193.789 8
 86  6 19  1 34 17.0800000  0  4G 6G13G 9G11
  22097880.299    22097881.712    12161663.177 9    670832.137 8
  20666391.036    20666393.239    -6763013.759 9   2741939.941 8
  20043460.192    20043460.572    20585652.182 9 -61207468.311 7
  22477191.611    22477195.451    45355445.403 9 -41944962.310 8
 86  6 19  1 34 23.0800000  0  4G 6G13G 9G11
  22101403.709    22101405.467    12180174.987 9    685256.926 7
  20665582.549    20665583.597    -6767264.976 9   2738627.292 8
  20043920.526    20043921.151    20588071.965 8 -61205582.766 7
  22480179.764    22480182.093    45371147.349 8 -41932727.034 8
 86  6 19  1 34 29.0800000  0  4G 6G13G 9G11
  22104929.123    22104931.395    12198703.341 9    699694.598 8
  20664777.197    20664779.060    -6771497.568 9   2735329.169 8
  20044385.615    20044387.131    20590517.398 9 -61203677.239 7
  22483168.194    22483172.336    45386854.131 9 -41920487.975 8
 86  6 19  1 34 35.0800000  0  4G 6G13G 9G11
  22108458.514    22108459.883    12217248.261 9    714145.171 8
  20663975.327    20663977.634    -6775711.557 9   2732045.565 7
  20044856.559    20044856.647    20592988.591 9 -61201751.643 7
  22486157.921    22486161.914    45402565.744 9 -41908245.186 8
 86  6 19  1 34 41.0800000  0  4G 6G13G 9G11
  22111991.568    22111991.108    12235809.650 9    728608.593 9
  20663176.119    20663177.614    -6779906.919 9   2728776.443 8
  20045331.228    20045332.536    20595485.432 9 -61199806.062 8
  22489149.115    22489152.598    45418282.163 9 -41895998.618 9
 86  6 19  1 34 47.0800000  0  4G 6G13G 9G11
  22115525.481    22115526.566    12254387.521 9    743084.832 8
  20662381.541    20662383.622    -6784083.749 9   2725521.782 8
  20045810.979    20045811.780    20598007.824 9 -61197840.565 7
  22492141.040    22492144.523    45434003.380 8 -41883748.335 7
 86  6 19  1 34 53.0800000  0  4G 6G13G 9G11
  22119064.287    22119064.771    12272981.891 9    757573.956 8
  20661590.058    20661591.841    -6788242.067 9   2722281.542 8
  20046295.720    20046295.858    20600556.003 9 -61195854.970 7
  22495133.298    22495136.110    45449729.385 9 -41871494.307 8
 86  6 19  1 34 59.0800000  0  4G 6G13G 9G11
  22122605.583    22122606.726    12291592.793 9    772075.956 8
  20660801.960    20660804.822    -6792381.757 9   2719055.805 8
  20046784.485    20046785.989    20603129.824 9 -61193849.403 7
  22498126.367    22498129.536    45465460.139 9 -41859236.581 8
 86  6 19  1 35  5.0800000  0  4G 6G13G 9G11
  22126150.055    22126151.385    12310220.166 9    786590.782 8
  20660017.713    20660020.239    -6796502.859 9   2715844.571 8
  20047279.018    20047280.340    20605729.416 8 -61191823.758 7
  22501120.286    22501123.713    45481195.645 9 -41846975.145 8
 86  6 19  1 35 11.0800000  0  4G 6G13G 9G11
  22129698.536    22129699.219    12328863.925 9    801118.376 9
  20659236.572    20659240.385    -6800605.484 9   2712647.716 7
  20047779.145    20047781.315    20608354.598 9 -61189778.158 7
  22504116.038    22504119.692    45496935.844 9 -41834710.065 7
 86  6 19  1 35 17.0800000  0  4G 6G13G 9G11
  22133249.333    22133250.761    12347524.086 9    815658.744 8
  20658459.774    20658462.069    -6804689.610 9   2709465.286 8
  20048283.968    20048286.097    20611005.443 9 -61187712.568 7
  22507113.040    22507114.964    45512680.736 8 -41822441.325 8
 86  6 19  1 35 23.0800000  0  4G 6G13G 9G11
  22136802.076    22136803.619    12366200.632 9    830211.882 8
  20657685.702    20657688.336    -6808755.156 9   2706297.333 7
  20048793.150    20048796.667    20613681.971 9 -61185626.973 6
  22510108.641    22510112.927    45528430.318 9 -41810168.934 8
 86  6 19  1 35 29.0800000  0  4G 6G13G 9G11
  22140359.628    22140361.186    12384893.595 9    844777.822 9
  20656916.132    20656918.318    -6812802.189 9   2703143.799 7
  20049306.286    20049309.612    20616384.242 8 -61183521.300 7
  22513107.370    22513110.886    45544184.624 8 -41797892.856 8
 86  6 19  1 35 35.0800000  0  4G 6G13G 9G11
  22143920.500    22143921.156    12403602.970 9    859356.546 8
  20656150.040    20656151.049    -6816830.734 9   2700004.684 7
  20049825.833    20049828.453    20619112.312 8 -61181395.545 7
  22516105.982    22516109.968    45559943.532 9 -41785613.178 8
 86  6 19  1 35 41.0800000  0  4G 6G13G 9G11
  22147484.206    22147485.848    12422328.674 9    873947.990 8
  20655386.655    20655387.571    -6820840.729 9   2696880.004 9
  20050348.968    20050352.752    20621866.074 9 -61179249.736 7
  22519105.668    22519109.795    45575707.130 9 -41773329.873 8
 86  6 19  1 35 47.0800000  0  4G 6G13G 9G11
  22151050.771    22151051.326    12441070.707 9    888552.155 8
  20654626.287    20654629.060    -6824832.218 9   2693769.766 8
  20050878.519    20050880.629    20624645.498 8 -61177083.954 8
  22522107.013    22522110.871    45591475.276 9 -41761043.005 8
 86  6 19  1 35 53.0800000  0  4G 6G13G 9G11
  22154620.456    22154621.656    12459829.004 9    903169.012 8
  20653870.973    20653872.676    -6828805.160 9   2690673.966 8
  20051412.357    20051413.750    20627450.633 9 -61174898.140 6
  22525108.374    22525111.644    45607247.960 9 -41748752.607 8
 86  6 19  1 35 59.0800000  0  4G 6G13G 9G11
  22158192.545    22158193.631    12478603.643 9    917798.586 8
  20653118.835    20653120.066    -6832759.520 9   2687592.643 8
  20051951.216    20051953.280    20630281.522 9 -61172692.249 7
  22528110.213    22528113.446    45623025.185 9 -41736458.662 8
 86  6 19  1 36  5.0800000  0  4G 6G13G 9G11
  22161769.271    22161769.827    12497394.559 9    932440.853 8
  20652369.853    20652371.568    -6836695.439 9   2684525.710 8
  20052495.088    20052496.298    20633138.064 8 -61170466.362 7
  22531114.064    22531116.588    45638807.005 8 -41724161.145 8
 86  6 19  1 36 11.0800000  0  4G 6G13G 9G11
  22165346.770    22165349.414    12516201.742 9    947095.797 9
  20651623.901    20651625.127    -6840612.899 9   2681473.150 7
  20053044.019    20053045.823    20636020.413 8 -61168220.388 6
  22534117.658    22534119.814    45654593.420 9 -41711860.063 8
 86  6 19  1 36 17.0800000  0  4G 6G13G 9G11
  22168928.648    22168930.047    12535025.141 9    961763.378 8
  20650882.170    20650884.232    -6844511.975 9   2678434.914 8
  20053597.861    20053598.512    20638928.409 8 -61165954.416 7
  22537123.351    22537125.915    45670384.359 9 -41699555.430 6
 86  6 19  1 36 23.0800000  0  4G 6G13G 9G11
  22172513.903    22172516.032    12553864.724 9    976443.563 9
  20650143.312    20650145.255    -6848392.652 9   2675411.017 8
  20054154.668    20054156.971    20641862.105 9 -61163668.407 7
  22540128.655    22540130.649    45686179.716 8 -41687247.356 8
 86  6 19  1 36 29.0800000  0  4G 6G13G 9G11
  22176101.846    22176103.617    12572720.604 9    991136.438 8
  20649408.158    20649410.331    -6852254.781 9   2672401.565 8
  20054719.574    20054720.144    20644821.714 8 -61161362.228 8
  22543134.645    22543139.036    45701979.664 9 -41674935.727 7
 86  6 19  1 36 35.0800000  0  4G 6G13G 9G11
  22179693.281    22179694.440    12591592.671 9   1005841.958 8
  20648676.648    20648678.852    -6856098.479 9   2669406.489 8
  20055287.306    20055288.843    20647807.038 8 -61159036.001 7
  22546142.872    22546144.668    45717784.081 8 -41662620.588 8
 86  6 19  1 36 41.0800000  0  4G 6G13G 9G11
  22183288.381    22183290.196    12610480.944 9   1020560.086 9
  20647948.933    20647950.120    -6859923.729 9   2666425.769 8
  20055859.448    20055860.753    20650818.032 8 -61156689.782 6
  22549151.057    22549152.998    45733592.979 8 -41650301.963 8
 86  6 19  1 36 47.0800000  0  4G 6G13G 9G11
  22186885.571    22186887.068    12629385.326 9   1035290.748 8
  20647224.516    20647227.505    -6863730.545 9   2663459.426 8
  20056437.465    20056438.553    20653854.679 9 -61154323.560 7
  22552160.031    22552162.663    45749406.271 8 -41637979.929 8
 86  6 19  1 36 53.0800000  0  4G 6G13G 9G11
  22190485.505    22190487.591    12648305.867 9   1050034.036 8
  20646503.520    20646506.395    -6867518.953 9   2660507.418 8
  20057021.362    20057021.900    20656917.233 9 -61151937.155 7
  22555169.412    22555173.275    45765224.040 9 -41625654.394 7
 86  6 19  1 36 59.0800000  0  4G 6G13G 9G11
  22194088.875    22194089.914    12667242.547 9   1064789.884 9
  20645786.425    20645789.320    -6871288.975 9   2657569.741 9
  20057607.491    20057610.999    20660005.507 9 -61149530.707 8
  22558180.638    22558184.473    45781046.191 9 -41613325.441 8
 86  6 19  1 37  5.0800000  0  4G 6G13G 9G11
  22197695.649    22197697.838    12686195.346 9   1079558.289 8
  20645073.276    20645076.162    -6875040.551 9   2654646.431 7
  20058202.466    20058202.177    20663119.614 8 -61147104.129 7
  22561191.672    22561195.863    45796872.724 9 -41600993.092 8
 86  6 19  1 37 11.0800000  0  4G 6G13G 9G11
  22201305.458    22201307.530    12705164.210 9   1094339.213 8
  20644362.420    20644365.669    -6878773.693 9   2651737.487 8
  20058800.592    20058799.673    20666259.374 9 -61144657.569 8
  22564205.187    22564207.928    45812703.624 9 -41588657.319 7
 86  6 19  1 37 17.0800000  0  4G 6G13G 9G11
  22204917.584    22204919.200    12724149.203 9   1109132.705 7
  20643655.150    20643659.145    -6882488.415 9   2648842.903 9
  20059402.174    20059401.646    20669424.891 8 -61142190.923 7
  22567218.217    22567221.442    45828538.900 9 -41576318.149 7
 86  6 19  1 37 23.0800000  0  4G 6G13G 9G11
  22208533.431    22208536.592    12743150.200 9   1123938.664 8
  20642952.115    20642954.948    -6886184.837 9   2645962.577 8
  20060008.414    20060009.182    20672616.266 9 -61139704.146 7
  22570232.005    22570234.775    45844378.525 9 -41563975.584 8
 86  6 19  1 37 29.0800000  0  4G 6G13G 9G11
  22212151.998    22212154.328    12762167.191 9   1138757.091 8
  20642252.373    20642255.254    -6889862.854 9   2643096.589 9
  20060620.708    20060621.411    20675833.296 8 -61137197.368 7
  22573246.843    22573251.073    45860222.469 9 -41551629.661 7
 86  6 19  1 37 35.0800000  0  4G 6G13G 9G11
  22215774.543    22215776.413    12781200.249 9   1153588.036 8
  20641555.916    20641559.029    -6893522.504 9   2640244.919 9
  20061236.902    20061238.412    20679076.096 8 -61134670.511 7
  22576263.086    22576265.905    45876070.733 9 -41539280.365 9
 86  6 19  1 37 41.0800000  0  4G 6G13G 9G11
  22219398.976    22219402.591    12800249.311 9   1168431.452 9
  20640862.555    20640866.773    -6897163.803 9   2637407.540 9
  20061859.560    20061860.331    20682344.729 9 -61132123.530 7
  22579280.365    22579283.263    45891923.278 9 -41526927.748 8
 86  6 19  1 37 47.0800000  0  4G 6G13G 9G11
  22223027.099    22223030.288    12819314.288 9   1183287.265 8
  20640173.017    20640177.791    -6900786.808 9   2634584.415 8
  20062486.020    20062488.404    20685639.085 8 -61129556.499 7
  22582297.251    22582300.799    45907780.020 9 -41514571.827 8
 86  6 19  1 37 53.0800000  0  4G 6G13G 9G11
  22226657.685    22226660.216    12838395.312 9   1198155.583 9
  20639488.373    20639490.314    -6904391.389 9   2631775.654 8
  20063116.712    20063118.695    20688959.287 8 -61126969.343 7
  22585315.946    22585319.344    45923641.020 9 -41502212.618 8
 86  6 19  1 37 59.0800000  0  4G 6G13G 9G11
  22230292.334    22230294.651    12857492.253 9   1213036.300 9
  20638805.023    20638808.023    -6907977.595 9   2628981.212 9
  20063754.725    20063756.115    20692305.178 9 -61124362.159 6
  22588336.161    22588338.263    45939506.250 9 -41489850.099 7
 86  6 19  1 38  5.0800000  0  4G 6G13G 9G11
  22233929.789    22233932.174    12876605.133 9   1227929.457 8
  20638125.825    20638129.303    -6911545.472 9   2626201.038 8
  20064396.382    20064398.371    20695676.927 9 -61121734.819 7
  22591355.098    22591358.905    45955375.754 9 -41477484.254 7
 86  6 19  1 38 11.0800000  0  4G 6G13G 9G11
  22237569.533    22237572.705    12895733.929 9   1242835.004 8
  20637450.578    20637452.517    -6915095.059 9   2623435.133 8
  20065042.012    20065044.114    20699074.462 9 -61119087.413 7
  22594376.083    22594378.366    45971249.459 9 -41465115.118 7
 86  6 19  1 38 17.0800000  0  4G 6G13G 9G11
  22241212.968    22241214.581    12914878.595 9   1257752.921 9
  20636778.165    20636780.623    -6918626.407 9   2620683.436 8
  20065693.661    20065695.950    20702497.797 8 -61116419.883 7
  22597397.663    22597400.460    45987127.398 9 -41452742.701 8
 86  6 19  1 38 23.0800000  0  4G 6G13G 9G11
  22244858.463    22244862.038    12934039.130 9   1272683.191 9
  20636110.281    20636111.726    -6922139.474 9   2617945.989 8
  20066350.216    20066351.841    20705946.829 9 -61113732.322 7
  22600420.494    22600423.198    46003009.461 9 -41440367.078 8
 86  6 19  1 38 29.0800000  0  4G 6G13G 9G11
  22248507.651    22248510.882    12953215.516 9   1287625.819 9
  20635445.326    20635446.702    -6925634.277 9   2615222.773 8
  20067010.908    20067013.035    20709421.686 8 -61111024.664 7
  22603442.910    22603444.792    46018895.644 9 -41427988.232 8
 86  6 19  1 38 35.0800000  0  4G 6G13G 9G11
  22252159.471    22252162.403    12972407.755 9   1302580.801 8
  20634783.332    20634784.525    -6929110.774 9   2612513.817 7
  20067677.715    20067681.017    20712922.332 9 -61108296.892 7
  22606467.223    22606469.569    46034785.993 9 -41415606.142 7
 86  6 19  1 38 41.0800000  0  4G 6G13G 9G11
  22255814.899    22255817.428    12991615.804 9   1317548.092 8
  20634125.783    20634126.204    -6932568.974 9   2609819.121 8
  20068348.420    20068350.481    20716448.794 9 -61105548.989 7
  22609491.843    22609493.602    46050680.465 9 -41403220.845 8
 86  6 19  1 38 47.0800000  0  4G 6G13G 9G11
  22259473.015    22259475.501    13010839.631 9   1332527.693 8
  20633471.424    20633472.335    -6936008.929 9   2607138.634 7
  20069025.061    20069028.370    20720001.027 9 -61102781.039 7
  22612516.563    22612518.294    46066579.107 9 -41390832.299 7
 86  6 19  1 38 53.0800000  0  4G 6G13G 9G11
  22263133.850    22263137.094    13030079.291 9   1347519.629 8
  20632820.355    20632820.401    -6939430.601 9   2604472.410 8
  20069705.405    20069708.744    20723579.014 8 -61099993.001 7
  22615541.690    22615545.018    46082481.798 9 -41378440.588 8
 86  6 19  1 38 59.0800000  0  4G 6G13G 9G11
  22266798.949    22266800.678    13049334.682 9   1362523.824 8
  20632172.801    20632172.892    -6942834.100 9   2601820.320 8
  20070391.008    20070393.483    20727182.776 8 -61097184.866 7
  22618568.687    22618572.227    46098388.570 8 -41366045.707 8
 86  6 19  1 39  5.0800000  0  4G 6G13G 9G11
  22270465.909    22270468.196    13068605.805 9   1377540.267 8
  20631527.702    20631529.232    -6946219.346 9   2599182.485 8
  20071081.320    20071085.171    20730812.381 8 -61094356.607 7
  22621595.301    22621600.439    46114299.413 9 -41353647.659 8
 86  6 19  1 39 11.0800000  0  4G 6G13G 9G11
  22274135.672    22274137.960    13087892.686 9   1392568.995 8
  20630887.315    20630888.292    -6949586.347 9   2596558.839 7
  20071778.863    20071779.825    20734467.879 8 -61091508.179 6
  22624625.153    22624628.307    46130214.312 8 -41341246.439 8
 86  6 19  1 39 17.0800000  0  4G 6G13G 9G11
  22277808.270    22277811.143    13107195.288 9   1407609.985 9
  20630250.110    20630251.338    -6952935.082 9   2593949.439 8
  20072478.808    20072480.926    20738149.164 9 -61088639.650 6
  22627654.373    22627658.449    46146133.253 9 -41328842.082 8
 86  6 19  1 39 23.0800000  0  4G 6G13G 9G11
  22281484.130    22281488.049    13126513.581 9   1422663.186 9
  20629615.845    20629618.223    -6956265.620 9   2591354.224 8
  20073185.037    20073187.194    20741856.212 9 -61085751.040 6
  22630684.286    22630688.135    46162056.215 9 -41316434.574 8
 86  6 19  1 39 29.0800000  0  4G 6G13G 9G11
  22285163.596    22285167.128    13145847.601 9   1437728.650 8
  20628985.587    20628986.978    -6959577.982 9   2588773.153 9
  20073894.906    20073896.583    20745589.055 9 -61082842.333 6
  22633715.574    22633719.395    46177983.203 8 -41304023.953 8
 86  6 19  1 39 35.0800000  0  4G 6G13G 9G11
  22288845.638    22288849.241    13165197.202 9   1452806.250 9
  20628358.553    20628361.084    -6962872.221 9   2586206.217 8
  20074610.860    20074611.221    20749347.785 9 -61079913.458 7
  22636745.338    22636750.324    46193914.161 9 -41291610.227 8
 86  6 19  1 39 41.0800000  0  4G 6G13G 9G11
  22292531.544    22292534.703    13184562.439 8   1467896.028 8
  20627734.992    20627737.273    -6966148.286 9   2583653.436 8
  20075330.817    20075332.001    20753132.300 9 -61076964.472 7
  22639778.528    22639782.379    46209849.018 9 -41279193.459 7
 86  6 19  1 39 47.0800000  0  4G 6G13G 9G11
  22296218.966    22296221.293    13203943.300 9   1482997.989 8
  20627115.514    20627117.164    -6969406.156 9   2581114.855 9
  20076057.360    20076056.020    20756942.653 9 -61073995.382 7
  22642812.128    22642815.569    46225787.843 9 -41266773.609 8
 86  6 19  1 39 53.0800000  0  4G 6G13G 9G11
  22299910.795    22299913.325    13223339.789 9   1498112.133 7
  20626497.938    20626501.271    -6972645.840 9   2578590.420 8
  20076786.569    20076785.713    20760778.811 9 -61071006.161 7
  22645846.222    22645848.510    46241730.617 9 -41254350.678 8
 86  6 19  1 39 59.0800000  0  4G 6G13G 9G11
  22303604.426    22303607.828    13242751.847 9   1513238.412 8
  20625885.326    20625888.513    -6975867.396 9   2576080.104 8
  20077521.398    20077520.472    20764640.692 9 -61067996.896 7
  22648880.843    22648883.338    46257677.263 9 -41241924.719 9
 86  6 19  1 40  5.0800000  0  4G 6G13G 9G11
  22307301.549    22307303.279    13262179.501 9   1528376.826 8
  20625276.413    20625278.642    -6979070.830 9   2573583.924 7
  20078260.979    20078261.571    20768528.470 9 -61064967.481 6
  22651915.786    22651918.985    46273627.811 9 -41229495.741 9
 86  6 19  1 40 11.0800000  0  4G 6G13G 9G11
  22311001.621    22311003.937    13281622.665 9   1543527.330 8
  20624669.932    20624672.683    -6982256.076 9   2571101.912 8
  20079006.267    20079004.684    20772442.016 9 -61061917.954 7
  22654952.383    22654954.522    46289582.189 9 -41217063.749 8
 86  6 19  1 40 17.0800000  0  4G 6G13G 9G11
  22314704.926    22314705.812    13301081.353 9   1558689.950 8
  20624066.716    20624070.542    -6985423.112 9   2568634.088 8
  20079755.128    20079754.564    20776381.352 9 -61058848.341 6
  22657988.428    22657991.527    46305540.469 9 -41204628.732 8
 86  6 19  1 40 23.0800000  0  4G 6G13G 9G11
  22318410.490    22318413.107    13320555.533 9   1573864.621 8
  20623467.977    20623470.589    -6988572.073 9   2566180.352 8
  20080509.316    20080509.543    20780346.511 9 -61055758.599 7
  22661025.869    22661029.825    46321502.545 8 -41192190.749 8
 86  6 19  1 40 29.0800000  0  4G 6G13G 9G11
  22322119.835    22322120.506    13340045.115 9   1589051.303 8
  20622872.050    20622875.820    -6991702.983 9   2563740.673 9
  20081269.760    20081267.997    20784337.387 9 -61052648.843 7
  22664064.977    22664067.774    46337468.367 9 -41179749.860 8
 86  6 19  1 40 35.0800000  0  4G 6G13G 9G11
  22325830.838    22325832.551    13359550.208 9   1604250.073 8
  20622281.389    20622282.898    -6994815.739 9   2561315.160 9
  20082034.691    20082032.230    20788354.243 9 -61049518.831 8
  22667103.285    22667106.925    46353438.050 9 -41167305.964 8
 86  6 19  1 40 41.0800000  0  4G 6G13G 9G11
  22329545.848    22329547.691    13379070.714 9   1619460.852 8
  20621691.289    20621694.265    -6997910.447 9   2558903.691 9
  20082801.673    20082801.152    20792396.870 9 -61046368.735 6
  22670143.100    22670145.705    46369411.474 9 -41154859.142 9
 86  6 19  1 40 47.0800000  0  4G 6G13G 9G11
  22333263.318    22333264.948    13398606.716 9   1634683.707 8
  20621106.553    20621108.733    -7000987.093 9   2556506.310 8
  20083576.686    20083576.182    20796465.250 8 -61043198.552 6
  22673183.282    22673186.329    46385388.669 9 -41142409.386 8
 86  6 19  1 40 53.0800000  0  4G 6G13G 9G11
  22336984.282    22336984.980    13418158.071 9   1649918.515 7
  20620524.317    20620526.978    -7004045.682 9   2554122.987 9
  20084355.642    20084354.430    20800559.453 8 -61040008.276 6
  22676225.093    22676226.919    46401369.601 9 -41129956.716 8
 86  6 19  1 40 59.0800000  0  4G 6G13G 9G11
  22340707.305    22340708.732    13437724.830 9   1665165.334 9
  20619946.248    20619948.505    -7007086.256 9   2551753.712 8
  20085138.764    20085138.152    20804679.536 8 -61036797.814 7
  22679266.527    22679268.931    46417354.233 9 -41117501.160 9
 86  6 19  1 41  5.0800000  0  4G 6G13G 9G11
  22344433.819    22344435.447    13457306.975 9   1680424.139 8
  20619370.525    20619372.808    -7010108.752 9   2549398.532 9
  20085927.715    20085928.150    20808825.409 9 -61033567.267 7
  22682309.893    22682311.287    46433342.543 9 -41105042.737 9
 86  6 19  1 41 11.0800000  0  4G 6G13G 9G11
  22348163.425    22348164.939    13476904.460 9   1695694.912 7
  20618798.947    20618800.622    -7013113.248 9   2547057.373 8
  20086722.234    20086720.483    20812997.031 9 -61030316.640 6
  22685353.199    22685355.253    46449334.544 9 -41092581.442 8
 86  6 19  1 41 17.0800000  0  4G 6G13G 9G11
  22351896.093    22351897.205    13496517.295 9   1710977.626 8
  20618230.741    20618233.227    -7016099.753 9   2544730.220 7
  20087519.739    20087520.508    20817194.522 8 -61027045.878 7
  22688397.495    22688398.353    46465330.231 9 -41080117.277 9
 86  6 19  1 41 23.0800000  0  4G 6G13G 9G11
  22355630.220    22355631.676    13516145.502 9   1726272.326 8
  20617666.117    20617667.442    -7019068.259 9   2542417.102 7
  20088323.744    20088323.459    20821417.912 8 -61023754.929 7
  22691442.105    22691442.834    46481329.584 9 -41067650.247 7
 86  6 19  1 41 29.0800000  0  4G 6G13G 9G11
  22359368.724    22359370.954    13535788.991 9   1741578.935 9
  20617104.636    20617105.768    -7022018.818 9   2540117.967 9
  20089131.126    20089133.542    20825667.172 8 -61020443.805 8
  22694487.437    22694488.574    46497332.660 9 -41055180.322 8
 86  6 19  1 41 35.0800000  0  4G 6G13G 9G11
  22363110.092    22363111.549    13555447.779 9   1756897.460 7
  20616546.009    20616547.426    -7024951.291 9   2537832.926 8
  20089945.065    20089947.331    20829942.291 8 -61017112.566 8
  22697533.786    22697534.593    46513339.434 8 -41042707.526 9
 86  6 19  1 41 41.0800000  0  4G 6G13G 9G11
  22366854.006    22366854.690    13575121.832 9   1772227.881 8
  20615992.072    20615992.300    -7027865.796 9   2535561.886 8
  20090763.954    20090765.377    20834243.094 8 -61013761.288 7
  22700580.370    22700581.851    46529349.790 9 -41030231.931 8
 86  6 19  1 41 47.0800000  0  4G 6G13G 9G11
  22370601.012    22370602.067    13594811.161 9   1787570.199 8
  20615440.710    20615441.393    -7030762.293 9   2533304.885 8
  20091586.946    20091589.904    20838569.804 9 -61010389.828 8
  22703628.571    22703629.544    46545363.799 9 -41017753.477 9
 86  6 19  1 41 53.0800000  0  4G 6G13G 9G11
  22374349.877    22374351.949    13614515.704 9   1802924.390 8
  20614892.919    20614894.072    -7033640.738 9   2531061.954 7
  20092414.777    20092417.886    20842922.373 8 -61006998.220 7
  22706676.351    22706677.603    46561381.474 9 -41005272.182 8
 86  6 19  1 41 59.0800000  0  4G 6G13G 9G11
  22378102.892    22378104.277    13634235.497 9   1818290.447 9
  20614348.963    20614349.248    -7036501.138 9   2528833.069 9
  20093248.398    20093251.175    20847300.804 9 -61003586.455 7
  22709725.411    22709725.689    46577402.783 9 -40992788.052 9
 86  6 19  1 42  5.0800000  0  4G 6G13G 9G11
  22381857.914    22381860.176    13653970.445 9   1833668.319 8
  20613806.994    20613808.010    -7039343.632 9   2526618.133 8
  20094087.521    20094088.648    20851705.075 8 -61000154.572 7
  22712773.885    22712775.400    46593427.557 9 -40980301.217 9
 86  6 19  1 42 11.0800000  0  4G 6G13G 9G11
  22385616.842    22385618.475    13673720.547 9   1849058.007 7
  20613269.827    20613271.852    -7042168.236 9   2524417.168 8
  20094929.074    20094931.088    20856135.111 8 -60996702.588 7
  22715824.683    22715824.746    46609455.891 8 -40967811.609 9
 86  6 19  1 42 17.0800000  0  4G 6G13G 9G11
  22389378.551    22389379.188    13693485.853 9   1864459.527 7
  20612735.795    20612737.648    -7044974.872 9   2522230.169 8
  20095776.636    20095780.299    20860591.077 9 -60993230.409 8
  22718874.665    22718875.287    46625487.721 9 -40955319.285 9
 86  6 19  1 42 23.0800000  0  4G 6G13G 9G11
  22393141.546    22393142.329    13713266.252 9   1879872.817 8
  20612203.740    20612206.312    -7047763.623 9   2520057.127 8
  20096630.982    20096633.698    20865072.738 9 -60989738.212 8
  22721926.178    22721927.595    46641523.068 9 -40942824.215 9
 86  6 19  1 42 29.0800000  0  4G 6G13G 9G11
  22396907.844    22396910.212    13733061.775 9   1895297.902 8
  20611677.091    20611678.522    -7050534.474 9   2517898.019 8
  20097489.076    20097491.106    20869580.252 8 -60986225.873 7
  22724979.238    22724980.369    46657561.947 9 -40930326.407 8
 86  6 19  1 42 35.0800000  0  4G 6G13G 9G11
  22400679.035    22400680.487    13752872.389 9   1910734.725 8
  20611152.534    20611155.070    -7053287.423 9   2515752.875 8
  20098352.093    20098354.035    20874113.639 8 -60982693.370 8
  22728030.960    22728033.171    46673604.283 9 -40917825.884 9
 86  6 19  1 42 41.0800000  0  4G 6G13G 9G11
  22404451.666    22404453.147    13772698.124 9   1926183.338 8
  20610632.098    20610634.441    -7056022.435 9   2513621.695 9
  20099218.513    20099222.002    20878672.850 9 -60979140.755 7
  22731084.727    22731087.231    46689650.129 9 -40905322.642 9
 86  6 19  1 42 47.0800000  0  4G 6G13G 9G11
  22408227.028    22408227.958    13792538.894 9   1941643.679 9
  20610114.878    20610117.564    -7058739.531 9   2511504.482 9
  20100091.175    20100095.421    20883257.871 8 -60975568.002 7
  22734137.908    22734139.526    46705699.384 9 -40892816.725 9
 86  6 19  1 42 53.0800000  0  4G 6G13G 9G11
  22412005.992    22412006.477    13812394.682 9   1957115.713 8
  20609602.170    20609604.341    -7061438.712 9   2509401.222 9
  20100968.386    20100971.760    20887868.695 9 -60971975.157 7
  22737193.430    22737194.581    46721752.044 9 -40880308.170 9
 86  6 19  1 42 59.0800000  0  4G 6G13G 9G11
  22415786.467    22415787.057    13832265.509 9   1972599.470 9
  20609091.693    20609094.673    -7064119.984 9   2507311.916 8
  20101851.636    20101854.281    20892505.443 8 -60968362.109 8
  22740248.427    22740250.230    46737808.141 9 -40867796.934 9
 86  6 19  1 43  5.0800000  0  4G 6G13G 9G11
  22419571.277    22419572.299    13852151.325 9   1988094.894 8
  20608584.822    20608586.900    -7066783.389 9   2505236.540 9
  20102739.435    20102741.235    20897168.067 8 -60964728.912 8
  22743304.577    22743305.700    46753867.604 9 -40855283.069 8
 86  6 19  1 43 11.0800000  0  4G 6G13G 9G11
  22423358.136    22423358.524    13872052.123 9   2003602.000 8
  20608081.539    20608083.875    -7069428.979 9   2503175.044 8
  20103631.671    20103634.031    20901856.508 8 -60961075.591 8
  22746361.085    22746363.453    46769930.475 9 -40842766.557 9
 86  6 19  1 43 17.0800000  0  4G 6G13G 9G11
  22427147.458    22427149.003    13891967.835 9   2019120.729 8
  20607581.347    20607584.468    -7072056.729 9   2501127.451 9
  20104529.287    20104531.762    20906570.786 8 -60957402.128 8
  22749418.293    22749420.369    46785996.710 9 -40830247.430 7
 86  6 19  1 43 23.0800000  0  4G 6G13G 9G11
  22430940.114    22430942.386    13911898.537 9   2034651.144 9
  20607085.395    20607087.389    -7074666.544 9   2499093.815 9
  20105430.651    20105432.867    20911310.849 9 -60953708.581 8
  22752476.148    22752478.172    46802066.281 9 -40817725.688 9
 86  6 19  1 43 29.0800000  0  4G 6G13G 9G11
  22434735.501    22434736.996    13931844.220 9   2050193.224 8
  20606592.014    20606594.580    -7077258.504 9   2497074.120 9
  20106338.198    20106339.369    20916076.821 9 -60949994.831 7
  22755535.467    22755537.105    46818139.190 9 -40805201.347 8
 86  6 19  1 43 35.0800000  0  4G 6G13G 9G11
  22438534.260    22438536.883    13951804.760 9   2065746.879 8
  20606102.450    20606104.700    -7079832.729 9   2495068.226 8
  20107250.439    20107252.054    20920868.623 9 -60946260.961 7
  22758593.757    22758596.303    46834215.445 9 -40792674.402 9
 86  6 19  1 43 41.0800000  0  4G 6G13G 9G11
  22442334.896    22442336.238    13971780.238 9   2081312.180 8
  20605615.572    20605618.681    -7082389.136 9   2493076.229 8
  20108167.257    20108167.870    20925686.243 9 -60942506.989 7
  22761653.584    22761655.979    46850295.002 9 -40780144.885 8
 86  6 19  1 43 47.0800000  0  4G 6G13G 9G11
  22446138.622    22446141.932    13991770.549 9   2096889.050 8
  20605132.791    20605135.646    -7084927.785 9   2491098.061 8
  20109088.568    20109090.411    20930529.671 9 -60938732.893 7
  22764714.205    22764716.780    46866377.873 9 -40767612.787 8
 86  6 19  1 43 53.0800000  0  4G 6G13G 9G11
  22449945.579    22449948.185    14011775.736 9   2112477.481 9
  20604652.969    20604655.649    -7087448.677 9   2489133.724 9
  20110015.462    20110016.604    20935398.968 9 -60934938.630 7
  22767775.371    22767777.254    46882463.969 9 -40755078.163 8
 86  6 19  1 43 59.0800000  0  4G 6G13G 9G11
  22453754.972    22453758.176    14031795.707 9   2128077.454 8
  20604176.369    20604179.334    -7089951.764 9   2487183.267 8
  20110946.789    20110947.389    20940294.045 9 -60931124.279 7
  22770836.529    22770839.692    46898553.299 9 -40742541.040 8
 86  6 19  1 44  5.0800000  0  4G 6G13G 9G11
  22457567.586    22457570.471    14051830.490 8   2143688.960 8
  20603703.576    20603706.085    -7092437.049 9   2485246.689 8
  20111882.925    20111884.555    20945214.930 9 -60927289.836 8
  22773898.933    22773902.359    46914645.846 9 -40730001.401 9
 86  6 19  1 44 11.0800000  0  4G 6G13G 9G11
  22461382.804    22461386.349    14071880.093 9   2159312.018 8
  20603233.671    20603237.777    -7094904.602 9   2483323.918 8
  20112823.927    20112825.557    20950161.679 9 -60923435.228 7
  22776962.295    22776963.324    46930741.635 9 -40717459.233 9
 86  6 19  1 44 17.0800000  0  4G 6G13G 9G11
  22465200.105    22465203.881    14091944.447 9   2174946.570 8
  20602767.605    20602770.829    -7097354.450 9   2481414.936 9
  20113771.425    20113770.866    20955134.152 9 -60919560.567 7
  22780025.206    22780027.838    46946840.612 9 -40704914.577 9
 86  6 19  1 44 23.0800000  0  4G 6G13G 9G11
  22469020.929    22469025.767    14112023.496 9   2190592.563 7
  20602305.225    20602307.882    -7099786.521 9   2479519.824 9
  20114721.585    20114721.240    20960132.591 9 -60915665.665 7
  22783089.313    22783091.115    46962942.761 9 -40692367.457 8
 86  6 19  1 44 29.0800000  0  4G 6G13G 9G11
  22472845.318    22472848.814    14132117.364 9   2206250.112 8
  20601845.287    20601847.861    -7102200.890 9   2477638.492 8
  20115676.523    20115677.350    20965156.805 8 -60911750.709 7
  22786154.168    22786156.144    46979048.105 9 -40679817.838 9
 86  6 19  1 44 35.0800000  0  4G 6G13G 9G11
  22476672.935    22476674.720    14152225.902 9   2221919.096 8
  20601388.765    20601392.679    -7104597.537 9   2475770.970 8
  20116637.186    20116639.831    20970206.799 9 -60907815.644 7
  22789218.754    22789222.455    46995156.622 9 -40667265.753 9
 86  6 19  1 44 41.0800000  0  4G 6G13G 9G11
  22480500.907    22480503.881    14172349.115 9   2237599.524 8
  20600936.388    20600940.149    -7106976.539 9   2473917.211 8
  20117603.686    20117603.912    20975282.675 8 -60903860.411 7
  22792285.100    22792287.197    47011268.281 9 -40654711.225 8
 86  6 19  1 44 47.0800000  0  4G 6G13G 9G11
  22484334.029    22484335.710    14192487.025 9   2253291.382 8
  20600487.044    20600490.176    -7109337.809 9   2472077.259 9
  20118573.620    20118575.822    20980384.314 9 -60899885.118 8
  22795351.903    22795353.992    47027383.065 9 -40642154.247 8
 86  6 19  1 44 53.0800000  0  4G 6G13G 9G11
  22488169.055    22488171.068    14212639.559 9   2268994.654 9
  20600041.581    20600043.236    -7111681.420 9   2470251.067 8
  20119549.221    20119551.611    20985511.791 8 -60895889.682 6
  22798419.166    22798421.347    47043500.974 9 -40629594.834 8
 86  6 19  1 44 59.0800000  0  4G 6G13G 9G11
  22492005.947    22492009.327    14232806.764 9   2284709.339 9
  20599598.328    20599601.225    -7114007.393 9   2468438.628 9
  20120529.659    20120531.474    20990665.115 8 -60891874.100 6
  22801487.255    22801488.222    47059621.982 9 -40617033.018 8
 86  6 19  1 45  5.0800000  0  4G 6G13G 9G11
  22495846.484    22495848.972    14252988.568 9   2300435.401 8
  20599159.637    20599162.416    -7116315.624 9   2466640.014 8
  20121515.591    20121516.806    20995844.286 8 -60887838.389 6
  22804555.419    22804556.569    47075746.054 9 -40604468.804 8
 86  6 19  1 45 11.0800000  0  4G 6G13G 9G11
  22499690.076    22499693.160    14273184.995 9   2316172.857 8
  20598723.339    20598725.865    -7118606.183 9   2464855.154 9
  20122506.017    20122507.690    21001049.211 9 -60883782.598 7
  22807623.625    22807625.398    47091873.208 9 -40591902.191 7
 86  6 19  1 45 17.0800000  0  4G 6G13G 9G11
  22503536.094    22503538.719    14293396.026 9   2331921.710 9
  20598290.959    20598293.566    -7120879.108 9   2463084.046 8
  20123502.280    20123503.522    21006280.088 8 -60879706.582 6
  22810693.634    22810695.277    47108003.427 9 -40579333.197 8
 86  6 19  1 45 23.0800000  0  4G 6G13G 9G11
  22507385.053    22507387.556    14313621.537 9   2347681.840 9
  20597862.971    20597864.941    -7123134.433 9   2461326.645 9
  20124501.661    20124503.407    21011536.667 8 -60875610.563 7
  22813763.785    22813765.107    47124136.579 9 -40566761.912 8
 86  6 19  1 45 29.0800000  0  4G 6G13G 9G11
  22511236.074    22511238.901    14333861.564 9   2363453.276 8
  20597436.082    20597438.603    -7125372.072 9   2459583.039 8
  20125506.971    20125508.455    21016819.148 8 -60871494.355 6
  22816833.500    22816835.189    47140272.753 9 -40554188.277 7
 86  6 19  1 45 35.0800000  0  4G 6G13G 9G11
  22515090.144    22515094.334    14354116.103 9   2379236.020 9
  20597013.401    20597015.579    -7127592.060 9   2457853.169 8
  20126517.028    20126518.641    21022127.336 8 -60867358.108 7
  22819905.413    22819906.205    47156411.899 9 -40541612.315 8
 86  6 19  1 45 41.0800000  0  4G 6G13G 9G11
  22518947.412    22518950.125    14374385.192 9   2395030.105 9
  20596594.552    20596597.506    -7129794.473 9   2456137.014 8
  20127531.434    20127534.582    21027461.353 8 -60863201.723 7
  22822976.980    22822978.461    47172554.081 9 -40529034.003 8
 86  6 19  1 45 47.0800000  0  4G 6G13G 9G11
  22522807.737    22522811.447    14394668.737 9   2410835.454 9
  20596179.167    20596181.570    -7131979.346 9   2454434.518 9
  20128552.770    20128552.852    21032821.152 8 -60859025.265 7
  22826049.192    22826051.876    47188699.180 9 -40516453.406 7
 86  6 19  1 45 53.0800000  0  4G 6G13G 9G11
  22526670.163    22526673.319    14414966.712 9   2426652.054 9
  20595766.565    20595768.044    -7134146.678 9   2452745.697 8
  20129576.677    20129579.008    21038206.813 8 -60854828.643 8
  22829121.712    22829124.158    47204847.195 9 -40503870.527 7
 86  6 19  1 45 59.0800000  0  4G 6G13G 9G11
  22530535.845    22530539.433    14435279.137 9   2442479.897 9
  20595357.218    20595359.646    -7136296.458 9   2451070.551 9
  20130606.911    20130608.696    21043618.224 7 -60850611.961 7
  22832195.419    22832196.443    47220998.176 9 -40491285.358 7
 86  6 19  1 46  5.0800000  0  4G 6G13G 9G11
  22534403.698    22534406.922    14455605.976 9   2458318.984 9
  20594951.907    20594952.686    -7138428.656 9   2449409.109 8
  20131642.010    20131642.479    21049055.408 8 -60846375.214 7
  22835268.878    22835272.332    47237152.086 9 -40478697.904 7
 86  6 19  1 46 11.0800000  0  4G 6G13G 9G11
  22538273.982    22538277.418    14475947.197 9   2474169.279 8
  20594549.675    20594551.282    -7140543.274 9   2447761.351 8
  20132681.402    20132682.731    21054518.462 9 -60842118.268 7
  22838343.785    22838344.645    47253308.943 9 -40466108.157 7
 86  6 19  1 46 17.0800000  0  4G 6G13G 9G11
  22542148.299    22542151.444    14496302.769 9   2490030.754 8
  20594149.903    20594151.655    -7142640.386 9   2446127.242 8
  20133724.341    20133727.947    21060007.325 8 -60837841.246 7
  22841418.753    22841421.057    47269468.632 9 -40453516.191 8
 86  6 19  1 46 23.0800000  0  4G 6G13G 9G11
  22546024.895    22546027.661    14516672.702 9   2505903.418 9
  20593754.410    20593756.387    -7144719.968 9   2444506.783 8
  20134775.467    20134776.482    21065521.923 8 -60833544.150 8
  22844494.886    22844496.609    47285631.186 9 -40440921.998 8
 86  6 19  1 46 29.0800000  0  4G 6G13G 9G11
  22549903.161    22549906.233    14537056.974 9   2521787.255 8
  20593361.920    20593363.269    -7146782.005 9   2442900.013 8
  20135828.994    20135831.527    21071062.386 8 -60829226.912 7
  22847571.591    22847572.828    47301796.624 9 -40428325.563 8
 86  6 19  1 46 35.0800000  0  4G 6G13G 9G11
  22553785.301    22553788.462    14557455.614 9   2537682.291 9
  20592972.435    20592974.599    -7148826.557 9   2441306.852 8
  20136887.246    20136888.919    21076628.680 8 -60824889.538 6
  22850648.190    22850650.219    47317964.939 9 -40415726.876 8
 86  6 19  1 46 41.0800000  0  4G 6G13G 9G11
  22557670.157    22557672.768    14577868.497 9   2553588.419 9
  20592587.066    20592589.615    -7150853.686 9   2439727.291 8
  20137952.940    20137953.823    21082220.751 8 -60820532.086 7
  22853725.767    22853727.527    47334136.024 9 -40403126.033 8
 86  6 19  1 46 47.0800000  0  4G 6G13G 9G11
  22561556.655    22561559.332    14598295.700 9   2569505.714 9
  20592204.355    20592206.993    -7152863.338 9   2438161.320 8
  20139022.923    20139023.507    21087838.605 8 -60816154.538 6
  22856803.789    22856805.777    47350309.959 9 -40390522.984 8
 86  6 19  1 46 53.0800000  0  4G 6G13G 9G11
  22565447.522    22565449.936    14618737.193 9   2585434.132 9
  20591824.871    20591827.937    -7154855.504 9   2436608.976 9
  20140096.858    20140094.534    21093482.187 9 -60811756.943 7
  22859881.639    22859882.856    47366486.685 9 -40377917.760 8
 86  6 19  1 46 59.0800000  0  4G 6G13G 9G11
  22569338.686    22569341.683    14639192.842 9   2601373.586 8
  20591449.862    20591451.662    -7156830.178 9   2435070.276 9
  20141176.801    20141174.353    21099151.605 8 -60807339.212 6
  22862959.395    22862962.738    47382666.214 9 -40365310.339 8
 86  6 19  1 47  5.0800000  0  4G 6G13G 9G11
  22573234.637    22573237.553    14659662.777 9   2617324.182 8
  20591077.026    20591079.047    -7158787.385 9   2433545.175 8
  20142260.235    20142260.550    21104846.830 9 -60802901.390 6
  22866039.329    22866041.187    47398848.513 9 -40352700.770 7
 86  6 19  1 47 11.0800000  0  4G 6G13G 9G11
  22577132.175    22577135.603    14680146.919 9   2633285.838 9
  20590708.025    20590709.721    -7160727.119 9   2432033.710 8
  20143348.936    20143348.060    21110567.870 9 -60798443.416 7
  22869119.790    22869121.420    47415033.617 9 -40340089.010 7
 86  6 19  1 47 17.0800000  0  4G 6G13G 9G11
  22581033.633    22581036.565    14700645.234 9   2649258.537 8
  20590342.151    20590345.109    -7162649.462 9   2430535.773 8
  20144441.414    20144442.184    21116314.615 8 -60793965.432 6
  22872200.488    22872201.817    47431221.418 9 -40327475.148 8
 86  6 19  1 47 23.0800000  0  4G 6G13G 9G11
  22584936.746    22584940.003    14721157.705 9   2665242.273 9
  20589979.108    20589981.957    -7164554.397 9   2429051.402 9
  20145541.078    20145539.388    21122087.171 8 -60789467.342 7
  22875281.106    22875283.818    47447411.943 9 -40314859.168 7
 86  6 19  1 47 29.0800000  0  4G 6G13G 9G11
  22588843.488    22588845.939    14741684.339 9   2681237.031 9
  20589619.686    20589622.441    -7166441.917 9   2427580.612 9
  20146643.773    20146643.497    21127885.497 9 -60784949.181 6
  22878362.269    22878365.166    47463605.191 9 -40302241.067 7
 86  6 19  1 47 35.0800000  0  4G 6G13G 9G11
  22592751.819    22592754.513    14762225.048 9   2697242.770 9
  20589263.924    20589267.130    -7168312.027 9   2426123.373 8
  20147751.790    20147752.674    21133709.592 8 -60780410.932 6
  22881444.226    22881446.943    47479801.091 9 -40289620.878 8
 86  6 19  1 47 41.0800000  0  4G 6G13G 9G11
  22596663.501    22596666.217    14782779.860 9   2713259.499 8
  20588911.997    20588914.266    -7170164.808 9   2424679.666 9
  20148864.874    20148865.457    21139559.437 8 -60775852.621 6
  22884526.962    22884529.916    47495999.637 9 -40276998.653 8
 86  6 19  1 47 47.0800000  0  4G 6G13G 9G11
  22600577.205    22600580.679    14803348.738 9   2729287.192 9
  20588562.373    20588565.121    -7172000.137 9   2423249.549 9
  20149981.419    20149984.021    21145435.133 9 -60771274.145 7
  22887610.014    22887613.763    47512200.863 9 -40264374.318 7
 86  6 19  1 47 53.0800000  0  4G 6G13G 9G11
  22604494.207    22604497.409    14823931.713 9   2745325.852 8
  20588217.303    20588218.706    -7173818.016 9   2421833.009 8
  20151104.664    20151106.722    21151336.515 8 -60766675.681 7
  22890693.372    22890695.525    47528404.746 9 -40251747.894 8
 86  6 19  1 47 59.0800000  0  4G 6G13G 9G11
  22608413.834    22608417.277    14844528.738 9   2761375.479 9
  20587873.962    20587876.620    -7175618.611 9   2420429.950 9
  20152232.917    20152235.304    21157263.735 8 -60762057.069 7
  22893778.285    22893780.043    47544611.248 9 -40239119.467 8
 86  6 19  1 48  5.0800000  0  4G 6G13G 9G11
  22612336.270    22612338.958    14865139.782 9   2777436.025 9
  20587533.694    20587536.968    -7177401.849 9   2419040.418 9
  20153366.003    20153366.529    21163216.727 8 -60757418.366 7
  22896862.465    22896865.435    47560820.345 9 -40226488.999 7
 86  6 19  1 48 11.0800000  0  4G 6G13G 9G11
  22616261.375    22616263.694    14885764.820 9   2793507.467 9
  20587198.617    20587201.809    -7179167.764 9   2417664.378 9
  20154503.899    20154504.570    21169195.449 8 -60752759.621 7
  22899947.399    22899949.881    47577031.996 9 -40213856.535 8
 86  6 19  1 48 17.0800000  0  4G 6G13G 9G11
  22620188.688    22620191.947    14906403.854 9   2809589.827 8
  20586865.552    20586868.684    -7180916.339 9   2416301.861 9
  20155645.801    20155647.687    21175199.971 8 -60748080.776 6
  22903032.397    22903035.445    47593246.257 9 -40201222.045 8
 86  6 19  1 48 23.0800000  0  4G 6G13G 9G11
  22624119.075    22624121.498    14927056.913 9   2825683.100 9
  20586536.566    20586539.035    -7182647.578 9   2414952.841 8
  20156793.913    20156796.660    21181230.283 7 -60743381.833 8
  22906118.625    22906120.484    47609463.115 9 -40188585.530 7
 86  6 19  1 48 29.0800000  0  4G 6G13G 9G11
  22628051.728    22628054.666    14947723.842 9   2841787.190 9
  20586209.819    20586213.116    -7184361.500 9   2413617.322 9
  20157946.921    20157947.346    21187286.285 9 -60738662.883 6
  22909205.404    22909206.513    47625682.500 9 -40175947.046 7
 86  6 19  1 48 35.0800000  0  4G 6G13G 9G11
  22631987.075    22631989.589    14968404.738 9   2857902.145 9
  20585887.483    20585889.719    -7186058.193 9   2412295.238 8
  20159103.905    20159104.432    21193368.083 8 -60733923.821 8
  22912291.288    22912294.473    47641904.447 9 -40163306.573 8
 86  6 19  1 48 41.0800000  0  4G 6G13G 9G11
  22635926.264    22635927.365    14989099.515 9   2874027.951 8
  20585568.234    20585571.215    -7187737.682 9   2410986.540 8
  20160266.299    20160266.782    21199475.632 7 -60729164.701 7
  22915379.598    22915382.309    47658128.899 9 -40150664.140 8
 86  6 19  1 48 47.0800000  0  4G 6G13G 9G11
  22639866.284    22639869.172    15009808.205 9   2890164.574 9
  20585251.701    20585254.435    -7189399.908 9   2409691.298 8
  20161433.042    20161434.342    21205608.865 8 -60724385.556 8
  22918466.778    22918469.575    47674355.841 9 -40138019.777 8
 86  6 19  1 48 53.0800000  0  4G 6G13G 9G11
  22643809.651    22643811.964    15030530.775 9   2906312.018 9
  20584938.515    20584941.563    -7191044.768 9   2408409.588 7
  20162604.736    20162604.190    21211767.914 9 -60719586.310 7
  22921555.496    22921557.571    47690585.321 9 -40125373.433 9
 86  6 19  1 48 59.0800000  0  4G 6G13G 9G11
  22647754.875    22647757.640    15051267.151 9   2922470.216 8
  20584629.573    20584631.867    -7192672.464 9   2407141.271 9
  20163782.098    20163783.740    21217952.691 8 -60714766.997 7
  22924643.784    22924647.146    47706817.222 9 -40112725.194 9
 86  6 19  1 49  5.0800000  0  4G 6G13G 9G11
  22651703.779    22651706.207    15072017.292 9   2938639.149 8
  20584322.824    20584325.695    -7194282.889 9   2405886.399 8
  20164964.179    20164965.709    21224163.204 8 -60709927.648 6
  22927733.569    22927737.237    47723051.556 9 -40100075.074 8
 86  6 19  1 49 11.0800000  0  4G 6G13G 9G11
  22655655.556    22655657.524    15092781.275 9   2954818.872 7
  20584019.255    20584021.043    -7195876.136 9   2404644.911 8
  20166149.582    20166149.563    21230399.438 7 -60705068.264 7
  22930823.045    22930826.873    47739288.352 9 -40087423.021 8
 86  6 19  1 49 17.0800000  0  4G 6G13G 9G11
  22659608.867    22659612.117    15113559.038 9   2971009.330 8
  20583719.511    20583720.985    -7197452.187 9   2403416.812 8
  20167342.769    20167341.409    21236661.424 9 -60700188.780 6
  22933913.309    22933917.658    47755527.582 9 -40074769.082 8
 86  6 19  1 49 23.0800000  0  4G 6G13G 9G11
  22663566.136    22663568.665    15134350.635 9   2987210.549 8
  20583422.489    20583424.136    -7199011.031 9   2402202.142 8
  20168540.362    20168539.571    21242949.096 9 -60695289.317 7
  22937004.716    22937007.513    47771769.257 9 -40062113.229 8
 86  6 19  1 49 29.0800000  0  4G 6G13G 9G11
  22667524.434    22667526.577    15155155.956 9   3003422.486 9
  20583129.138    20583131.846    -7200552.587 9   2401000.927 9
  20169740.990    20169739.602    21249262.574 9 -60690369.715 7
  22940094.893    22940099.095    47788013.330 9 -40049455.511 8
 86  6 19  1 49 35.0800000  0  4G 6G13G 9G11
  22671485.627    22671488.480    15175975.032 9   3019645.121 9
  20582839.141    20582841.484    -7202077.010 9   2399813.076 9
  20170947.255    20170945.419    21255601.767 9 -60685430.071 7
  22943187.734    22943189.914    47804259.825 9 -40036795.899 8
 86  6 19  1 49 41.0800000  0  4G 6G13G 9G11
  22675450.304    22675452.912    15196807.778 9   3035878.423 8
  20582552.288    20582554.442    -7203584.282 9   2398638.580 8
  20172158.556    20172156.909    21261966.698 9 -60680470.406 6
  22946279.233    22946282.108    47820508.724 9 -40024134.432 8
 86  6 19  1 49 47.0800000  0  4G 6G13G 9G11
  22679417.785    22679421.041    15217654.214 9   3052122.380 8
  20582269.166    20582270.383    -7205074.421 9   2397477.440 8
  20173374.925    20173373.175    21268357.329 9 -60675490.685 7
  22949371.372    22949374.103    47836759.939 9 -40011471.144 8
 86  6 19  1 49 53.0800000  0  4G 6G13G 9G11
  22683386.987    22683389.487    15238514.302 9   3068376.982 8
  20581988.534    20581990.212    -7206547.389 9   2396329.675 8
  20174595.784    20174592.733    21274773.675 9 -60670490.937 6
  22952464.568    22952467.530    47853013.520 9 -39998806.013 8
 86  6 19  1 49 59.0800000  0  4G 6G13G 9G11
  22687359.562    22687362.138    15259388.066 9   3084642.255 8
  20581712.528    20581712.976    -7208003.164 9   2395195.303 9
  20175820.536    20175820.807    21281215.689 8 -60665471.191 6
  22955557.879    22955559.739    47869269.451 9 -39986139.058 9
 86  6 19  1 50  5.0800000  0  4G 6G13G 9G11
  22691333.715    22691334.914    15280275.441 9   3100918.114 8
  20581438.179    20581439.276    -7209441.757 9   2394074.331 8
  20177052.616    20177052.973    21287683.470 9 -60660431.371 6
  22958651.176    22958654.861    47885527.658 9 -39973470.327 8
 86  6 19  1 50 11.0800000  0  4G 6G13G 9G11
  22695310.819    22695312.593    15301176.445 9   3117204.594 7
  20581167.718    20581168.644    -7210863.277 9   2392966.659 8
  20178287.788    20178287.798    21294176.983 8 -60655371.503 6
  22961746.154    22961749.960    47901788.209 9 -39960799.776 8
 86  6 19  1 50 17.0800000  0  4G 6G13G 9G11
  22699290.942    22699293.322    15322091.019 9   3133501.666 8
  20580900.576    20580902.318    -7212267.650 9   2391872.337 8
  20179527.850    20179527.791    21300696.196 9 -60650291.587 7
  22964840.474    22964843.994    47918051.001 9 -39948127.464 8
 86  6 19  1 50 23.0800000  0  4G 6G13G 9G11
  22703273.788    22703275.453    15343019.167 9   3149809.296 9
  20580636.943    20580638.305    -7213654.906 9   2390791.370 8
  20180774.554    20180774.579    21307241.126 8 -60645191.643 7
  22967935.165    22967937.834    47934316.078 9 -39935453.377 7
 86  6 19  1 50 29.0800000  0  4G 6G13G 9G11
  22707259.020    22707261.578    15363960.852 9   3166127.490 8
  20580375.909    20580377.486    -7215025.057 9   2389723.722 8
  20182024.949    20182023.043    21313811.768 9 -60640071.678 6
  22971030.452    22971034.457    47950583.404 9 -39922777.547 8
 86  6 19  1 50 35.0800000  0  4G 6G13G 9G11
  22711245.750    22711248.392    15384916.044 9   3182456.199 8
  20580118.010    20580120.731    -7216378.142 9   2388669.369 7
  20183278.775    20183279.617    21320408.033 9 -60634931.732 6
  22974127.712    22974129.628    47966852.940 9 -39910099.980 8
 86  6 19  1 50 41.0800000  0  4G 6G13G 9G11
  22715236.452    22715238.768    15405884.726 9   3198795.425 8
  20579863.697    20579865.503    -7217714.190 9   2387628.288 8
  20184538.901    20184538.829    21327030.070 9 -60629771.702 7
  22977222.890    22977226.373    47983124.670 9 -39897420.717 8
 86  6 19  1 50 47.0800000  0  4G 6G13G 9G11
  22719229.415    22719231.938    15426866.875 9   3215145.139 9
  20579613.480    20579615.645    -7219033.151 9   2386600.527 8
  20185804.809    20185805.578    21333677.728 9 -60624591.711 6
  22980320.323    22980324.208    47999398.636 9 -39884739.722 8
 86  6 19  1 50 53.0800000  0  4G 6G13G 9G11
  22723224.194    22723225.997    15447862.526 9   3231505.392 8
  20579364.403    20579366.703    -7220335.127 9   2385586.006 8
  20187075.121    20187074.704    21340351.056 8 -60619391.708 6
  22983417.018    22983420.165    48015674.804 9 -39872056.990 8
 86  6 19  1 50 59.0800000  0  4G 6G13G 9G11
  22727221.879    22727224.826    15468871.592 9   3247876.073 7
  20579121.402    20579122.731    -7221620.074 9   2384584.748 8
  20188349.211    20188348.980    21347050.099 9 -60614171.680 6
  22986515.294    22986518.128    48031953.169 9 -39859372.554 7
 86  6 19  1 51  5.0800000  0  4G 6G13G 9G11
  22731222.479    22731223.771    15489894.095 9   3264257.233 7
  20578880.105    20578881.265    -7222888.072 9   2383596.691 8
  20189630.057    20189631.257    21353774.746 8 -60608931.704 7
  22989612.921    22989616.427    48048233.709 9 -39846686.416 8
 86  6 19  1 51 11.0800000  0  4G 6G13G 9G11
  22735224.556    22735226.776    15510930.006 9   3280648.849 7
  20578641.317    20578643.889    -7224139.166 9   2382621.822 8
  20190913.907    20190914.604    21360525.029 8 -60603671.750 6
  22992711.754    22992715.282    48064516.426 9 -39833998.604 8
 86  6 19  1 51 17.0800000  0  4G 6G13G 9G11
  22739230.292    22739232.075    15531979.231 9   3297050.843 8
  20578406.962    20578408.629    -7225373.243 9   2381660.195 8
  20192203.222    20192203.937    21367301.056 8 -60598391.725 6
  22995810.173    22995813.851    48080801.258 9 -39821309.120 8
 86  6 19  1 51 23.0800000  0  4G 6G13G 9G11
  22743239.564    22743240.970    15553041.872 9   3313463.278 8
  20578175.489    20578176.697    -7226590.294 9   2380711.847 7
  20193497.376    20193498.685    21374102.766 8 -60593091.709 6
  22998910.072    22998912.378    48097088.200 8 -39808618.007 8
 86  6 19  1 51 29.0800000  0  4G 6G13G 9G11
  22747248.641    22747250.847    15574117.861 8   3329886.121 8
  20577947.612    20577948.134    -7227790.383 9   2379776.713 8
  20194796.449    20194796.992    21380930.065 8 -60587771.738 8
  23002010.167    23002012.578    48113377.207 9 -39795925.275 9
 86  6 19  1 51 35.0800000  0  4G 6G13G 9G11
  22751262.507    22751264.825    15595207.122 9   3346319.299 7
  20577721.853    20577722.179    -7228973.541 9   2378854.774 9
  20196099.530    20196101.660    21387783.079 8 -60582431.722 6
  23005109.775    23005112.678    48129668.314 9 -39783230.908 8
 86  6 19  1 51 41.0800000  0  4G 6G13G 9G11
  22755278.696    22755279.987    15616309.661 8   3362762.826 7
  20577500.095    20577502.285    -7230139.747 9   2377946.046 8
  20197408.821    20197410.264    21394661.672 9 -60577071.790 7
  23008210.627    23008212.823    48145961.502 9 -39770534.927 8
 86  6 19  1 51 47.0800000  0  4G 6G13G 9G11
  22759296.145    22759297.624    15637425.429 9   3379216.672 7
  20577281.513    20577283.099    -7231289.069 9   2377050.471 8
  20198724.009    20198723.619    21401565.968 8 -60571691.815 7
  23011311.351    23011314.083    48162256.762 8 -39757837.336 8
 86  6 19  1 51 53.0800000  0  4G 6G13G 9G11
  22763317.477    22763319.433    15658554.523 9   3395680.892 7
  20577065.684    20577066.986    -7232421.384 9   2376168.151 8
  20200042.258    20200042.970    21408495.852 9 -60566291.913 6
  23014412.453    23014414.740    48178554.082 8 -39745138.130 8
 86  6 19  1 51 59.0800000  0  4G 6G13G 9G11
  22767340.495    22767341.393    15679696.841 9   3412155.425 8
  20576853.045    20576855.169    -7233536.729 9   2375299.053 8
  20201366.546    20201364.827    21415451.357 9 -60560872.045 6
  23017513.885    23017516.896    48194853.445 9 -39732437.324 8
 86  6 19  1 52  5.0800000  0  4G 6G13G 9G11
  22771366.350    22771368.192    15700852.380 9   3428640.251 8
  20576643.884    20576646.439    -7234635.220 9   2374443.082 8
  20202694.267    20202694.595    21422432.538 8 -60555432.166 7
  23020616.331    23020619.593    48211154.846 8 -39719734.950 8
 86  6 19  1 52 11.0800000  0  4G 6G13G 9G11
  22775394.346    22775397.275    15722021.131 9   3445135.355 7
  20576438.699    20576439.929    -7235716.803 9   2373600.295 8
  20204028.857    20204026.493    21429439.317 8 -60549972.342 7
  23023718.214    23023720.968    48227458.236 8 -39707031.017 7
 86  6 19  1 52 17.0800000  0  4G 6G13G 9G11
  22779425.829    22779426.562    15743203.087 9   3461640.778 8
  20576235.751    20576237.895    -7236781.505 9   2372770.656 8
  20205367.225    20205365.477    21436471.727 9 -60544492.547 7
  23026821.757    23026823.586    48243763.645 9 -39694325.514 8
 86  6 19  1 52 23.0800000  0  4G 6G13G 9G11
  22783458.871    22783460.235    15764398.185 9   3478156.417 8
  20576036.439    20576038.715    -7237829.341 9   2371954.167 8
  20206708.253    20206709.096    21443529.818 8 -60538992.726 7
  23029924.326    23029927.896    48260071.037 9 -39681618.466 9
 86  6 19  1 52 29.0800000  0  4G 6G13G 9G11
  22787495.011    22787496.803    15785606.444 9   3494682.317 8
  20575840.318    20575841.530    -7238860.298 9   2371150.825 8
  20208056.008    20208055.605    21450613.567 9 -60533472.928 6
  23033029.277    23033030.486    48276380.366 8 -39668909.910 8
 86  6 19  1 52 35.0800000  0  4G 6G13G 9G11
  22791533.057    22791534.873    15806827.719 9   3511218.373 8
  20575645.770    20575648.506    -7239874.421 9   2370360.603 8
  20209408.426    20209409.412    21457722.850 8 -60527933.224 8
  23036132.327    23036135.022    48292691.587 9 -39656199.880 9
 86  6 19  1 52 41.0800000  0  4G 6G13G 9G11
  22795574.492    22795575.385    15828062.149 9   3527764.668 8
  20575456.800    20575459.437    -7240871.675 9   2369583.524 9
  20210765.111    20210766.726    21464857.705 7 -60522373.600 7
  23039236.705    23039240.432    48309004.793 9 -39643488.292 9
 86  6 19  1 52 47.0800000  0  4G 6G13G 9G11
  22799617.154    22799618.669    15849309.633 8   3544321.133 7
  20575269.901    20575272.940    -7241852.101 9   2368819.543 8
  20212128.750    20212128.574    21472018.166 7 -60516794.021 6
  23042340.754    23042344.354    48325319.936 8 -39630775.213 8
 86  6 19  1 52 53.0800000  0  4G 6G13G 9G11
  22803662.975    22803664.468    15870570.139 8   3560887.751 8
  20575087.104    20575089.433    -7242815.775 9   2368068.631 8
  20213495.505    20213496.965    21479204.216 7 -60511194.519 7
  23045446.515    23045448.510    48341636.961 9 -39618060.657 8
 86  6 19  1 52 59.0800000  0  4G 6G13G 9G11
  22807711.193    22807712.408    15891843.663 9   3577464.526 8
  20574906.504    20574907.804    -7243762.694 9   2367330.772 8
  20214869.074    20214867.970    21486415.850 8 -60505575.048 7
  23048551.846    23048553.870    48357955.864 9 -39605344.640 9
 86  6 19  1 53  5.0800000  0  4G 6G13G 9G11
  22811762.207    22811763.439    15913130.266 9   3594051.456 8
  20574729.612    20574731.144    -7244692.783 9   2366606.054 9
  20216245.618    20216246.176    21493653.162 8 -60499935.604 7
  23051658.193    23051660.709    48374276.657 9 -39592627.134 8
 86  6 19  1 53 11.0800000  0  4G 6G13G 9G11
  22815815.286    22815817.496    15934429.823 9   3610648.508 8
  20574555.357    20574558.244    -7245606.119 9   2365894.358 8
  20217627.686    20217628.686    21500916.064 8 -60494276.205 7
  23054764.567    23054766.792    48390599.263 9 -39579908.231 8
 86  6 19  1 53 17.0800000  0  4G 6G13G 9G11
  22819869.996    22819872.493    15955742.369 9   3627255.671 7
  20574385.093    20574387.605    -7246502.670 9   2365195.745 7
  20219016.023    20219016.164    21508204.453 8 -60488596.935 6
  23057870.658    23057872.954    48406923.724 8 -39567187.875 9
 86  6 19  1 53 23.0800000  0  4G 6G13G 9G11
  22823928.319    22823929.356    15977067.814 9   3643872.878 9
  20574218.082    20574219.303    -7247382.501 9   2364510.165 7
  20220407.476    20220407.101    21515518.405 8 -60482897.760 7
  23060977.398    23060979.308    48423249.980 9 -39554466.125 9
 86  6 19  1 53 29.0800000  0  4G 6G13G 9G11
  22827988.753    22827990.756    15998406.162 9   3660500.162 8
  20574053.795    20574056.458    -7248245.651 9   2363837.582 8
  20221805.943    20221805.356    21522857.826 8 -60477178.717 6
  23064084.423    23064086.678    48439578.067 8 -39541742.943 7
 86  6 19  1 53 35.0800000  0  4G 6G13G 9G11
  22832051.407    22832054.930    16019757.430 8   3677137.493 8
  20573892.903    20573894.993    -7249092.141 9   2363177.989 7
  20223207.044    20223206.740    21530222.965 8 -60471439.667 7
  23067191.673    23067194.319    48455907.943 8 -39529018.378 9
 86  6 19  1 53 41.0800000  0  4G 6G13G 9G11
  22836116.488    22836119.459    16041121.589 9   3693784.875 8
  20573735.535    20573736.053    -7249921.924 9   2362531.402 8
  20224613.808    20224612.074    21537613.564 8 -60465680.745 7
  23070300.552    23070301.997    48472239.562 9 -39516292.434 9
 86  6 19  1 53 47.0800000  0  4G 6G13G 9G11
  22840185.139    22840187.612    16062498.633 9   3710442.297 8
  20573580.416    20573581.847    -7250734.870 9   2361897.943 8
  20226024.753    20226023.233    21545029.739 8 -60459901.912 7
  23073409.088    23073409.638    48488573.056 9 -39503565.049 8
 86  6 19  1 53 53.0800000  0  4G 6G13G 9G11
  22844255.361    22844258.111    16083888.516 9   3727109.724 8
  20573429.237    20573430.755    -7251531.177 9   2361277.447 9
  20227439.873    20227439.629    21552471.425 8 -60454103.204 6
  23076517.124    23076518.604    48504908.317 9 -39490836.287 9
 86  6 19  1 53 59.0800000  0  4G 6G13G 9G11
  22848328.443    22848331.686    16105291.173 9   3743787.109 9
  20573280.502    20573282.009    -7252310.763 9   2360669.980 9
  20228861.637    20228861.720    21559938.672 8 -60448284.580 6
  23079626.610    23079627.103    48521245.313 9 -39478106.161 9
 86  6 19  1 54  5.0800000  0  4G 6G13G 9G11
  22852402.917    22852407.846    16126706.584 9   3760474.434 8
  20573135.790    20573137.375    -7253073.766 9   2360075.443 8
  20230288.319    20230286.029    21567431.419 8 -60442446.066 6
  23082734.889    23082735.826    48537583.993 9 -39465374.724 9
 86  6 19  1 54 11.0800000  0  4G 6G13G 9G11
  22856481.415    22856484.343    16148134.830 9   3777171.752 9
  20572993.178    20572995.135    -7253820.085 9   2359493.888 9
  20231717.837    20231718.264    21574949.689 8 -60436587.698 7
  23085843.798    23085845.542    48553924.389 9 -39452641.958 9
 86  6 19  1 54 17.0800000  0  4G 6G13G 9G11
  22860561.322    22860564.443    16169575.854 9   3793879.036 8
  20572854.425    20572856.590    -7254549.794 9   2358925.294 9
  20233153.966    20233151.443    21582493.561 9 -60430709.360 6
  23088953.828    23088955.975    48570266.507 8 -39439907.854 8
 86  6 19  1 54 23.0800000  0  4G 6G13G 9G11
  22864644.048    22864647.021    16191029.620 9   3810596.224 8
  20572719.054    20572721.009    -7255262.890 9   2358369.616 8
  20234593.441    20234593.197    21590062.894 8 -60424811.184 7
  23092063.509    23092064.974    48586610.317 9 -39427172.417 8
 86  6 19  1 54 29.0800000  0  4G 6G13G 9G11
  22868729.290    22868731.419    16212496.019 9   3827323.294 9
  20572586.137    20572588.548    -7255959.420 9   2357826.879 8
  20236037.983    20236038.684    21597657.780 8 -60418893.086 7
  23095174.458    23095177.490    48602955.817 9 -39414435.668 9
 86  6 19  1 54 35.0800000  0  4G 6G13G 9G11
  22872816.169    22872819.300    16233975.173 9   3844060.277 8
  20572456.736    20572458.788    -7256639.285 9   2357297.110 8
  20237488.507    20237490.437    21605278.170 8 -60412955.132 7
  23098285.175    23098287.027    48619302.966 8 -39401697.638 9
 86  6 19  1 54 41.0800000  0  4G 6G13G 9G11
  22876907.329    22876910.028    16255467.029 9   3860807.163 8
  20572330.095    20572332.915    -7257302.577 9   2356780.252 8
  20238944.352    20238945.353    21612924.082 8 -60406997.288 7
  23101395.864    23101397.932    48635651.744 8 -39388958.330 8
 86  6 19  1 54 47.0800000  0  4G 6G13G 9G11
  22880998.613    22881002.532    16276971.547 9   3877563.915 8
  20572206.921    20572209.700    -7257949.327 9   2356276.291 8
  20240403.547    20240403.002    21620595.528 9 -60401019.536 7
  23104507.206    23104509.853    48652002.179 8 -39376217.747 9
 86  6 19  1 54 53.0800000  0  4G 6G13G 9G11
  22885092.988    22885096.413    16298488.647 9   3894330.487 9
  20572087.473    20572089.722    -7258579.521 9   2355785.220 8
  20241868.035    20241867.363    21628292.493 8 -60395021.912 7
  23107619.068    23107620.313    48668354.176 8 -39363475.927 8
 86  6 19  1 54 59.0800000  0  4G 6G13G 9G11
  22889190.912    22889193.660    16320018.316 9   3911106.831 8
  20571970.503    20571973.195    -7259193.204 9   2355307.020 8
  20243337.790    20243338.232    21636014.875 8 -60389004.459 7
  23110731.526    23110732.577    48684707.785 9 -39350732.867 9
 86  6 19  1 55  5.0800000  0  4G 6G13G 9G11
  22893289.673    22893293.197    16341560.625 9   3927893.040 8
  20571856.720    20571859.284    -7259790.284 9   2354841.759 9
  20244811.582    20244813.024    21643762.694 8 -60382967.205 7
  23113843.180    23113845.234    48701063.001 8 -39337988.549 9
 86  6 19  1 55 11.0800000  0  4G 6G13G 9G11
  22897391.997    22897393.920    16363115.540 9   3944689.069 8
  20571745.602    20571748.753    -7260370.755 9   2354389.443 8
  20246291.581    20246292.667    21651536.072 9 -60376910.030 6
  23116956.031    23116958.184    48717419.822 9 -39325242.983 9
 86  6 19  1 55 17.0800000  0  4G 6G13G 9G11
  22901495.316    22901498.082    16384682.982 9   3961494.860 9
  20571639.027    20571641.545    -7260934.688 9   2353950.010 8
  20247775.215    20247774.598    21659334.935 8 -60370832.999 7
  23120069.804    23120069.932    48733778.222 9 -39312496.182 9
 86  6 19  1 55 23.0800000  0  4G 6G13G 9G11
  22905602.497    22905604.753    16406263.018 9   3978310.450 9
  20571534.975    20571537.149    -7261482.136 9   2353523.427 9
  20249264.001    20249264.656    21667159.235 8 -60364736.158 7
  23123182.855    23123184.307    48750138.210 9 -39299748.144 9
 86  6 19  1 55 29.0800000  0  4G 6G13G 9G11
  22909710.968    22909713.630    16427855.529 9   3995135.763 9
  20571433.529    20571436.113    -7262013.100 9   2353109.691 9
  20250757.480    20250758.652    21675008.975 9 -60358619.480 7
  23126295.304    23126298.209    48766499.699 9 -39286998.944 9
 86  6 19  1 55 35.0800000  0  4G 6G13G 9G11
  22913823.192    22913824.796    16449460.488 9   4011970.793 8
  20571335.593    20571337.325    -7262527.567 9   2352708.806 9
  20252256.084    20252256.239    21682884.110 8 -60352483.000 7
  23129410.237    23129411.545    48782862.711 9 -39274248.546 9
 86  6 19  1 55 41.0800000  0  4G 6G13G 9G11
  22917935.393    22917939.128    16471077.918 9   4028815.531 8
  20571240.641    20571243.349    -7263025.673 9   2352320.675 8
  20253759.064    20253760.980    21690784.744 8 -60346326.668 7
  23132524.352    23132525.569    48799227.292 9 -39261496.928 9
 86  6 19  1 55 47.0800000  0  4G 6G13G 9G11
  22922052.482    22922054.941    16492707.833 9   4045669.988 9
  20571149.393    20571152.527    -7263507.301 9   2351945.388 7
  20255266.166    20255268.109    21698710.805 8 -60340150.511 8
  23135637.670    23135640.174    48815593.385 9 -39248744.139 9
 86  6 19  1 55 53.0800000  0  4G 6G13G 9G11
  22926170.896    22926172.419    16514350.163 9   4062534.132 9
  20571060.751    20571062.630    -7263972.547 9   2351582.854 9
  20256778.331    20256782.736    21706662.364 8 -60333954.510 7
  23138751.529    23138755.792    48831960.906 9 -39235990.235 9
 86  6 19  1 55 59.0800000  0  4G 6G13G 9G11
  22930291.879    22930293.185    16536004.888 9   4079407.926 9
  20570975.486    20570977.201    -7264421.390 9   2351233.109 8
  20258297.511    20258301.185    21714639.327 8 -60327738.682 7
  23141867.118    23141869.851    48848329.907 9 -39223235.177 9
 86  6 19  1 56  5.0800000  0  3G13G 9G11
  20570892.450    20570895.734    -7264853.801 9   2350896.172 8
  20259820.170    20259822.782    21722641.665 8 -60321503.109 7
  23144982.066    23144985.778    48864700.306 9 -39210479.037 9
 86  6 19  1 56 11.0800000  0  3G13G 9G11
  20570813.485    20570815.494    -7265269.749 9   2350572.041 8
  20261348.028    20261350.978    21730669.376 8 -60315247.759 7
  23148097.247    23148100.424    48881072.120 8 -39197721.789 9
 86  6 19  1 56 17.0800000  0  3G13G 9G11
  20570737.178    20570740.783    -7265669.310 9   2350260.697 8
  20262879.439    20262883.359    21738722.456 7 -60308972.652 8
  23151214.154    23151217.080    48897445.344 9 -39184963.445 9
 86  6 19  1 56 23.0800000  0  3G13G 9G11
  20570664.086    20570667.520    -7266052.467 9   2349962.149 9
  20264416.482    20264420.074    21746800.989 8 -60302677.695 7
  23154329.531    23154332.678    48913819.962 9 -39172204.010 8
 86  6 19  1 56 29.0800000  0  4G12G13G 9G11
                  22039985.589   -25400567.142 9
  20570594.931    20570599.292    -7266419.236 9   2349676.360 8
  20265958.008    20265963.188    21754904.925 8 -60296362.951 8
  23157445.292    23157449.378    48930195.989 9 -39159443.463 9
 86  6 19  1 56 35.0800000  0  4G12G13G 9G11
                  22036927.611   -25416650.460 9
  20570528.149    20570530.793    -7266769.702 9   2349403.258 8
  20267506.943    20267509.466    21763034.282 7 -60290028.389 8
  23160563.316    23160565.504    48946573.382 9 -39146681.869 8
 86  6 19  1 56 41.0800000  0  4G12G13G 9G11
                  22033896.048   -25432719.295 9
  20570463.758    20570466.737    -7267103.871 9   2349142.876 8
  20269058.017    20269062.806    21771189.022 7 -60283674.044 7
  23163679.678    23163682.218    48962952.120 9 -39133919.229 9
 86  6 19  1 56 47.0800000  0  4G12G13G 9G11
  22030840.792    22030841.960   -25448774.133 9  32398135.675 8
  20570403.945    20570407.071    -7267421.708 9   2348895.198 8
  20270614.861    20270618.116    21779369.030 8 -60277300.017 8
  23166795.499    23166799.869    48979332.149 9 -39121155.567 9
 86  6 19  1 56 53.0800000  0  4G12G13G 9G11
  22027788.642    22027790.846   -25464814.648 9  32385636.594 8
  20570346.886    20570349.327    -7267723.266 9   2348660.234 9
  20272176.140    20272179.295    21787574.419 8 -60270906.216 8
  23169914.001    23169917.364    48995713.558 9 -39108390.836 9
 86  6 19  1 56 59.0800000  0  4G12G13G 9G11
  22024738.467    22024741.600   -25480840.829 9  32373148.157 9
  20570292.547    20570294.241    -7268008.516 9   2348437.966 8
  20273742.175    20273747.175    21795805.213 7 -60264492.615 7
  23173031.473    23173034.063    49012096.331 8 -39095625.055 9
 86  6 19  1 57  5.0800000  0  4G12G13G 9G11
  22021691.295    22021694.400   -25496852.605 9  32360671.454 9
  20570242.675    20570245.339    -7268277.399 9   2348228.434 8
  20275313.547    20275318.626    21804061.374 7 -60258059.237 8
  23176149.354    23176152.738    49028480.470 9 -39082858.191 9
 86  6 19  1 57 11.0800000  0  4G12G13G 9G11
  22018646.786    22018650.449   -25512850.017 9  32348205.940 8
  20570194.539    20570196.296    -7268530.026 9   2348031.583 8
  20276890.188    20276893.681    21812342.928 8 -60251606.098 8
  23179266.933    23179270.417    49044865.895 8 -39070090.337 9
 86  6 19  1 57 17.0800000  0  4G12G13G 9G11
  22015605.367    22015609.275   -25528833.155 9  32335751.545 8
  20570148.904    20570152.305    -7268766.481 9   2347847.327 8
  20278470.241    20278475.217    21820649.688 9 -60245133.285 8
  23182384.857    23182388.089    49061252.495 9 -39057321.558 9
 86  6 19  1 57 23.0800000  0  4G12G13G 9G11
  22012566.467    22012570.215   -25544801.868 9  32323308.400 9
  20570107.136    20570110.124    -7268986.651 9   2347675.777 7
  20280054.644    20280059.654    21828981.758 9 -60238640.762 9
  23185502.514    23185506.877    49077640.444 9 -39044551.744 9
 86  6 19  1 57 29.0800000  0  4G12G13G 9G11
  22009529.857    22009534.635   -25560756.109 9  32310876.518 9
  20570068.296    20570071.058    -7269190.585 9   2347516.879 8
  20281647.644    20281649.680    21837339.216 7 -60232128.460 8
  23188622.312    23188625.601    49094029.611 9 -39031780.966 9
 86  6 19  1 57 35.0800000  0  4G12G13G 9G11
  22006497.110    22006500.757   -25576695.965 9  32298455.859 9
  20570032.957    20570034.115    -7269378.297 9   2347370.608 9
  20283242.467    20283245.355    21845721.898 7 -60225596.503 7
  23191740.965    23191744.570    49110419.971 9 -39019009.261 9
 86  6 19  1 57 41.0800000  0  4G12G13G 9G11
  22003466.938    22003470.943   -25592621.287 9  32286046.514 8
  20569999.606    20570001.154    -7269549.732 9   2347237.026 9
  20284841.910    20284845.512    21854129.915 7 -60219044.809 8
  23194860.884    23194863.386    49126811.593 9 -39006236.579 9
 86  6 19  1 57 47.0800000  0  4G12G13G 9G11
  22000439.256    22000441.961   -25608532.143 9  32273648.457 9
  20569969.971    20569971.923    -7269704.939 9   2347116.084 9
  20286446.928    20286451.083    21862563.349 8 -60212473.296 6
  23197980.803    23197983.756    49143204.389 9 -38993462.977 9
 86  6 19  1 57 53.0800000  0  4G12G13G 9G11
  21997414.034    21997418.071   -25624428.405 9  32261261.761 9
  20569944.495    20569946.117    -7269843.932 9   2347007.796 8
  20288056.741    20288059.498    21871022.164 8 -60205882.030 7
  23201100.493    23201103.354    49159598.380 9 -38980688.439 9
 86  6 19  1 57 59.0800000  0  4G12G13G 9G11
  21994391.876    21994396.112   -25640310.128 9  32248886.401 8
  20569921.122    20569922.765    -7269966.719 9   2346912.107 8
  20289671.457    20289675.408    21879506.133 8 -60199271.128 7
  23204220.375    23204223.151    49175993.599 9 -38967912.958 9
 86  6 19  1 58  5.0800000  0  4G12G13G 9G11
  21991372.808    21991375.784   -25656177.239 9  32236522.417 8
  20569900.498    20569903.005    -7270073.350 9   2346829.031 9
  20291289.680    20291292.356    21888015.436 8 -60192640.502 6
  23207340.230    23207343.284    49192390.116 9 -38955136.454 9
 86  6 19  1 58 11.0800000  0  4G12G13G 9G11
  21988356.145    21988359.636   -25672029.790 9  32224169.790 8
  20569883.088    20569884.689    -7270163.903 9   2346758.465 9
  20292912.886    20292918.140    21896550.007 7 -60185990.192 7
  23210460.256    23210463.139    49208787.688 9 -38942359.130 9
 86  6 19  1 58 17.0800000  0  4G12G13G 9G11
  21985342.400    21985345.162   -25687867.639 9  32211828.606 9
  20569868.675    20569870.584    -7270238.224 9   2346700.555 8
  20294541.285    20294546.793    21905109.930 8 -60179320.127 7
  23213580.534    23213584.182    49225186.465 8 -38929580.864 9
 86  6 19  1 58 23.0800000  0  4G12G13G 9G11
  21982331.518    21982335.181   -25703691.057 9  32199498.676 9
  20569858.026    20569860.797    -7270296.604 9   2346655.070 8
  20296174.475    20296179.516    21913694.923 8 -60172630.520 8
  23216701.912    23216705.718    49241586.248 9 -38916801.826 9
 86  6 19  1 58 29.0800000  0  4G12G13G 9G11
  21979323.125    21979325.973   -25719499.696 9  32187180.257 8
  20569849.383    20569851.353    -7270338.785 9   2346622.205 9
  20297814.108    20297818.497    21922305.295 7 -60165921.151 7
  23219822.131    23219825.286    49257987.251 9 -38904021.829 9
 86  6 19  1 58 35.0800000  0  4G12G13G 9G11
  21976317.764    21976320.027   -25735293.645 9  32174873.295 8
  20569845.223    20569847.415    -7270364.862 9   2346601.879 8
  20299457.131    20299460.325    21930940.918 7 -60159192.104 7
  23222943.489    23222947.681    49274389.396 9 -38891240.953 9
 86  6 19  1 58 41.0800000  0  4G12G13G 9G11
  21973315.068    21973319.174   -25751072.918 9  32162577.740 8
  20569842.819    20569845.436    -7270374.883 9   2346594.079 9
  20301105.028    20301109.598    21939601.674 8 -60152443.463 8
  23226064.473    23226068.879    49290792.530 9 -38878459.298 9
 86  6 19  1 58 47.0800000  0  4G12G13G 9G11
  21970315.173    21970317.407   -25766837.449 9  32150293.697 8
  20569844.323    20569846.459    -7270368.844 9   2346598.782 8
  20302757.492    20302761.892    21948287.671 7 -60145675.157 8
  23229186.803    23229190.251    49307196.749 9 -38865676.798 9
 86  6 19  1 58 53.0800000  0  4G12G13G 9G11
  21967318.114    21967321.303   -25782587.142 9  32138021.222 9
  20569848.314    20569850.273    -7270346.722 9   2346616.025 8
  20304415.387    20304421.036    21956998.932 7 -60138887.170 7
  23232307.631    23232312.082    49323602.045 8 -38852893.459 9
 86  6 19  1 58 59.0800000  0  4G12G13G 9G11
  21964324.260    21964326.721   -25798321.933 9  32125760.347 8
  20569854.495    20569856.806    -7270308.509 9   2346645.803 9
  20306077.847    20306082.569    21965735.504 8 -60132079.469 7
  23235429.604    23235434.367    49340008.425 9 -38840109.267 9
 86  6 19  1 59  5.0800000  0  4G12G13G 9G11
  21961332.437    21961335.169   -25814042.022 9  32113510.927 9
  20569865.443    20569867.705    -7270254.417 9   2346687.960 8
  20307745.961    20307750.655    21974497.093 8 -60125252.250 8
  23238552.970    23238556.083    49356415.782 9 -38827324.323 9
 86  6 19  1 59 11.0800000  0  4G12G13G 9G11
  21958344.276    21958346.008   -25829747.302 9  32101273.049 8
  20569878.522    20569880.542    -7270184.277 9   2346742.607 9
  20309416.525    20309422.211    21983283.923 8 -60118405.375 7
  23241675.387    23241678.486    49372824.196 9 -38814538.549 9
 86  6 19  1 59 17.0800000  0  4G12G13G 9G11
  21955358.406    21955360.180   -25845437.683 9  32089046.785 8
  20569895.149    20569898.432    -7270098.103 9   2346809.745 8
  20311095.851    20311099.464    21992096.006 8 -60111538.830 8
  23244797.381    23244801.453    49389233.618 9 -38801752.000 9
 86  6 19  1 59 23.0800000  0  4G12G13G 9G11
  21952375.198    21952377.315   -25861113.152 9  32076832.132 9
  20569914.778    20569917.385    -7269995.916 9   2346889.380 9
  20312777.678    20312780.924    22000933.203 8 -60104652.700 8
  23247920.384    23247922.674    49405644.054 9 -38788964.653 9
 86  6 19  1 59 29.0800000  0  4G12G13G 9G11
  21949395.194    21949398.086   -25876773.796 9  32064629.039 8
  20569936.893    20569939.736    -7269877.789 9   2346981.429 8
  20314463.198    20314468.456    22009795.595 8 -60097746.952 7
  23251043.945    23251046.169    49422055.462 9 -38776176.552 9
 86  6 19  1 59 35.0800000  0  4G12G13G 9G11
  21946417.509    21946420.385   -25892419.453 9  32052437.615 8
  20569962.259    20569965.550    -7269743.688 9   2347085.924 8
  20316155.245    20316157.995    22018683.089 8 -60090821.624 9
  23254167.255    23254169.644    49438467.867 9 -38763387.666 9
 86  6 19  1 59 41.0800000  0  4G12G13G 9G11
  21943443.600    21943445.947   -25908050.117 9  32040257.884 8
  20569991.257    20569994.426    -7269593.632 9   2347202.851 9
  20317851.240    20317855.122    22027595.833 8 -60083876.637 8
  23257289.514    23257292.776    49454881.266 9 -38750598.011 9
 86  6 19  1 59 47.0800000  0  4G12G13G 9G11
  21940472.526    21940474.200   -25923665.845 9  32028089.782 8
  20570022.563    20570026.099    -7269427.613 9   2347332.210 7
  20319550.740    20319556.186    22036533.782 8 -60076911.994 7
  23260413.197    23260416.251    49471295.598 9 -38737807.632 9
 86  6 19  1 59 53.0800000  0  4G12G13G 9G11
  21937503.912    21937506.115   -25939266.561 9  32015933.400 9
  20570056.900    20570058.943    -7269245.750 9   2347473.938 9
  20321256.561    20321262.753    22045496.873 8 -60069927.767 7
  23263536.177    23263540.097    49487710.865 9 -38725016.513 9
 86  6 19  1 59 59.0800000  0  4G12G13G 9G11
  21934538.075    21934539.649   -25954852.091 9  32003788.824 8
  20570095.756    20570096.908    -7269047.887 9   2347628.113 8
  20322968.397    20322972.354    22054485.116 9 -60062923.944 8
  23266660.627    23266663.472    49504127.139 9 -38712224.633 9
 86  6 19  2  0  5.0800000  0  4G12G13G 9G11
  21931575.414    21931577.962   -25970422.628 9  31991655.938 8
  20570135.803    20570138.207    -7268834.117 9   2347794.697 7
  20324682.967    20324687.028    22063498.348 9 -60055900.655 8
  23269784.536    23269788.100    49520544.242 9 -38699432.086 9
 86  6 19  2  0 11.0800000  0  4G12G13G 9G11
  21928614.270    21928617.246   -25985978.034 9  31979534.844 8
  20570179.610    20570180.673    -7268604.367 9   2347973.712 8
  20326403.812    20326406.029    22072536.844 9 -60048857.670 8
  23272909.041    23272911.860    49536962.242 9 -38686638.839 9
 86  6 19  2  0 17.0800000  0  4G12G13G 9G11
  21925657.476    21925659.579   -26001518.371 9  31967425.501 9
  20570225.811    20570228.552    -7268358.721 9   2348165.131 9
  20328127.612    20328132.284    22081600.494 8 -60041795.088 8
  23276032.852    23276035.942    49553381.114 9 -38673844.917 9
 86  6 19  2  0 23.0800000  0  4G12G13G 9G11
  21922703.659    21922705.976   -26017043.578 9  31955327.931 8
  20570275.955    20570277.698    -7268097.206 9   2348368.905 9
  20329858.709    20329861.125    22090689.104 7 -60034713.052 8
  23279157.959    23279160.841    49569800.861 9 -38661050.315 9
 86  6 19  2  0 29.0800000  0  4G12G13G 9G11
  21919752.274    21919754.206   -26032553.598 9  31943242.215 9
  20570328.270    20570331.551    -7267819.860 9   2348585.019 9
  20331592.799    20331595.858    22099802.907 8 -60027611.384 8
  23282282.622    23282286.205    49586221.512 9 -38648255.011 9
 86  6 19  2  0 35.0800000  0  4G12G13G 9G11
  21916803.550    21916805.796   -26048048.470 9  31931168.288 8
  20570384.788    20570386.288    -7267526.718 9   2348813.440 8
  20333331.823    20333334.428    22108941.737 8 -60020490.232 8
  23285407.699    23285410.718    49602642.945 9 -38635459.090 9
 86  6 19  2  0 41.0800000  0  4G12G13G 9G11
  21913857.888    21913859.991   -26063528.163 9  31919106.191 8
  20570443.459    20570445.200    -7267217.744 9   2349054.207 8
  20335075.554    20335077.966    22118105.707 8 -60013349.465 8
  23288532.955    23288535.653    49619065.159 9 -38622662.560 9
 86  6 19  2  0 47.0800000  0  4G12G13G 9G11
  21910914.544    21910916.735   -26078992.632 9  31907055.956 8
  20570505.389    20570507.417    -7266892.920 9   2349307.320 8
  20336824.961    20336826.661    22127294.633 8 -60006189.264 8
  23291658.483    23291661.188    49635488.187 9 -38609865.402 9
 86  6 19  2  0 53.0800000  0  4G12G13G 9G11
  21907974.493    21907976.467   -26094441.884 9  31895017.579 8
  20570570.826    20570570.786    -7266552.318 9   2349572.728 8
  20338578.167    20338580.446    22136508.681 8 -59999009.489 9
  23294783.927    23294785.220    49651912.079 9 -38597067.570 9
 86  6 19  2  0 59.0800000  0  4G12G13G 9G11
  21905038.534    21905039.878   -26109875.877 9  31882991.107 8
  20570638.422    20570639.323    -7266195.947 9   2349850.414 8
  20340335.221    20340337.323    22145747.650 8 -59991810.292 8
  23297909.196    23297911.801    49668336.750 9 -38584269.129 9
 86  6 19  2  1  5.0800000  0  4G12G13G 9G11
  21902104.662    21902106.365   -26125294.629 9  31870976.488 8
  20570709.009    20570710.951    -7265823.739 9   2350140.440 9
  20342096.728    20342101.075    22155011.810 9 -59984591.466 8
  23301034.696    23301037.407    49684762.223 9 -38571470.059 9
 86  6 19  2  1 11.0800000  0  4G12G13G 9G11
  21899172.193    21899174.855   -26140698.132 9  31858973.762 8
  20570783.489    20570785.038    -7265435.772 9   2350442.759 8
  20343865.079    20343867.693    22164300.962 8 -59977353.172 7
  23304160.790    23304162.485    49701188.417 9 -38558670.437 9
 86  6 19  2  1 17.0800000  0  4G12G13G 9G11
  21896244.790    21896245.863   -26156086.235 9  31846983.029 9
  20570859.999    20570860.429    -7265032.118 9   2350757.286 8
  20345637.921    20345640.450    22173615.152 7 -59970095.370 8
  23307286.668    23307288.542    49717615.375 9 -38545870.213 9
 86  6 19  2  1 23.0800000  0  4G12G13G 9G11
  21893319.706    21893320.421   -26171458.945 9  31835004.305 8
  20570940.097    20570942.382    -7264612.739 9   2351084.078 9
  20347415.778    20347417.299    22182954.306 8 -59962818.111 8
  23310413.321    23310414.901    49734043.042 9 -38533069.434 9
 86  6 19  2  1 29.0800000  0  4G12G13G 9G11
  21890397.196    21890397.926   -26186816.150 9  31823037.656 8
  20571022.260    20571024.939    -7264177.598 9   2351423.141 8
  20349197.648    20349200.275    22192318.522 8 -59955521.330 8
  23313539.327    23313541.501    49750471.463 9 -38520268.077 9
 86  6 19  2  1 35.0800000  0  4G12G13G 9G11
  21887477.091    21887479.323   -26202157.939 9  31811083.016 8
  20571108.001    20571109.907    -7263726.755 9   2351774.459 8
  20350983.231    20350986.410    22201707.755 8 -59948205.047 8
  23316665.485    23316667.174    49766900.549 9 -38507466.194 9
 86  6 19  2  1 41.0800000  0  4G12G13G 9G11
  21884560.792    21884562.467   -26217484.322 9  31799140.390 9
  20571196.218    20571198.723    -7263260.183 9   2352138.020 9
  20352775.222    20352776.506    22211121.981 8 -59940869.292 8
  23319792.531    23319793.839    49783330.364 9 -38494663.746 9
 86  6 19  2  1 47.0800000  0  4G12G13G 9G11
  21881647.354    21881649.844   -26232795.290 9  31787209.751 9
  20571287.893    20571291.159    -7262777.955 9   2352513.789 8
  20354571.369    20354573.747    22220561.153 8 -59933514.089 6
  23322918.895    23322920.411    49799760.878 9 -38481860.753 9
 86  6 19  2  1 53.0800000  0  4G12G13G 9G11
  21878736.951    21878737.123   -26248090.813 9  31775291.173 8
  20571382.927    20571384.720    -7262280.146 9   2352901.694 9
  20356373.920    20356374.512    22230025.332 9 -59926139.406 8
  23326045.984    23326047.594    49816191.997 9 -38469057.287 9
 86  6 19  2  1 59.0800000  0  4G12G13G 9G11
  21875829.124    21875830.069   -26263370.812 9  31763384.676 8
  20571481.211    20571482.833    -7261766.702 9   2353301.782 9
  20358180.176    20358180.324    22239514.520 9 -59918745.233 8
  23329172.785    23329175.075    49832623.801 9 -38456253.288 9
 86  6 19  2  2  5.0800000  0  4G12G13G 9G11
  21872924.271    21872925.760   -26278635.300 9  31751490.269 9
  20571581.354    20571583.756    -7261237.586 9   2353714.075 9
  20359989.653    20359991.286    22249028.516 8 -59911331.733 8
  23332299.916    23332302.270    49849056.245 9 -38443448.798 9
 86  6 19  2  2 11.0800000  0  4G12G13G 9G11
  21870022.655    21870023.527   -26293884.194 9  31739608.008 8
  20571684.520    20571687.788    -7260692.799 9   2354138.603 9
  20361806.163    20361808.083    22258567.515 8 -59903898.758 7
  23335427.570    23335428.793    49865489.321 9 -38430643.808 9
 86  6 19  2  2 17.0800000  0  4G12G13G 9G11
  21867123.784    21867125.342   -26309117.558 9  31727737.869 8
  20571790.947    20571794.008    -7260132.456 9   2354575.223 9
  20363625.230    20363627.237    22268131.386 8 -59896446.400 8
  23338554.314    23338556.052    49881922.967 9 -38417838.373 9
 86  6 19  2  2 23.0800000  0  4G12G13G 9G11
  21864226.829    21864229.076   -26324335.335 9  31715879.852 8
  20571901.297    20571904.637    -7259556.580 9   2355023.955 9
  20365450.196    20365452.020    22277720.207 8 -59888974.591 8
  23341681.117    23341683.434    49898357.231 9 -38405032.461 9
 86  6 19  2  2 29.0800000  0  4G12G13G 9G11
  21861334.513    21861336.604   -26339537.440 9  31704034.051 9
  20572014.394    20572016.436    -7258965.102 9   2355484.859 8
  20367278.618    20367280.367    22287333.944 9 -59881483.380 8
  23344809.126    23344810.764    49914792.064 9 -38392226.111 9
 86  6 19  2  2 35.0800000  0  4G12G13G 9G11
  21858444.028    21858446.319   -26354723.849 9  31692200.496 8
  20572129.461    20572131.675    -7258358.006 9   2355957.925 9
  20369113.464    20369115.695    22296972.670 9 -59873972.690 8
  23347936.573    23347937.666    49931227.532 9 -38379419.248 9
 86  6 19  2  2 41.0800000  0  4G12G13G 9G11
  21855557.664    21855558.908   -26369894.622 9  31680379.106 8
  20572247.933    20572249.231    -7257735.365 9   2356443.087 8
  20370952.117    20370954.316    22306636.184 8 -59866442.688 8
  23351063.946    23351065.935    49947663.524 9 -38366611.991 9
 86  6 19  2  2 47.0800000  0  4G12G13G 9G11
  21852673.332    21852675.206   -26385049.684 9  31668569.969 8
  20572369.119    20572371.260    -7257097.205 9   2356940.367 8
  20372795.192    20372797.956    22316324.619 9 -59858893.257 9
  23354192.594    23354194.303    49964100.126 9 -38353804.253 9
 86  6 19  2  2 53.0800000  0  4G12G13G 9G11
  21849792.405    21849793.291   -26400189.065 9  31656773.046 8
  20572493.458    20572495.407    -7256443.511 9   2357449.739 9
  20374644.716    20374646.326    22326037.895 9 -59851324.473 9
  23357320.146    23357322.708    49980537.206 9 -38340996.148 9
 86  6 19  2  2 59.0800000  0  4G12G13G 9G11
  21846914.427    21846916.443   -26415312.697 9  31644988.400 8
  20572620.482    20572622.738    -7255774.320 9   2357971.186 8
  20376497.845    20376500.172    22335776.068 9 -59843736.294 7
  23360448.616    23360449.223    49996974.777 9 -38328187.651 9
 86  6 19  2  3  5.0800000  0  4G12G13G 9G11
  21844039.910    21844041.456   -26430420.551 9  31633216.048 9
  20572751.466    20572753.528    -7255089.593 9   2358504.718 8
  20378355.229    20378357.381    22345539.121 9 -59836128.720 8
  23363576.025    23363578.250    50013412.915 9 -38315378.721 9
 86  6 19  2  3 11.0800000  0  4G12G13G 9G11
  21841167.512    21841170.145   -26445512.623 9  31621455.990 8
  20572884.057    20572888.029    -7254389.300 9   2359050.420 7
  20380218.121    20380220.042    22355327.072 9 -59828501.749 8
  23366703.893    23366706.176    50029851.636 9 -38302569.347 9
 86  6 19  2  3 17.0800000  0  4G12G13G 9G11
  21838298.920    21838301.396   -26460588.862 9  31609708.275 8
  20573020.500    20573023.336    -7253673.524 9   2359608.162 8
  20382085.270    20382088.129    22365139.903 9 -59820855.402 9
  23369832.513    23369834.688    50046290.830 9 -38289759.579 9
 86  6 19  2  3 23.0800000  0  4G12G13G 9G11
  21835432.531    21835435.306   -26475649.221 9  31597972.931 9
  20573159.470    20573162.832    -7252942.369 9   2360177.886 9
  20383957.697    20383960.542    22374977.532 9 -59813189.717 8
  23372960.716    23372962.892    50062730.504 9 -38276949.461 9
 86  6 19  2  3 29.0800000  0  4G12G13G 9G11
  21832569.834    21832572.281   -26490693.707 9  31586249.964 8
  20573301.919    20573304.558    -7252195.751 9   2360759.669 9
  20385834.462    20385835.207    22384840.020 9 -59805504.660 8
  23376089.200    23376090.515    50079170.655 9 -38264138.948 8
 86  6 19  2  3 35.0800000  0  4G12G13G 9G11
  21829710.171    21829712.604   -26505722.292 9  31574539.379 9
  20573446.427    20573449.485    -7251433.722 9   2361353.470 8
  20387715.847    20387717.257    22394727.342 9 -59797800.263 8
  23379218.055    23379219.206    50095611.299 9 -38251328.067 9
 86  6 19  2  3 41.0800000  0  4G12G13G 9G11
  21826853.427    21826855.773   -26520735.019 9  31562841.149 7
  20573594.277    20573597.917    -7250656.263 9   2361959.280 8
  20389601.767    20389602.511    22404639.293 9 -59790076.671 9
  23382346.460    23382348.119    50112052.327 9 -38238516.880 8
 86  6 19  2  3 47.0800000  0  4G12G13G 9G11
  21823999.315    21824002.765   -26535731.796 9  31551155.357 8
  20573746.274    20573749.488    -7249863.407 9   2362577.081 8
  20391491.745    20391493.275    22414576.106 8 -59782333.703 7
  23385475.228    23385477.689    50128493.792 9 -38225705.357 9
 86  6 19  2  3 53.0800000  0  4G12G13G 9G11
  21821148.353    21821150.585   -26550712.595 9  31539482.009 8
  20573900.005    20573902.731    -7249055.150 9   2363206.893 8
  20393388.552    20393388.886    22424537.691 9 -59774571.432 8
  23388603.383    23388605.729    50144935.685 9 -38212893.510 9
 86  6 19  2  3 59.0800000  0  4G12G13G 9G11
  21818300.680    21818302.483   -26565677.330 9  31527821.180 8
  20574056.185    20574058.881    -7248231.471 9   2363848.734 8
  20395288.669    20395289.438    22434524.135 9 -59766789.781 8
  23391732.652    23391734.505    50161377.975 9 -38200081.338 9
 86  6 19  2  4  5.0800000  0  4G12G13G 9G11
  21815456.700    21815458.561   -26580626.060 9  31516172.810 8
  20574215.424    20574217.879    -7247392.416 9   2364502.547 8
  20397192.882    20397195.451    22444535.407 8 -59758988.806 8
  23394861.508    23394863.654    50177820.684 9 -38187268.845 9
 86  6 19  2  4 11.0800000  0  4G12G13G 9G11
  21812614.951    21812616.653   -26595558.776 9  31504536.933 9
  20574378.437    20574381.201    -7246537.909 9   2365168.394 8
  20399103.140    20399103.104    22454571.322 9 -59751168.604 8
  23397990.269    23397993.739    50194263.763 9 -38174456.060 9
 86  6 19  2  4 17.0800000  0  4G12G13G 9G11
  21809776.552    21809779.043   -26610475.389 9  31492913.604 8
  20574543.658    20574545.598    -7245668.123 9   2365846.154 8
  20401018.092    20401017.652    22464632.100 8 -59743329.044 8
  23401119.453    23401122.216    50210707.230 9 -38161642.982 9
 86  6 19  2  4 23.0800000  0  4G12G13G 9G11
  21806940.927    21806942.631   -26625375.926 9  31481302.797 8
  20574712.163    20574715.471    -7244783.006 9   2366535.853 8
  20402938.315    20402937.499    22474717.635 9 -59735470.198 8
  23404248.416    23404251.077    50227151.104 9 -38148829.573 9
 86  6 19  2  4 29.0800000  0  4G12G13G 9G11
  21804108.967    21804109.940   -26640260.352 9  31469704.547 9
  20574883.212    20574885.884    -7243882.545 8   2367237.509 8
  20404861.709    20404861.262    22484827.857 8 -59727592.092 9
  23407377.779    23407380.834    50243595.325 9 -38136015.902 9
 86  6 19  2  4 35.0800000  0  4G12G13G 9G11
  21801279.496    21801280.155   -26655128.709 9  31458118.820 9
  20575057.637    20575060.401    -7242966.760 9   2367951.116 9
  20406790.388    20406789.938    22494962.790 9 -59719694.745 8
  23410507.243    23410509.704    50260039.929 9 -38123201.930 9
 86  6 19  2  4 41.0800000  0  4G12G13G 9G11
  21798453.975    21798454.605   -26669980.885 9  31446545.681 8
  20575234.618    20575238.414    -7242035.701 9   2368676.613 8
  20408723.031    20408724.517    22505122.502 8 -59711778.090 8
  23413636.586    23413639.438    50276484.861 9 -38110387.702 9
 86  6 19  2  4 47.0800000  0  4G12G13G 9G11
  21795630.429    21795631.817   -26684816.840 9  31434985.205 9
  20575415.410    20575416.597    -7241089.279 9   2369414.079 8
  20410660.808    20410662.395    22515306.875 8 -59703842.227 8
  23416766.713    23416769.002    50292930.113 9 -38097573.234 9
 86  6 19  2  4 53.0800000  0  4G12G13G 9G11
  21792809.914    21792811.118   -26699636.691 9  31423437.277 9
  20575599.606    20575600.510    -7240127.581 9   2370163.462 8
  20412603.774    20412605.280    22525515.894 9 -59695887.138 8
  23419895.861    23419897.922    50309375.630 9 -38084758.545 8
 86  6 19  2  4 59.0800000  0  4G12G13G 9G11
  21789993.266    21789994.512   -26714440.317 9  31411901.991 8
  20575785.397    20575785.822    -7239150.685 9   2370924.682 8
  20414549.718    20414553.192    22535749.693 8 -59687912.764 8
  23423026.012    23423027.614    50325821.385 9 -38071943.684 9
 86  6 19  2  5  5.0800000  0  4G12G13G 9G11
  21787179.392    21787179.892   -26729227.649 9  31400379.388 8
  20575973.856    20575974.236    -7238158.611 9   2371697.730 8
  20416503.063    20416504.286    22546008.188 9 -59679919.145 7
  23426154.974    23426157.965    50342267.463 9 -38059128.558 9
 86  6 19  2  5 11.0800000  0  4G12G13G 9G11
  21784368.236    21784368.809   -26743998.722 9  31388869.474 8
  20576165.334    20576166.590    -7237151.288 9   2372482.653 8
  20418460.010    20418461.339    22556291.342 9 -59671906.298 7
  23429284.543    23429286.998    50358713.800 9 -38046313.237 9
 86  6 19  2  5 17.0800000  0  4G12G13G 9G11
  21781560.573    21781561.673   -26758753.439 9  31377372.279 8
  20576360.319    20576361.595    -7236128.744 9   2373279.445 8
  20420420.888    20420423.398    22566599.131 9 -59663874.262 8
  23432414.408    23432417.356    50375160.388 9 -38033497.718 9
 86  6 19  2  5 23.0800000  0  4G12G13G 9G11
  21778755.026    21778757.490   -26773491.873 9  31365887.788 8
  20576557.461    20576558.652    -7235091.058 9   2374088.024 8
  20422387.600    20422390.273    22576931.537 8 -59655823.046 8
  23435543.185    23435546.139    50391607.184 9 -38020682.050 9
 86  6 19  2  5 29.0800000  0  4G12G13G 9G11
  21775954.060    21775956.736   -26788213.970 9  31354416.034 9
  20576757.896    20576758.500    -7234038.199 9   2374908.440 8
  20424358.971    20424360.521    22587288.514 9 -59647752.675 8
  23438673.729    23438676.346    50408054.155 9 -38007866.226 9
 86  6 19  2  5 35.0800000  0  4G12G13G 9G11
  21773155.955    21773157.773   -26802919.631 9  31342957.069 8
  20576960.457    20576960.939    -7232970.136 9   2375740.699 8
  20426334.835    20426335.936    22597670.088 9 -59639663.140 8
  23441802.763    23441806.039    50424501.403 9 -37995050.200 9
 86  6 19  2  5 41.0800000  0  4G12G13G 9G11
  21770360.254    21770361.956   -26817608.943 9  31331510.858 8
  20577167.097    20577168.044    -7231886.895 9   2376584.784 8
  20428315.733    20428315.875    22608076.324 9 -59631554.381 8
  23444931.991    23444936.138    50440948.825 9 -37982234.041 8
 86  6 19  2  5 47.0800000  0  4G12G13G 9G11
  21767568.759    21767571.451   -26832281.808 9  31320077.465 8
  20577376.485    20577378.079    -7230788.514 9   2377440.668 8
  20430300.309    20430301.434    22618507.096 9 -59623426.514 8
  23448061.860    23448066.003    50457396.439 9 -37969417.722 9
 86  6 19  2  5 53.0800000  0  4G12G13G 9G11
  21764779.154    21764782.231   -26846938.275 9  31308656.826 9
  20577587.670    20577589.691    -7229675.106 9   2378308.270 8
  20432290.340    20432289.995    22628962.465 9 -59615279.463 7
  23451191.138    23451195.645    50473844.168 9 -37956601.311 9
 86  6 19  2  5 59.0800000  0  4G12G13G 9G11
  21761993.012    21761996.104   -26861578.234 9  31297249.081 8
  20577802.873    20577803.993    -7228546.441 9   2379187.748 8
  20434284.624    20434285.060    22639442.480 8 -59607113.226 8
  23454321.467    23454325.573    50490292.101 9 -37943784.755 9
 86  6 19  2  6  5.0800000  0  4G12G13G 9G11
  21759210.532    21759213.766   -26876201.660 9  31285854.199 9
  20578020.084    20578021.828    -7227402.634 9   2380079.030 8
  20436283.052    20436284.415    22649946.949 9 -59598927.929 8
  23457451.131    23457456.082    50506740.229 9 -37930968.044 9
 86  6 19  2  6 11.0800000  0  4G12G13G 9G11
  21756430.027    21756434.277   -26890808.581 9  31274472.186 8
  20578240.534    20578242.350    -7226243.753 9   2380982.065 8
  20438287.693    20438288.726    22660476.039 8 -59590723.444 7
  23460581.682    23460586.052    50523188.534 9 -37918151.189 8
 86  6 19  2  6 17.0800000  0  4G12G13G 9G11
  21753654.187    21753657.965   -26905398.938 9  31263103.074 8
  20578464.173    20578465.907    -7225069.736 9   2381896.873 7
  20440295.379    20440296.391    22671029.648 9 -59582499.861 8
  23463711.525    23463715.452    50539636.965 8 -37905334.237 9
 86  6 19  2  6 23.0800000  0  4G12G13G 9G11
  21750880.122    21750884.613   -26919972.707 9  31251746.896 9
  20578689.788    20578693.158    -7223880.754 9   2382823.360 9
  20442309.012    20442308.535    22681607.843 9 -59574257.114 8
  23466840.801    23466845.959    50556085.513 9 -37892517.195 9
 86  6 19  2  6 29.0800000  0  4G12G13G 9G11
  21748110.120    21748113.696   -26934529.990 9  31240403.560 9
  20578919.663    20578920.789    -7222676.758 9   2383761.543 9
  20444325.273    20444326.078    22692210.583 9 -59565995.223 8
  23469972.024    23469975.836    50572534.179 9 -37879700.057 9
 86  6 19  2  6 35.0800000  0  4G12G13G 9G11
  21745343.323    21745346.457   -26949070.683 9  31229073.148 9
  20579151.215    20579152.720    -7221457.737 9   2384711.432 9
  20446347.213    20446348.773    22702837.821 9 -59557714.269 9
  23473101.774    23473106.209    50588982.944 9 -37866882.851 8
 86  6 19  2  6 41.0800000  0  4G12G13G 9G11
  21742579.388    21742582.378   -26963594.713 9  31217755.726 9
  20579386.458    20579387.607    -7220223.676 9   2385673.025 8
  20448374.382    20448375.888    22713489.489 9 -59549414.271 8
  23476232.181    23476235.578    50605431.741 9 -37854065.604 9
 86  6 19  2  6 47.0800000  0  4G12G13G 9G11
  21739819.747    21739821.808   -26978102.070 9  31206451.289 8
  20579623.741    20579625.116    -7218974.670 9   2386646.277 8
  20450406.542    20450407.432    22724165.736 9 -59541095.126 8
  23479362.573    23479366.323    50621880.630 9 -37841248.287 9
 86  6 19  2  6 53.0800000  0  4G12G13G 9G11
  21737061.364    21737065.413   -26992592.669 9  31195159.904 7
  20579864.947    20579866.818    -7217710.594 9   2387631.261 8
  20452442.193    20452443.423    22734866.431 8 -59532756.923 9
  23482492.353    23482495.614    50638329.617 9 -37828430.912 8
 86  6 19  2  6 59.0800000  0  4G12G13G 9G11
  21734307.274    21734311.638   -27007066.590 9  31183881.527 9
  20580108.201    20580110.282    -7216431.521 9   2388627.934 9
  20454482.992    20454484.033    22745591.628 9 -59524399.623 8
  23485622.417    23485627.095    50654778.676 9 -37815613.462 9
 86  6 19  2  7  5.0800000  0  4G12G13G 9G11
  21731555.788    21731559.150   -27021523.776 9  31172616.190 8
  20580354.509    20580356.675    -7215137.479 9   2389636.280 8
  20456527.903    20456528.502    22756341.208 9 -59516023.330 8
  23488752.911    23488756.774    50671227.715 9 -37802796.049 9
 86  6 19  2  7 11.0800000  0  4G12G13G 9G11
  21728808.481    21728811.729   -27035964.319 9  31161363.815 8
  20580603.012    20580604.624    -7213828.612 9   2390656.183 9
  20458578.887    20458577.705    22767115.255 8 -59507627.980 7
  23491882.725    23491887.653    50687676.709 9 -37789978.648 8
 86  6 19  2  7 17.0800000  0  4G12G13G 9G11
  21726063.605    21726066.626   -27050388.127 9  31150124.468 8
  20580855.427    20580857.991    -7212504.876 9   2391687.654 8
  20460632.854    20460634.379    22777913.663 8 -59499213.633 8
  23495013.755    23495016.472    50704125.714 9 -37777161.256 9
 86  6 19  2  7 23.0800000  0  4G12G13G 9G11
  21723322.165    21723325.929   -27064795.127 9  31138898.244 9
  20581110.226    20581113.009    -7211166.188 9   2392730.796 8
  20462693.003    20462693.350    22788736.614 9 -59490780.167 8
  23498142.610    23498146.724    50720574.723 9 -37764343.853 9
 86  6 19  2  7 29.0800000  0  4G12G13G 9G11
  21720583.071    21720586.662   -27079185.273 9  31127685.139 8
  20581367.191    20581370.018    -7209812.565 9   2393785.563 8
  20464757.230    20464758.907    22799583.925 9 -59482327.724 8
  23501273.426    23501276.709    50737023.769 9 -37751526.418 8
 86  6 19  2  7 35.0800000  0  4G12G13G 9G11
  21717847.897    21717852.348   -27093558.557 9  31116485.168 9
  20581628.321    20581630.417    -7208444.066 9   2394851.924 8
  20466826.403    20466826.343    22810455.650 9 -59473856.249 8
  23504404.048    23504407.223    50753472.777 9 -37738709.018 9
 86  6 19  2  7 41.0800000  0  4G12G13G 9G11
  21715116.702    21715120.323   -27107914.924 9  31105298.385 8
  20581890.293    20581893.787    -7207060.597 9   2395929.964 8
  20468900.829    20468901.625    22821351.767 8 -59465365.775 8
  23507534.212    23507538.104    50769921.748 9 -37725891.642 8
 86  6 19  2  7 47.0800000  0  4G12G13G 9G11
  21712387.997    21712391.188   -27122254.459 9  31094124.726 8
  20582156.502    20582159.921    -7205662.284 9   2397019.551 8
  20470978.352    20470979.106    22832272.176 8 -59456856.367 8
  23510665.292    23510668.017    50786370.653 9 -37713074.325 9
 86  6 19  2  7 53.0800000  0  4G12G13G 9G11
  21709662.496    21709665.888   -27136577.073 9  31082964.245 9
  20582425.572    20582428.297    -7204249.178 9   2398120.679 9
  20473061.986    20473061.538    22843216.981 9 -59448327.936 8
  23513794.527    23513797.189    50802819.465 9 -37700257.074 9
 86  6 19  2  7 59.0800000  0  4G12G13G 9G11
  21706940.030    21706943.278   -27150882.803 9  31071816.929 8
  20582696.986    20582699.771    -7202821.236 9   2399233.363 9
  20475148.581    20475149.610    22854186.245 9 -59439780.477 9
  23516925.141    23516928.834    50819268.173 9 -37687439.907 8
 86  6 19  2  8  5.0800000  0  4G12G13G 9G11
  21704221.485    21704223.330   -27165171.548 9  31060682.837 9
  20582972.219    20582974.294    -7201378.387 9   2400357.664 8
  20477240.319    20477241.040    22865179.759 9 -59431214.106 8
  23520055.835    23520057.832    50835716.843 9 -37674622.759 8
 86  6 19  2  8 11.0800000  0  4G12G13G 9G11
  21701505.572    21701507.632   -27179443.389 9  31049561.934 9
  20583249.206    20583252.734    -7199920.808 9   2401493.437 8
  20479336.042    20479336.817    22876197.526 8 -59422628.850 7
  23523185.183    23523187.860    50852165.399 9 -37661805.712 8
 86  6 19  2  8 17.0800000  0  4G12G13G 9G11
  21698792.491    21698795.954   -27193698.218 9  31038454.263 9
  20583529.255    20583531.536    -7198448.402 9   2402640.776 8
  20481437.836    20481439.394    22887239.649 8 -59414024.596 8
  23526316.508    23526318.374    50868613.828 8 -37648988.758 9
 86  6 19  2  8 23.0800000  0  4G12G13G 9G11
  21696082.616    21696086.121   -27207936.003 9  31027359.889 9
  20583812.801    20583814.963    -7196961.267 9   2403799.591 8
  20483544.375    20483546.132    22898306.153 9 -59405401.352 7
  23529445.693    23529448.847    50885062.174 9 -37636171.875 8
 86  6 19  2  8 29.0800000  0  4G12G13G 9G11
  21693376.691    21693379.554   -27222156.770 9  31016278.765 9
  20584098.103    20584100.124    -7195459.265 9   2404969.980 8
  20485653.922    20485654.783    22909396.859 9 -59396759.263 8
  23532575.447    23532577.516    50901510.357 9 -37623355.110 9
 86  6 19  2  8 35.0800000  0  4G12G13G 9G11
  21690673.972    21690676.190   -27236360.500 9  31005210.938 9
  20584387.375    20584388.750    -7193942.546 9   2406151.837 8
  20487770.843    20487769.611    22920511.866 9 -59388098.212 7
  23535706.158    23535708.195    50917958.414 9 -37610538.458 8
 86  6 19  2  8 41.0800000  0  4G12G13G 9G11
  21687974.571    21687977.863   -27250547.044 9  30994156.483 8
  20584678.746    20584679.543    -7192411.080 9   2407345.193 8
  20489889.974    20489888.820    22931651.126 9 -59379418.289 8
  23538835.792    23538838.031    50934406.337 9 -37597721.895 8
 86  6 19  2  8 47.0800000  0  4G12G13G 9G11
  21685277.890    21685280.751   -27264716.481 9  30983115.375 8
  20584973.125    20584974.739    -7190864.920 9   2408549.997 8
  20492014.488    20492014.513    22942814.657 9 -59370719.425 8
  23541964.883    23541968.402    50950854.079 9 -37584905.487 8
 86  6 19  2  8 53.0800000  0  4G12G13G 9G11
  21682584.642    21682587.389   -27278868.809 9  30972087.578 9
  20585270.138    20585270.963    -7189304.028 9   2409766.283 8
  20494143.467    20494143.009    22954002.457 9 -59362001.659 7
  23545095.219    23545097.879    50967301.634 9 -37572089.215 9
 86  6 19  2  8 59.0800000  0  4G12G13G 9G11
  21679895.831    21679897.720   -27293004.011 9  30961073.149 8
  20585570.352    20585571.783    -7187728.442 9   2410994.003 8
  20496276.217    20496275.240    22965214.477 9 -59353265.021 8
  23548224.646    23548228.253    50983749.065 9 -37559273.047 8
 86  6 19  2  9  5.0800000  0  4G12G13G 9G11
  21677209.052    21677210.854   -27307122.060 9  30950072.074 9
  20585872.487    20585874.129    -7186138.261 9   2412233.109 7
  20498415.618    20498414.015    22976450.724 9 -59344509.505 8
  23551354.002    23551357.255    51000196.276 9 -37546457.042 8
 86  6 19  2  9 11.0800000  0  4G12G13G 9G11
  21674526.078    21674528.797   -27321222.884 9  30939084.411 8
  20586177.959    20586179.021    -7184533.445 9   2413483.616 8
  20500557.743    20500555.819    22987711.090 9 -59335735.197 7
  23554484.165    23554487.049    51016643.260 8 -37533641.225 9
 86  6 19  2  9 17.0800000  0  4G12G13G 9G11
  21671845.709    21671848.370   -27335306.458 9  30928110.209 8
  20586486.216    20586486.604    -7182914.009 9   2414745.517 8
  20502704.322    20502704.518    22998995.725 9 -59326941.973 8
  23557614.245    23557617.149    51033090.034 9 -37520825.553 8
 86  6 19  2  9 23.0800000  0  4G12G13G 9G11
  21669169.404    21669171.292   -27349372.816 9  30917149.411 8
  20586797.141    20586797.945    -7181279.916 9   2416018.834 7
  20504856.711    20504858.210    23010304.549 9 -59318129.904 6
  23560743.831    23560747.686    51049536.619 9 -37508010.049 8
 86  6 19  2  9 29.0800000  0  4G12G13G 9G11
  21666495.330    21666498.250   -27363421.869 9  30906202.088 8
  20587110.476    20587112.514    -7179631.142 9   2417303.596 9
  20507013.411    20507013.509    23021637.500 9 -59309299.054 8
  23563873.072    23563877.142    51065982.961 9 -37495194.707 8
 86  6 19  2  9 35.0800000  0  4G12G13G 9G11
  21663825.808    21663827.770   -27377453.559 9  30895268.307 9
  20587427.872    20587430.104    -7177967.756 9   2418599.739 8
  20509174.932    20509175.602    23032994.645 9 -59300449.320 7
  23567002.735    23567006.448    51082429.054 9 -37482379.587 8
 86  6 19  2  9 41.0800000  0  4G12G13G 9G11
  21661158.633    21661161.337   -27391467.902 9  30884348.042 8
  20587747.110    20587748.677    -7176289.772 9   2419907.253 9
  20511340.425    20511340.926    23044375.928 9 -59291580.797 8
  23570132.492    23570135.754    51098874.894 9 -37469564.650 7
 86  6 19  2  9 47.0800000  0  4G12G13G 9G11
  21658496.035    21658497.737   -27405464.863 9  30873441.324 8
  20588068.914    20588070.990    -7174597.251 9   2421226.110 7
  20513510.935    20513511.905    23055781.398 9 -59282693.421 7
  23573261.997    23573264.387    51115320.433 9 -37456749.942 8
 86  6 19  2  9 53.0800000  0  4G12G13G 9G11
  21655836.042    21655837.044   -27419444.423 9  30862548.163 9
  20588393.768    20588395.727    -7172890.265 9   2422556.224 8
  20515684.584    20515687.396    23067210.825 9 -59273787.383 8
  23576391.097    23576394.036    51131765.678 9 -37443935.482 8
 86  6 19  2  9 59.0800000  0  4G12G13G 9G11
  21653178.024    21653180.144   -27433406.556 9  30851668.578 8
  20588721.800    20588723.888    -7171168.760 9   2423897.653 7
  20517865.403    20517866.215    23078664.527 9 -59264862.427 8
  23579520.316    23579523.479    51148210.628 9 -37431121.249 8
 86  6 19  2 10  5.0800000  0  4G12G13G 9G11
  21650524.928    21650525.802   -27447351.226 9  30840802.609 9
  20589051.201    20589052.866    -7169432.648 9   2425250.470 8
  20520050.538    20520049.344    23090142.313 9 -59255918.715 9
  23582649.951    23582652.326    51164655.335 9 -37418307.192 8
 86  6 19  2 10 11.0800000  0  4G12G13G 9G11
  21647874.552    21647876.569   -27461278.469 9  30829950.210 7
  20589384.386    20589388.623    -7167681.991 9   2426614.620 8
  20522238.674    20522239.527    23101644.192 9 -59246956.203 8
  23585778.870    23585781.224    51181099.754 8 -37405493.371 7
 86  6 19  2 10 17.0800000  0  4G12G13G 9G11
  21645227.466    21645229.755   -27475188.300 9  30819111.386 8
  20589720.124    20589721.537    -7165916.850 9   2427990.047 9
  20524431.300    20524433.366    23113170.156 9 -59237974.940 7
  23588907.784    23588911.346    51197543.770 9 -37392679.868 9
 86  6 19  2 10 23.0800000  0  4G12G13G 9G11
  21642583.556    21642585.002   -27489080.692 9  30808286.145 8
  20590058.528    20590060.665    -7164137.220 9   2429376.778 8
  20526629.586    20526631.473    23124720.168 8 -59228974.940 7
  23592037.540    23592041.067    51213987.394 9 -37379866.661 9
 86  6 19  2 10 29.0800000  0  4G12G13G 9G11
  21639943.482    21639944.854   -27502955.595 9  30797474.541 9
  20590400.630    20590402.864    -7162343.044 9   2430774.820 8
  20528830.156    20528833.013    23136294.220 9 -59219956.201 8
  23595165.709    23595170.093    51230430.734 9 -37367053.651 8
 86  6 19  2 10 35.0800000  0  4G12G13G 9G11
  21637305.267    21637307.500   -27516812.951 9  30786676.603 9
  20590744.472    20590746.823    -7160534.359 9   2432184.196 8
  20531038.588    20531040.455    23147892.365 9 -59210918.689 7
  23598295.865    23598299.156    51246873.725 8 -37354240.945 9
 86  6 19  2 10 41.0800000  0  4G12G13G 9G11
  21634672.263    21634674.579   -27530652.808 9  30775892.301 8
  20591092.659    20591093.801    -7158711.228 9   2433604.816 8
  20533248.824    20533252.240    23159514.455 9 -59201862.520 8
  23601423.575    23601427.502    51263316.305 9 -37341428.560 8
 86  6 19  2 10 47.0800000  0  4G12G13G 9G11
  21632041.603    21632043.406   -27544475.066 9  30765121.701 9
  20591441.821    20591443.476    -7156873.680 9   2435036.667 8
  20535465.276    20535467.961    23171160.581 8 -59192787.619 8
  23604552.608    23604556.236    51279758.454 9 -37328616.501 8
 86  6 19  2 10 53.0800000  0  4G12G13G 9G11
  21629414.551    21629417.054   -27558279.733 9  30754364.820 8
  20591793.315    20591795.311    -7155021.666 9   2436479.804 9
  20537686.091    20537688.942    23182830.650 9 -59183694.056 8
  23607681.358    23607684.254    51296200.173 8 -37315804.772 7
 86  6 19  2 10 59.0800000  0  4G12G13G 9G11
  21626790.559    21626792.892   -27572066.760 9  30743621.695 9
  20592149.734    20592150.877    -7153155.255 9   2437934.149 8
  20539911.285    20539914.393    23194524.780 9 -59174581.755 7
  23610810.872    23610813.782    51312641.545 9 -37302993.318 8
 86  6 19  2 11  5.0800000  0  4G12G13G 9G11
  21624170.175    21624172.736   -27585836.121 9  30732892.322 9
  20592507.731    20592508.141    -7151274.446 9   2439399.708 8
  20542140.886    20542144.342    23206242.920 9 -59165450.740 8
  23613939.182    23613942.738    51329082.441 9 -37290182.248 8
 86  6 19  2 11 11.0800000  0  4G12G13G 9G11
  21621553.653    21621556.358   -27599587.804 9  30722176.726 9
  20592868.016    20592868.716    -7149379.257 9   2440876.485 8
  20544374.952    20544377.712    23217984.973 9 -59156301.096 8
  23617067.363    23617070.411    51345522.944 8 -37277371.474 8
 86  6 19  2 11 17.0800000  0  4G12G13G 9G11
  21618940.194    21618942.426   -27613321.834 9  30711474.886 8
  20593232.227    20593232.190    -7147469.809 9   2442364.375 8
  20546613.329    20546616.766    23229750.876 8 -59147132.852 8
  23620196.078    23620198.458    51361962.904 9 -37264561.125 8
 86  6 19  2 11 23.0800000  0  4G12G13G 9G11
  21616329.740    21616332.573   -27627038.101 9  30700786.887 9
  20593597.975    20593598.322    -7145546.023 9   2443863.423 9
  20548858.021    20548859.868    23241540.780 9 -59137945.932 8
  23623324.667    23623327.686    51378402.408 9 -37251751.129 7
 86  6 19  2 11 29.0800000  0  4G12G13G 9G11
  21613723.178    21613726.152   -27640736.636 9  30690112.701 8
  20593965.718    20593967.719    -7143607.863 9   2445373.672 9
  20551106.176    20551108.490    23253354.591 9 -59128740.352 7
  23626452.656    23626455.561    51394841.444 9 -37238941.493 7
 86  6 19  2 11 35.0800000  0  4G12G13G 9G11
  21611119.421    21611122.139   -27654417.445 9  30679452.340 8
  20594337.739    20594338.777    -7141655.414 9   2446895.069 8
  20553358.457    20553361.098    23265192.353 8 -59119516.131 8
  23629580.796    23629585.068    51411279.996 9 -37226132.241 9
 86  6 19  2 11 41.0800000  0  4G12G13G 9G11
  21608519.411    21608521.498   -27668080.569 9  30668805.736 8
  20594711.974    20594713.429    -7139688.687 9   2448427.591 8
  20555616.450    20555617.891    23277053.944 8 -59110273.324 8
  23632708.135    23632712.621    51427718.032 8 -37213323.383 8
 86  6 19  2 11 47.0800000  0  4G12G13G 9G11
  21605922.923    21605925.556   -27681725.821 9  30658173.087 8
  20595088.782    20595090.062    -7137707.653 9   2449971.251 9
  20557877.302    20557879.996    23288939.421 8 -59101011.923 8
  23635837.269    23635840.480    51444155.593 8 -37200514.917 8
 86  6 19  2 11 53.0800000  0  4G12G13G 9G11
  21603329.468    21603332.501   -27695353.167 9  30647554.379 9
  20595468.233    20595470.531    -7135712.284 9   2451526.082 9
  20560144.462    20560145.319    23300848.832 9 -59091731.860 8
  23638963.604    23638967.970    51460592.667 9 -37187706.819 8
 86  6 19  2 11 59.0800000  0  4G12G13G 9G11
  21600739.962    21600743.354   -27708962.636 9  30636949.597 9
  20595851.376    20595853.150    -7133702.708 9   2453091.996 8
  20562413.599    20562416.298    23312782.138 8 -59082433.188 8
  23642092.339    23642095.901    51477029.251 9 -37174899.100 8
 86  6 19  2 12  5.0800000  0  4G12G13G 9G11
  21598153.891    21598156.653   -27722554.239 9  30626358.737 9
  20596236.845    20596238.002    -7131678.871 9   2454668.992 8
  20564689.844    20564691.950    23324739.222 8 -59073115.963 9
  23645219.907    23645223.399    51493465.303 8 -37162091.788 9
 86  6 19  2 12 11.0800000  0  4G12G13G 9G11
  21595570.481    21595573.127   -27736127.954 9  30615781.826 8
  20596623.994    20596625.976    -7129640.758 9   2456257.130 8
  20566969.922    20566972.067    23336720.029 9 -59063780.294 8
  23648346.914    23648350.665    51509900.782 8 -37149284.938 8
 86  6 19  2 12 17.0800000  0  4G12G13G 9G11
  21592990.562    21592994.498   -27749683.765 9  30605218.843 8
  20597014.349    20597016.209    -7127588.428 9   2457856.363 8
  20569254.518    20569255.991    23348724.704 8 -59054426.001 8
  23651474.376    23651478.052    51526335.747 8 -37136478.476 8
 86  6 19  2 12 23.0800000  0  4G12G13G 9G11
  21590415.194    21590417.456   -27763221.717 9  30594669.807 8
  20597407.537    20597409.912    -7125521.948 9   2459466.612 9
  20571542.446    20571545.781    23360753.197 8 -59045053.146 7
  23654602.079    23654605.926    51542770.134 9 -37123672.469 8
 86  6 19  2 12 29.0800000  0  4G12G13G 9G11
  21587842.430    21587845.679   -27776741.691 9  30584134.757 8
  20597803.784    20597804.445    -7123441.272 9   2461087.914 8
  20573835.380    20573838.171    23372805.527 9 -59035661.728 7
  23657729.810    23657732.099    51559203.959 8 -37110866.901 7
 86  6 19  2 12 35.0800000  0  4G12G13G 9G11
  21585272.384    21585276.906   -27790243.608 9  30573613.782 9
  20598202.048    20598202.727    -7121346.385 9   2462720.297 8
  20576134.015    20576135.831    23384881.502 8 -59026251.880 8
  23660856.291    23660859.767    51575637.196 8 -37098061.795 8
 86  6 19  2 12 41.0800000  0  4G12G13G 9G11
  21582707.462    21582710.439   -27803727.553 9  30563106.818 8
  20598603.161    20598604.970    -7119237.364 9   2464363.687 8
  20578436.967    20578438.897    23396981.252 8 -59016823.505 7
  23663983.635    23663987.011    51592069.814 8 -37085257.162 7
 86  6 19  2 12 47.0800000  0  4G12G13G 9G11
  21580145.231    21580147.934   -27817193.490 9  30552613.877 8
  20599006.755    20599009.144    -7117114.348 9   2466017.982 9
  20580742.109    20580745.852    23409104.724 8 -59007376.654 8
  23667110.896    23667114.422    51608501.729 9 -37072453.086 8
 86  6 19  2 12 53.0800000  0  4G12G13G 9G11
  21577585.717    21577588.565   -27830641.393 9  30542134.988 8
  20599413.058    20599416.077    -7114977.258 9   2467683.252 8
  20583055.466    20583057.240    23421251.946 8 -58997911.296 7
  23670238.141    23670239.899    51624932.921 9 -37059649.565 8
 86  6 19  2 12 59.0800000  0  4G12G13G 9G11
  21575029.924    21575033.157   -27844071.219 9  30531670.201 9
  20599822.897    20599825.752    -7112825.949 9   2469359.596 8
  20585371.558    20585372.577    23433422.870 9 -58988427.457 7
  23673364.521    23673367.589    51641363.484 9 -37046846.535 8
 86  6 19  2 13  5.0800000  0  4G12G13G 9G11
  21572478.422    21572480.640   -27857482.910 9  30521219.528 8
  20600235.056    20600237.384    -7110660.572 9   2471046.901 9
  20587692.598    20587693.497    23445617.465 8 -58978925.182 7
  23676491.837    23676495.442    51657793.398 8 -37034044.023 7
 86  6 19  2 13 11.0800000  0  4G12G13G 9G11
  21569929.899    21569932.302   -27870876.465 9  30510782.989 7
  20600648.993    20600651.957    -7108481.136 9   2472745.154 7
  20590018.865    20590019.635    23457835.756 8 -58969404.443 6
  23679616.793    23679620.585    51674222.735 9 -37021241.946 8
 86  6 19  2 13 17.0800000  0  4G12G13G 9G11
  21567384.809    21567387.185   -27884251.873 9  30500360.592 8
  20601067.123    20601069.172    -7106287.636 9   2474454.382 8
  20592347.779    20592348.387    23470077.745 9 -58959865.236 7
  23682744.261    23682746.712    51690651.411 9 -37008440.388 8
 86  6 19  2 13 23.0800000  0  4G12G13G 9G11
  21564842.839    21564846.071   -27897609.138 9  30489952.340 8
  20601487.813    20601490.223    -7104080.074 9   2476174.568 7
  20594682.269    20594682.356    23482343.474 9 -58950307.521 8
  23685870.153    23685872.370    51707079.378 9 -36995639.388 8
 86  6 19  2 13 29.0800000  0  4G12G13G 9G11
  21562305.333    21562307.135   -27910948.298 9  30479558.196 9
  20601909.763    20601913.002    -7101858.619 9   2477905.569 8
  20597020.398    20597020.627    23494632.629 9 -58940731.572 6
  23688996.619    23688998.738    51723506.589 9 -36982838.971 8
 86  6 19  2 13 35.0800000  0  4G12G13G 9G11
  21559770.173    21559772.262   -27924269.137 9  30469178.322 8
  20602335.586    20602337.899    -7099623.014 9   2479647.604 9
  20599364.599    20599363.830    23506945.565 9 -58931137.066 7
  23692122.625    23692124.385    51739933.140 9 -36970039.068 8
 86  6 19  2 13 41.0800000  0  4G12G13G 9G11
  21557239.565    21557241.724   -27937571.714 9  30458812.667 8
  20602763.392    20602765.874    -7097373.472 9   2481400.489 9
  20601711.571    20601712.823    23519281.960 8 -58921524.300 8
  23695247.703    23695250.702    51756358.913 9 -36957239.763 7
 86  6 19  2 13 47.0800000  0  4G12G13G 9G11
  21554711.216    21554712.976   -27950856.054 9  30448461.245 8
  20603193.794    20603197.100    -7095109.887 9   2483164.327 8
  20604063.788    20604064.222    23531642.013 9 -58911893.090 8
  23698374.076    23698376.050    51772783.985 8 -36944441.015 8
 86  6 19  2 13 53.0800000  0  4G12G13G 9G11
  21552186.559    21552188.691   -27964122.022 9  30438124.125 9
  20603627.316    20603630.365    -7092832.274 9   2484939.087 8
  20606420.131    20606418.876    23544025.705 9 -58902243.465 8
  23701499.189    23701500.162    51789208.373 8 -36931642.779 8
 86  6 19  2 13 59.0800000  0  4G12G13G 9G11
  21549665.937    21549667.168   -27977369.696 9  30427801.266 9
  20604064.750    20604066.232    -7090540.677 9   2486724.758 7
  20608780.785    20608780.714    23556433.018 8 -58892575.435 7
  23704623.617    23704626.609    51805632.030 9 -36918845.141 7
 86  6 19  2 14  5.0800000  0  4G12G13G 9G11
  21547148.007    21547150.411   -27990599.016 9  30417492.710 8
  20604502.778    20604504.855    -7088235.060 9   2488521.341 7
  20611146.546    20611146.081    23568863.947 8 -58882888.991 7
  23707749.667    23707751.391    51822054.991 9 -36906048.034 7
 86  6 19  2 14 11.0800000  0  4G12G13G 9G11
  21544633.883    21544636.944   -28003810.031 9  30407198.401 8
  20604944.139    20604947.138    -7085915.515 9   2490328.788 8
  20613516.829    20613516.654    23581318.391 8 -58873184.231 8
  23710873.663    23710876.725    51838477.194 8 -36893251.521 8
 86  6 19  2 14 17.0800000  0  4G12G13G 9G11
  21542123.135    21542125.853   -28017002.800 9  30396918.326 9
  20605388.199    20605389.006    -7083582.034 9   2492147.077 9
  20615889.522    20615890.206    23593796.321 8 -58863461.186 7
  23713999.528    23714001.338    51854898.558 8 -36880455.666 8
 86  6 19  2 14 23.0800000  0  4G12G13G 9G11
  21539615.763    21539618.611   -28030177.120 9  30386652.623 9
  20605834.267    20605836.964    -7081234.533 9   2493976.305 9
  20618270.450    20618269.078    23606297.864 9 -58853719.729 7
  23717124.033    23717127.158    51871319.226 8 -36867660.337 7
 86  6 19  2 14 29.0800000  0  4G12G13G 9G11
  21537112.256    21537115.749   -28043332.989 9  30376401.302 9
  20606284.223    20606286.118    -7078873.114 9   2495816.387 8
  20620652.778    20620651.523    23618823.005 9 -58843959.872 7
  23720249.218    23720251.857    51887739.126 9 -36854865.622 7
 86  6 19  2 14 35.0800000  0  4G12G13G 9G11
  21534612.669    21534614.459   -28056470.414 9  30366164.351 7
  20606736.399    20606737.736    -7076497.877 9   2497667.215 8
  20623039.930    20623041.356    23631371.506 8 -58834181.822 7
  23723373.394    23723374.738    51904158.195 9 -36842071.534 7
 86  6 19  2 14 41.0800000  0  4G12G13G 9G11
  21532116.832    21532119.550   -28069589.302 9  30355941.851 8
  20607191.098    20607192.736    -7074108.741 9   2499528.871 8
  20625433.192    20625433.691    23643943.535 8 -58824385.454 6
  23726497.556    23726497.955    51920576.524 8 -36829278.055 7
 86  6 19  2 14 47.0800000  0  4G12G13G 9G11
  21529623.742    21529626.418   -28082689.646 9  30345733.786 8
  20607648.495    20607649.796    -7071705.769 9   2501401.326 9
  20627828.077    20627830.837    23656539.089 7 -58814570.749 8
  23729622.806    23729623.496    51936994.042 9 -36816485.190 7
 86  6 19  2 14 53.0800000  0  4G12G13G 9G11
  21527134.372    21527136.689   -28095771.479 9  30335540.152 8
  20608108.611    20608109.468    -7069289.006 9   2503284.518 8
  20630229.838    20630231.259    23669158.103 9 -58804737.751 7
  23732745.879    23732747.159    51953410.674 9 -36803693.019 7
 86  6 19  2 14 59.0800000  0  4G12G13G 9G11
  21524647.405    21524650.655   -28108834.839 9  30325360.917 9
  20608571.074    20608571.959    -7066858.415 9   2505178.478 7
  20632636.351    20632637.946    23681800.512 8 -58794886.525 8
  23735869.997    23735872.294    51969826.442 9 -36790901.522 7
 86  6 19  2 15  5.0800000  0  4G12G13G 9G11
  21522165.075    21522168.610   -28121879.626 9  30315196.151 9
  20609035.553    20609037.525    -7064414.014 9   2507083.216 9
  20635047.509    20635047.700    23694466.341 8 -58785017.060 7
  23738993.651    23738994.622    51986241.347 9 -36778110.680 7
 86  6 19  2 15 11.0800000  0  4G12G13G 9G11
  21519686.753    21519688.570   -28134905.837 9  30305045.858 9
  20609504.205    20609504.602    -7061955.756 9   2508998.760 9
  20637461.245    20637463.200    23707155.691 9 -58775129.260 8
  23742117.628    23742119.330    52002655.399 8 -36765320.519 7
 86  6 19  2 15 17.0800000  0  4G12G13G 9G11
  21517210.805    21517213.695   -28147913.505 9  30294910.008 9
  20609973.846    20609975.301    -7059483.788 9   2510924.957 8
  20639880.875    20639883.084    23719868.275 9 -58765223.353 7
  23745241.439    23745242.904    52019068.447 9 -36752531.141 7
 86  6 19  2 15 23.0800000  0  4G12G13G 9G11
  21514739.637    21514742.356   -28160902.638 9  30284788.609 9
  20610447.209    20610447.926    -7056998.100 9   2512861.865 9
  20642303.987    20642306.159    23732604.165 9 -58755299.275 7
  23748363.647    23748365.287    52035480.607 9 -36739742.455 7
 86  6 19  2 15 29.0800000  0  4G12G13G 9G11
  21512271.443    21512274.908   -28173873.110 9  30274681.758 9
  20610922.657    20610923.922    -7054498.660 9   2514809.487 9
  20644733.055    20644734.497    23745363.341 8 -58745357.065 8
  23751486.220    23751488.444    52051891.945 9 -36726954.409 8
 86  6 19  2 15 35.0800000  0  4G12G13G 9G11
  21509806.572    21509808.175   -28186824.979 9  30264589.385 9
  20611400.412    20611402.569    -7051985.507 9   2516767.790 8
  20647165.496    20647166.661    23758145.999 9 -58735396.566 7
  23754609.717    23754612.679    52068302.346 9 -36714167.092 7
 86  6 19  2 15 41.0800000  0  4G12G13G 9G11
  21507345.333    21507348.123   -28199758.152 9  30254511.590 9
  20611881.789    20611883.606    -7049458.645 9   2518736.765 7
  20649602.874    20649604.584    23770951.919 9 -58725417.932 7
  23757732.004    23757735.374    52084711.810 9 -36701380.500 8
 86  6 19  2 15 47.0800000  0  4G12G13G 9G11
  21504887.444    21504890.362   -28212672.576 9  30244448.411 8
  20612365.286    20612367.503    -7046918.077 9   2520716.428 8
  20652044.906    20652045.574    23783781.219 8 -58715421.075 7
  23760854.899    23760857.138    52101120.379 9 -36688594.606 7
 86  6 19  2 15 53.0800000  0  4G12G13G 9G11
  21502434.047    21502437.281   -28225568.252 9  30234399.827 9
  20612850.661    20612852.977    -7044363.786 9   2522706.783 7
  20654490.912    20654490.264    23796633.829 9 -58705406.054 8
  23763977.007    23763980.964    52117527.995 8 -36675809.458 7
 86  6 19  2 15 59.0800000  0  4G12G13G 9G11
  21499984.113    21499987.046   -28238445.175 9  30224365.863 8
  20613340.000    20613342.342    -7041795.899 9   2524707.732 8
  20656940.554    20656943.201    23809509.745 9 -58695372.886 7
  23767099.545    23767103.187    52133934.648 9 -36663025.054 7
 86  6 19  2 16  5.0800000  0  4G12G13G 9G11
  21497537.328    21497539.603   -28251303.309 9  30214346.537 9
  20613830.709    20613833.969    -7039214.295 9   2526719.380 8
  20659395.550    20659395.246    23822408.899 8 -58685321.592 7
  23770221.117    23770226.060    52150340.330 9 -36650241.421 7
 86  6 19  2 16 11.0800000  0  4G12G13G 9G11
  21495093.804    21495095.749   -28264142.616 9  30204341.886 8
  20614324.930    20614327.469    -7036619.044 9   2528741.647 8
  20661855.007    20661854.902    23835331.265 9 -58675252.242 7
  23773342.838    23773345.419    52166745.058 9 -36637458.522 8
 86  6 19  2 16 17.0800000  0  4G12G13G 9G11
  21492654.173    21492656.977   -28276963.182 9  30194351.825 8
  20614821.599    20614823.973    -7034010.239 9   2530774.485 8
  20664317.432    20664318.205    23848276.923 9 -58665164.700 7
  23776464.288    23776467.752    52183148.808 9 -36624676.385 7
 86  6 19  2 16 23.0800000  0  4G12G13G 9G11
  21490218.176    21490220.366   -28289764.926 9  30184376.442 8
  20615320.714    20615322.685    -7031387.864 9   2532817.901 8
  20666785.672    20666785.847    23861245.760 9 -58655059.129 7
  23779586.004    23779589.130    52199551.589 8 -36611895.009 8
 86  6 19  2 16 29.0800000  0  4G12G13G 9G11
  21487785.585    21487787.417   -28302547.804 9  30174415.758 9
  20615821.690    20615824.116    -7028751.899 9   2534871.899 8
  20669258.885    20669258.247    23874237.875 9 -58644935.394 7
  23782706.616    23782709.263    52215953.423 9 -36599114.364 7
 86  6 19  2 16 35.0800000  0  4G12G13G 9G11
  21485356.658    21485358.632   -28315311.748 9  30164469.825 9
  20616326.039    20616328.274    -7026102.326 9   2536936.493 8
  20671734.378    20671734.692    23887253.095 9 -58634793.679 7
  23785827.531    23785831.486    52232354.244 9 -36586334.504 7
 86  6 19  2 16 41.0800000  0  4G12G13G 9G11
  21482931.765    21482933.853   -28328056.810 9  30154538.610 8
  20616833.139    20616834.075    -7023439.206 9   2539011.661 8
  20674215.824    20674215.475    23900291.633 9 -58624633.774 7
  23788947.764    23788952.800    52248754.003 9 -36573555.469 6
 86  6 19  2 16 47.0800000  0  4G12G13G 9G11
  21480509.933    21480511.537   -28340782.984 9  30144622.119 9
  20617342.322    20617344.683    -7020762.432 9   2541097.456 8
  20676701.369    20676701.523    23913353.252 9 -58614455.894 7
  23792068.691    23792070.701    52265152.663 7 -36560777.297 6
 86  6 19  2 16 53.0800000  0  4G12G13G 9G11
  21478091.280    21478093.384   -28353490.191 9  30134720.394 9
  20617853.733    20617855.677    -7018072.062 9   2543193.835 8
  20679190.316    20679189.993    23926438.097 9 -58604259.929 7
  23795188.189    23795192.646    52281550.295 9 -36547999.930 7
 86  6 19  2 16 59.0800000  0  4G12G13G 9G11
  21475677.548    21475679.208   -28366178.452 9  30124833.446 8
  20618368.585    20618368.748    -7015368.231 9   2545300.727 8
  20681685.986    20681686.309    23939546.035 9 -58594045.952 8
  23798308.951    23798311.570    52297946.851 9 -36535223.413 7
 86  6 19  2 17  5.0800000  0  4G12G13G 9G11
  21473266.336    21473267.737   -28378847.705 9  30114961.301 9
  20618886.102    20618886.775    -7012650.868 9   2547418.146 8
  20684184.704    20684185.403    23952677.154 9 -58583813.924 7
  23801428.893    23801431.783    52314342.344 9 -36522447.692 7
 86  6 19  2 17 11.0800000  0  4G12G13G 9G11
  21470858.786    21470860.488   -28391497.887 9  30105104.018 9
  20619405.583    20619407.529    -7009920.001 9   2549546.103 8
  20686687.811    20686686.914    23965831.309 9 -58573563.928 7
  23804548.603    23804552.383    52330736.863 9 -36509672.747 7
 86  6 19  2 17 17.0800000  0  4G12G13G 9G11
  21468455.272    21468456.372   -28404129.134 9  30095261.480 8
  20619927.543    20619929.942    -7007175.736 9   2551684.481 8
  20689195.577    20689194.633    23979008.429 9 -58563296.048 7
  23807668.502    23807671.784    52347130.320 9 -36496898.628 8
 86  6 19  2 17 23.0800000  0  4G12G13G 9G11
  21466055.791    21466056.492   -28416741.368 9  30085433.772 9
  20620452.901    20620453.208    -7004418.040 9   2553833.331 7
  20691707.838    20691707.327    23992208.736 9 -58553010.092 7
  23810787.519    23810790.281    52363522.668 9 -36484125.370 7
 86  6 19  2 17 29.0800000  0  4G12G13G 9G11
  21463659.517    21463661.263   -28429334.489 9  30075620.956 9
  20620980.549    20620982.278    -7001646.898 9   2555992.668 8
  20694224.138    20694223.539    24005432.010 9 -58542706.247 8
  23813907.266    23813910.021    52379913.930 9 -36471352.964 7
 86  6 19  2 17 35.0800000  0  4G12G13G 9G11
  21461267.049    21461268.908   -28441908.432 9  30065823.073 9
  20621510.015    20621511.173    -6998862.240 9   2558162.525 7
  20696745.236    20696745.518    24018678.412 9 -58532384.378 7
  23817025.933    23817029.109    52396304.052 8 -36458581.435 8
 86  6 19  2 17 41.0800000  0  4G12G13G 9G11
  21458877.185    21458878.616   -28454463.218 9  30056040.128 8
  20622042.277    20622044.831    -6996064.193 9   2560342.818 7
  20699269.091    20699269.706    24031947.900 9 -58522044.516 8
  23820144.343    23820146.812    52412693.043 9 -36445810.808 6
 86  6 19  2 17 47.0800000  0  4G12G13G 9G11
  21456492.559    21456493.259   -28466998.840 9  30046272.119 9
  20622577.673    20622578.516    -6993252.764 9   2562533.536 8
  20701799.243    20701798.832    24045240.447 9 -58511686.689 7
  23823263.604    23823266.186    52429080.884 9 -36433041.068 7
 86  6 19  2 17 53.0800000  0  4G12G13G 9G11
  21454110.107    21454110.636   -28479515.315 9  30036519.017 9
  20623115.202    20623117.358    -6990427.944 9   2564734.696 8
  20704333.044    20704333.906    24058555.871 9 -58501311.049 8
  23826381.204    23826384.208    52445467.496 8 -36420272.275 6
 86  6 19  2 17 59.0800000  0  4G12G13G 9G11
  21451732.234    21451734.066   -28492012.613 9  30026780.860 9
  20623655.990    20623655.928    -6987589.804 9   2566946.236 8
  20706870.579    20706871.051    24071894.316 9 -58490917.474 7
  23829499.821    23829503.142    52461852.990 8 -36407504.358 6
 86  6 19  2 18  5.0800000  0  4G12G13G 9G11
  21449357.911    21449359.711   -28504490.767 9  30017057.624 8
  20624198.233    20624198.675    -6984738.384 9   2569168.124 9
  20709412.216    20709415.166    24085255.631 9 -58480506.073 8
  23832616.949    23832618.359    52478237.313 9 -36394737.358 7
 86  6 19  2 18 11.0800000  0  4G12G13G 9G11
  21446986.906    21446987.764   -28516949.716 9  30007349.359 8
  20624742.133    20624744.102    -6981873.616 9   2571400.410 8
  20711958.709    20711959.747    24098639.935 9 -58470076.733 7
  23835735.088    23835737.856    52494620.502 8 -36381971.234 7
 86  6 19  2 18 17.0800000  0  4G12G13G 9G11
  21444619.651    21444621.739   -28529389.398 9  29997656.098 8
  20625290.883    20625291.743    -6978995.516 9   2573643.087 9
  20714510.362    20714511.145    24112047.161 9 -58459629.555 7
  23838851.930    23838855.542    52511002.520 7 -36369206.018 7
 86  6 19  2 18 23.0800000  0  4G12G13G 9G11
  21442256.659    21442258.291   -28541809.828 9  29987977.848 9
  20625840.840    20625841.886    -6976104.026 9   2575896.198 8
  20717066.620    20717067.198    24125477.379 9 -58449164.464 7
  23841969.597    23841972.674    52527383.345 8 -36356441.756 7
 86  6 19  2 18 29.0800000  0  4G12G13G 9G11
  21439896.443    21439897.891   -28554210.863 9  29978314.698 9
  20626393.862    20626395.417    -6973199.264 9   2578159.647 8
  20719626.957    20719626.663    24138930.412 9 -58438681.586 7
  23845085.810    23845088.599    52543762.980 8 -36343678.402 7
 86  6 19  2 18 35.0800000  0  4G12G13G 9G11
  21437539.834    21437541.195   -28566592.608 9  29968666.593 9
  20626949.404    20626950.851    -6970281.178 9   2580433.482 9
  20722190.792    20722191.146    24152406.388 9 -58428180.831 7
  23848202.336    23848206.114    52560141.382 8 -36330916.029 8
 86  6 19  2 18 41.0800000  0  4G12G13G 9G11
  21435187.318    21435189.578   -28578955.053 9  29959033.521 9
  20627507.536    20627508.509    -6967349.783 9   2582717.690 9
  20724760.424    20724759.562    24165905.296 9 -58417662.205 7
  23851317.940    23851323.056    52576518.540 8 -36318154.618 7
 86  6 19  2 18 47.0800000  0  4G12G13G 9G11
  21432839.209    21432841.026   -28591298.130 9  29949415.539 9
  20628067.183    20628068.276    -6964405.079 9   2585012.265 8
  20727332.905    20727333.517    24179427.099 9 -58407125.740 9
  23854435.627    23854439.227    52592894.485 7 -36305394.150 7
 86  6 19  2 18 53.0800000  0  4G12G13G 9G11
  21430493.360    21430496.006   -28603621.731 9  29939812.726 8
  20628629.558    20628630.860    -6961447.156 9   2587317.138 9
  20729912.073    20729910.614    24192971.685 9 -58396571.513 7
  23857550.658    23857554.724    52609269.229 8 -36292634.610 7
 86  6 19  2 18 59.0800000  0  4G12G13G 9G11
  21428152.405    21428153.807   -28615925.929 9  29930225.048 8
  20629195.484    20629197.394    -6958475.971 9   2589632.350 9
  20732492.561    20732491.930    24206539.073 9 -58385999.536 7
  23860665.571    23860671.351    52625642.753 7 -36279876.024 7
 86  6 19  2 19  5.0800000  0  4G12G13G 9G11
  21425814.512    21425815.900   -28628210.673 9  29920652.526 9
  20629762.393    20629766.057    -6955491.566 9   2591957.853 8
  20735079.093    20735078.363    24220129.313 9 -58375409.739 7
  23863781.547    23863785.897    52642015.026 8 -36267118.437 7
 86  6 19  2 19 11.0800000  0  4G12G13G 9G11
  21423480.225    21423482.401   -28640475.837 9  29911095.262 9
  20630333.273    20630334.162    -6952494.032 9   2594293.605 8
  20737670.103    20737669.595    24233742.350 9 -58364802.177 7
  23866896.415    23866902.081    52658386.088 7 -36254361.763 8
 86  6 19  2 19 17.0800000  0  4G12G13G 9G11
  21421149.801    21421151.203   -28652721.542 9  29901553.145 8
  20630907.051    20630908.466    -6949483.293 9   2596639.640 8
  20740264.910    20740264.023    24247378.236 9 -58354176.819 7
  23870010.904    23870016.462    52674755.866 7 -36241606.091 7
 86  6 19  2 19 23.0800000  0  4G12G13G 9G11
  21418823.042    21418825.217   -28664947.826 9  29892026.164 8
  20631481.635    20631483.133    -6946459.388 9   2598995.914 8
  20742863.847    20742862.603    24261036.816 9 -58343533.771 8
  23873126.567    23873131.110    52691124.362 8 -36228851.431 7
 86  6 19  2 19 29.0800000  0  4G12G13G 9G11
  21416500.231    21416502.921   -28677154.599 9  29882514.403 9
  20632059.875    20632062.285    -6943422.398 9   2601362.407 8
  20745467.694    20745466.828    24274718.138 9 -58332872.987 9
  23876242.129    23876247.779    52707491.593 8 -36216097.756 7
 86  6 19  2 19 35.0800000  0  4G12G13G 9G11
  21414181.341    21414183.959   -28689341.826 9  29873017.865 9
  20632640.355    20632641.448    -6940372.280 9   2603739.127 8
  20748075.506    20748074.716    24288422.181 9 -58322194.518 8
  23879356.151    23879361.067    52723857.478 9 -36203345.116 7
 86  6 19  2 19 41.0800000  0  4G12G13G 9G11
  21411865.656    21411867.859   -28701509.445 9  29863536.596 8
  20633223.694    20633225.663    -6937309.049 9   2606126.065 9
  20750686.997    20750686.438    24302148.864 9 -58311498.399 8
  23882470.417    23882474.802    52740222.066 7 -36190593.491 7
 86  6 19  2 19 47.0800000  0  4G12G13G 9G11
  21409553.548    21409556.882   -28713657.509 9  29854070.579 8
  20633809.145    20633811.710    -6934232.696 9   2608523.204 8
  20753303.451    20753303.590    24315898.329 9 -58300784.536 8
  23885583.067    23885589.092    52756585.316 8 -36177842.906 8
 86  6 19  2 19 53.0800000  0  4G12G13G 9G11
  21407245.590    21407248.396   -28725786.010 9  29844619.802 8
  20634396.909    20634398.583    -6931143.170 9   2610930.637 8
  20755924.237    20755925.263    24329670.460 9 -58290053.010 8
  23888696.290    23888703.029    52772947.226 7 -36165093.368 7
 86  6 19  2 19 59.0800000  0  4G12G13G 9G11
  21404941.153    21404943.914   -28737894.890 9  29835184.296 9
  20634987.171    20634988.459    -6928040.589 9   2613348.235 9
  20758549.020    20758549.559    24343465.287 9 -58279303.787 7
  23891810.644    23891815.044    52789307.757 7 -36152344.899 7
 86  6 19  2 20  5.0800000  0  4G12G13G 9G11
  21402640.377    21402643.597   -28749984.202 9  29825764.054 8
  20635580.430    20635581.921    -6924925.036 9   2615775.944 8
  20761179.122    20761179.081    24357282.677 9 -58268537.004 8
  23894921.941    23894928.059    52805666.914 8 -36139597.524 7
 86  6 19  2 20 11.0800000  0  4G12G13G 9G11
  21400344.324    21400346.872   -28762053.940 9  29816359.069 9
  20636175.732    20636177.204    -6921796.451 9   2618213.790 8
  20763812.020    20763812.610    24371122.613 8 -58257752.633 8
  23898035.020    23898040.793    52822024.661 7 -36126851.240 7
 86  6 19  2 20 17.0800000  0  4G12G13G 9G11
  21398051.020    21398054.554   -28774103.921 9  29806969.461 8
  20636772.987    20636775.615    -6918654.828 9   2620661.810 8
  20766450.772    20766450.975    24384985.217 9 -58246950.598 7
  23901148.350    23901152.691    52838381.079 7 -36114105.985 7
 86  6 19  2 20 23.0800000  0  4G12G13G 9G11
  21395761.376    21395764.955   -28786134.162 9  29797595.252 9
  20637373.133    20637374.451    -6915500.129 9   2623120.017 8
  20769092.659    20769093.429    24398870.430 9 -58236130.969 7
  23904260.398    23904265.206    52854736.104 7 -36101361.822 7
 86  6 19  2 20 29.0800000  0  4G12G13G 9G11
  21393475.884    21393479.248   -28798144.683 9  29788236.404 9
  20637976.140    20637977.705    -6912332.515 9   2625588.289 8
  20771738.855    20771740.315    24412778.252 9 -58225293.712 7
  23907373.202    23907377.422    52871089.709 7 -36088618.739 7
 86  6 19  2 20 35.0800000  0  4G12G13G 9G11
  21391194.026    21391197.877   -28810135.446 9  29778892.951 9
  20638581.057    20638582.927    -6909151.931 9   2628066.671 8
  20774389.816    20774391.381    24426708.644 9 -58214438.850 8
  23910484.632    23910487.740    52887441.979 7 -36075876.728 6
 86  6 19  2 20 41.0800000  0  4G12G13G 9G11
  21388916.977    21388918.765   -28822106.428 9  29769564.909 8
  20639188.384    20639191.115    -6905958.434 9   2630555.107 8
  20777045.405    20777045.234    24440661.591 9 -58203566.428 8
  23913595.675    23913600.667    52903792.838 6 -36063135.808 7
 86  6 19  2 20 47.0800000  0  4G12G13G 9G11
  21386643.332    21386645.191   -28834057.590 9  29760252.319 8
  20639798.452    20639801.105    -6902752.032 9   2633053.612 8
  20779704.734    20779704.313    24454636.995 8 -58192676.512 8
  23916708.017    23916710.826    52920142.281 6 -36050395.982 6
 86  6 19  2 20 53.0800000  0  4G12G13G 9G11
  21384372.349    21384374.609   -28845988.859 9  29750955.221 9
  20640410.974    20640413.513    -6899532.665 9   2635562.202 9
  20782368.476    20782368.982    24468635.021 9 -58181768.967 8
  23919819.156    23919821.525    52936490.252 8 -36037657.307 6
 86  6 19  2 20 59.0800000  0  4G12G13G 9G11
  21382105.859    21382108.377   -28857900.350 9  29741673.533 9
  20641025.429    20641029.290    -6896300.345 9   2638080.897 8
  20785036.078    20785037.924    24482655.453 9 -58170843.962 8
  23922930.553    23922932.792    52952836.821 6 -36024919.736 5
 86  6 19  2 21  5.0800000  0  4G12G13G 9G11
  21379842.717    21379845.522   -28869792.048 9  29732407.273 8
  20641642.818    20641646.065    -6893055.070 9   2640609.680 9
  20787709.175    20787709.481    24496698.434 9 -58159901.394 8
  23926040.441    23926044.720    52969181.939 7 -36012183.281 6
 86  6 19  2 21 11.0800000  0  4G12G13G 9G11
  21377582.981    21377586.171   -28881663.870 9  29723156.510 8
  20642263.411    20642266.275    -6889796.825 9   2643148.569 8
  20790384.660    20790386.170    24510763.866 9 -58148941.316 8
  23929150.428    23929154.694    52985525.543 6 -35999448.034 6
 86  6 19  2 21 17.0800000  0  4G12G13G 9G11
  21375327.969    21375330.500   -28893515.799 9  29713921.233 8
  20642885.517    20642888.806    -6886525.687 9   2645697.499 8
  20793066.037    20793066.286    24524851.704 9 -58137963.798 7
  23932260.125    23932262.141    53001867.677 7 -35986713.907 6
 86  6 19  2 21 23.0800000  0  4G12G13G 9G11
  21373076.187    21373079.078   -28905347.781 9  29704701.506 8
  20643511.313    20643512.091    -6883241.681 9   2648256.472 8
  20795750.842    20795751.306    24538961.909 9 -58126968.840 8
  23935369.877    23935373.606    53018208.288 6 -35973980.961 6
 86  6 19  2 21 29.0800000  0  4G12G13G 9G11
  21370828.671    21370831.749   -28917159.803 9  29695497.337 9
  20644138.274    20644140.493    -6879944.796 9   2650825.471 9
  20798439.883    20798440.988    24553094.581 9 -58115956.376 8
  23938478.980    23938481.711    53034547.463 7 -35961249.165 6
 86  6 19  2 21 35.0800000  0  4G12G13G 9G11
  21368585.048    21368587.566   -28928951.898 9  29686308.695 9
  20644768.664    20644769.922    -6876635.131 9   2653404.426 8
  20801133.334    20801135.233    24567249.652 9 -58104926.443 8
  23941586.792    23941591.357    53050885.164 6 -35948518.479 6
 86  6 19  2 21 41.0800000  0  4G12G13G 9G11
  21366344.086    21366346.303   -28940724.027 9  29677135.610 8
  20645401.372    20645403.217    -6873312.714 9   2655993.326 9
  20803831.830    20803832.542    24581427.150 9 -58093879.052 8
  23944697.675    23944701.545    53067221.364 7 -35935788.984 6
 86  6 19  2 21 47.0800000  0  4G12G13G 9G11
  21364108.159    21364110.405   -28952476.252 9  29667978.026 8
  20646035.670    20646036.297    -6869977.542 9   2658592.171 9
  20806533.641    20806535.126    24595626.944 8 -58082814.293 8
  23947805.397    23947808.113    53083555.957 7 -35923060.733 6
 86  6 19  2 21 53.0800000  0  4G12G13G 9G11
  21361875.611    21361877.671   -28964208.364 9  29658836.120 9
  20646672.221    20646675.169    -6866629.657 9   2661200.904 8
  20809240.412    20809241.804    24609849.168 9 -58071732.039 8
  23950914.466    23950915.915    53099889.075 7 -35910333.633 6
 86  6 19  2 21 59.0800000  0  4G12G13G 9G11
  21359646.497    21359648.858   -28975920.382 9  29649709.886 8
  20647311.785    20647313.630    -6863268.978 9   2663819.611 8
  20811950.860    20811952.366    24624093.580 9 -58060632.501 7
  23954023.264    23954024.698    53116220.686 8 -35897607.693 5
 86  6 19  2 22  5.0800000  0  4G12G13G 9G11
  21357421.675    21357424.723   -28987612.282 9  29640599.299 9
  20647953.864    20647956.030    -6859895.474 9   2666448.327 8
  20814665.653    20814665.829    24638360.443 9 -58049515.468 7
  23957130.131    23957132.078    53132550.762 8 -35884882.982 5
 86  6 19  2 22 11.0800000  0  4G12G13G 9G11
  21355200.832    21355202.993   -28999284.100 9  29631504.369 8
  20648598.626    20648601.713    -6856509.171 9   2669087.010 7
  20817385.262    20817385.702    24652649.525 9 -58038381.118 9
  23960237.845    23960238.001    53148879.277 8 -35872159.460 5
 86  6 19  2 22 17.0800000  0  4G12G13G 9G11
  21352983.823    21352986.056   -29010935.789 9  29622425.128 8
  20649244.660    20649246.662    -6853110.125 9   2671735.613 8
  20820108.390    20820108.193    24666960.880 9 -58027229.415 8
  23963345.149    23963343.168    53165206.268 7 -35859437.137 5
 86  6 19  2 22 23.0800000  0  4G12G13G 9G11
  21350770.048    21350772.437   -29022567.421 9  29613361.521 9
  20649893.987    20649896.780    -6849698.387 9   2674394.103 8
  20822835.512    20822836.177    24681294.538 9 -58016060.345 8
  23966451.010    23966453.358    53181531.674 7 -35846716.037 6
 86  6 19  2 22 29.0800000  0  4G12G13G 9G11
  21348560.222    21348562.611   -29034178.852 9  29604313.649 9
  20650545.566    20650547.367    -6846273.992 9   2677062.464 8
  20825567.359    20825567.945    24695650.397 9 -58004873.943 7
  23969558.051    23969555.273    53197855.529 8 -35833996.150 6
 86  6 19  2 22 35.0800000  0  4G12G13G 9G11
  21346354.891    21346356.536   -29045770.110 9  29595281.513 9
  20651199.194    20651203.071    -6842836.905 9   2679740.724 8
  20828302.784    20828303.447    24710028.469 9 -57993670.267 8
  23972664.727    23972663.717    53214177.786 8 -35821277.497 6
 86  6 19  2 22 41.0800000  0  4G12G13G 9G11
  21344152.591    21344155.654   -29057341.159 9  29586265.105 8
  20651855.718    20651858.207    -6839387.149 9   2682428.849 8
  20831043.445    20831043.538    24724428.727 9 -57982449.284 7
  23975770.258    23975768.669    53230498.414 8 -35808560.143 6
 86  6 19  2 22 47.0800000  0  4G12G13G 9G11
  21341954.470    21341956.917   -29068892.068 9  29577264.401 8
  20652515.174    20652517.582    -6835924.748 9   2685126.815 8
  20833788.248    20833788.387    24738851.137 9 -57971211.039 8
  23978874.134    23978875.587    53246817.451 8 -35795844.021 6
 86  6 19  2 22 53.0800000  0  4G12G13G 9G11
  21339760.471    21339762.991   -29080422.736 9  29568279.455 8
  20653176.881    20653177.911    -6832449.643 9   2687834.690 8
  20836536.573    20836538.098    24753295.751 9 -57959955.507 8
  23981980.305    23981980.699    53263134.886 8 -35783129.144 5
 86  6 19  2 22 59.0800000  0  4G12G13G 9G11
  21337569.591    21337572.540   -29091933.129 9  29559310.317 8
  20653840.088    20653840.836    -6828961.967 9   2690552.357 8
  20839289.003    20839289.873    24767762.567 8 -57948682.658 7
  23985084.890    23985083.352    53279450.691 8 -35770415.532 6
 86  6 19  2 23  5.0800000  0  4G12G13G 9G11
  21335382.689    21335386.021   -29103423.249 9  29550356.969 8
  20654506.420    20654508.101    -6825461.708 9   2693279.816 8
  20842046.263    20842046.911    24782251.613 8 -57937392.506 8
  23988187.653    23988189.332    53295764.913 8 -35757703.158 6
 86  6 19  2 23 11.0800000  0  4G12G13G 9G11
  21333200.881    21333202.670   -29114893.127 9  29541419.401 7
  20655174.917    20655176.140    -6821948.918 9   2696017.067 8
  20844807.533    20844808.426    24796762.742 8 -57926085.136 6
  23991292.375    23991292.503    53312077.449 8 -35744992.099 6
 86  6 19  2 23 17.0800000  0  4G12G13G 9G11
  21331021.420    21331024.410   -29126342.564 9  29532497.755 9
  20655845.997    20655847.393    -6818423.581 9   2698764.084 8
  20847573.404    20847575.454    24811295.968 9 -57914760.560 7
  23994396.281    23994397.890    53328388.369 8 -35732282.304 6
 86  6 19  2 23 23.0800000  0  4G12G13G 9G11
  21328847.195    21328849.415   -29137771.712 9  29523591.931 8
  20656518.800    20656521.412    -6814885.684 9   2701520.882 8
  20850343.728    20850345.731    24825851.203 9 -57903418.822 7
  23997501.479    23997501.370    53344697.586 7 -35719573.812 6
 86  6 19  2 23 29.0800000  0  4G12G13G 9G11
  21326675.604    21326678.451   -29149180.472 9  29514701.984 9
  20657195.450    20657196.737    -6811335.212 9   2704287.474 8
  20853117.171    20853119.256    24840428.547 9 -57892059.850 8
  24000603.732    24000604.811    53361005.163 7 -35706866.632 6
 86  6 19  2 23 35.0800000  0  4G12G13G 9G11
  21324508.047    21324510.967   -29160568.865 9  29505827.915 8
  20657873.209    20657873.986    -6807772.233 9   2707063.832 9
  20855894.957    20855897.148    24855027.921 8 -57880683.720 8
  24003706.692    24003707.689    53377311.056 7 -35694160.745 6
 86  6 19  2 23 41.0800000  0  4G12G13G 9G11
  21322345.471    21322348.161   -29171936.880 9  29496969.719 7
  20658553.351    20658555.880    -6804196.778 9   2709849.894 7
  20858678.437    20858679.960    24869649.327 9 -57869290.430 8
  24006807.209    24006810.908    53393615.204 7 -35681456.227 6
 86  6 19  2 23 47.0800000  0  4G12G13G 9G11
  21320186.702    21320188.875   -29183284.465 9  29488127.434 8
  20659236.092    20659237.906    -6800608.762 9   2712645.747 8
  20861464.666    20861466.292    24884292.767 8 -57857879.974 8
  24009910.509    24009913.271    53409917.710 7 -35668752.960 7
 86  6 19  2 23 53.0800000  0  4G12G13G 9G11
  21318030.078    21318032.967   -29194611.695 9  29479301.033 8
  20659921.617    20659922.299    -6797008.301 9   2715451.301 9
  20864254.854    20864257.504    24898958.127 9 -57846452.415 8
  24013011.419    24013014.743    53426218.453 7 -35656051.105 6
 86  6 19  2 23 59.0800000  0  4G12G13G 9G11
  21315879.491    21315881.608   -29205918.500 9  29470490.522 9
  20660609.335    20660611.412    -6793395.445 9   2718266.512 8
  20867049.547    20867051.482    24913645.410 9 -57835007.800 8
  24016113.178    24016115.763    53442517.478 7 -35643350.574 6
 86  6 19  2 24  5.0800000  0  4G12G13G 9G11
  21313731.825    21313735.489   -29217204.741 9  29461696.050 9
  20661299.363    20661302.260    -6789770.053 9   2721091.490 8
  20869848.596    20869852.328    24928354.806 9 -57823545.940 8
  24019213.737    24019217.530    53458814.871 7 -35630651.310 7
 86  6 19  2 24 11.0800000  0  4G12G13G 9G11
  21311587.965    21311590.810   -29228470.576 9  29452917.477 9
  20661991.124    20661994.142    -6786132.234 9   2723926.140 8
  20872652.162    20872654.493    24943086.099 9 -57812067.014 7
  24022314.696    24022320.593    53475110.495 8 -35617953.427 5
 86  6 19  2 24 17.0800000  0  4G12G13G 9G11
  21309447.854    21309450.143   -29239715.860 9  29444154.915 8
  20662685.338    20662687.779    -6782481.974 9   2726770.499 8
  20875461.081    20875462.626    24957839.314 9 -57800571.014 8
  24025417.889    24025420.120    53491404.381 6 -35605256.913 7
 86  6 19  2 24 23.0800000  0  4G12G13G 9G11
  21307311.463    21307315.384   -29250940.581 9  29435408.376 9
  20663382.521    20663385.334    -6778819.316 9   2729624.531 8
  20878272.455    20878275.194    24972614.387 9 -57789057.968 8
  24028517.230    24028520.578    53507696.484 6 -35592561.777 6
 86  6 19  2 24 29.0800000  0  4G12G13G 9G11
  21305179.822    21305183.242   -29262144.681 9  29426677.915 9
  20664082.041    20664083.664    -6775144.287 9   2732488.175 9
  20881087.601    20881089.108    24987411.463 9 -57777527.791 9
  24031616.236    24031619.749    53523986.920 7 -35579867.957 6
 86  6 19  2 24 35.0800000  0  4G12G13G 9G11
  21303051.159    21303055.624   -29273328.244 9  29417963.440 8
  20664783.492    20664786.736    -6771456.932 9   2735361.454 8
  20883907.129    20883908.499    25002230.274 8 -57765980.665 8
  24034715.735    24034720.780    53540275.590 7 -35567175.479 6
 86  6 19  2 24 41.0800000  0  4G12G13G 9G11
  21300926.873    21300930.866   -29284491.187 9  29409265.051 8
  20665487.013    20665490.454    -6767757.208 9   2738244.354 8
  20886731.808    20886732.903    25017071.037 9 -57754416.444 7
  24037814.592    24037820.931    53556562.506 7 -35554484.395 6
 86  6 19  2 24 47.0800000  0  4G12G13G 9G11
  21298807.541    21298810.202   -29295633.416 9  29400582.798 7
  20666194.249    20666196.191    -6764045.035 9   2741136.954 8
  20889558.868    20889560.056    25031933.602 9 -57742835.229 6
  24040914.900    24040919.144    53572847.635 7 -35541794.691 6
 86  6 19  2 24 53.0800000  0  4G12G13G 9G11
  21296690.924    21296692.712   -29306755.041 9  29391916.592 9
  20666903.259    20666904.103    -6760320.566 9   2744039.135 8
  20892391.497    20892391.893    25046817.946 9 -57731237.036 8
  24044011.356    24044017.018    53589130.965 6 -35529106.391 6
 86  6 19  2 24 59.0800000  0  4G12G13G 9G11
  21294579.375    21294581.477   -29317856.071 9  29383266.437 9
  20667614.480    20667615.993    -6756583.829 9   2746950.873 9
  20895228.120    20895229.139    25061724.117 9 -57719621.857 8
  24047110.580    24047117.005    53605412.489 7 -35516419.514 6
 86  6 19  2 25  5.0800000  0  4G12G13G 9G11
  21292470.256    21292471.860   -29328936.408 9  29374632.411 8
  20668327.830    20668329.160    -6752834.789 9   2749872.212 7
  20898068.583    20898070.051    25076652.153 9 -57707989.619 7
  24050209.550    24050212.133    53621692.218 6 -35503734.013 6
 86  6 19  2 25 11.0800000  0  4G12G13G 9G11
  21290366.148    21290368.165   -29339996.042 9  29366014.515 8
  20669043.615    20669045.281    -6749073.406 9   2752803.148 8
  20900913.480    20900914.758    25091601.831 8 -57696340.519 7
  24053306.387    24053310.502    53637970.153 6 -35491049.920 3
 86  6 19  2 25 17.0800000  0  4G12G13G 9G11
  21288265.473    21288268.693   -29351034.941 9  29357412.770 9
  20669761.343    20669763.124    -6745299.812 9   2755743.615 8
  20903762.971    20903764.425    25106573.276 9 -57684674.473 8
  24056403.213    24056407.183    53654246.273 6 -35478367.242 6
 86  6 19  2 25 23.0800000  0  4G12G13G 9G11
  21286168.747    21286170.765   -29362053.108 9  29348827.184 8
  20670481.957    20670484.107    -6741513.949 9   2758693.633 8
  20906616.589    20906616.022    25121566.423 8 -57672991.500 7
  24059499.629    24059505.302    53670520.512 7 -35465686.014 6
 86  6 19  2 25 29.0800000  0  4G12G13G 9G11
  21284075.771    21284078.303   -29373050.495 9  29340257.795 8
  20671204.628    20671205.324    -6737715.908 9   2761653.138 8
  20909473.594    20909473.911    25136581.416 8 -57661291.507 7
  24062596.681    24062602.755    53686792.919 5 -35453006.232 6
 86  6 19  2 25 35.0800000  0  4G12G13G 9G11
  21281987.201    21281990.091   -29384027.131 9  29331704.568 9
  20671929.042    20671931.110    -6733905.715 9   2764622.128 9
  20912334.460    20912336.481    25151617.998 9 -57649574.693 8
  24065695.853    24065695.522    53703063.473 6 -35440327.922 5
